GFSGL_con_sbcape_000.txt.gz
CAPE
403 235 146 83 54 11 24 158 251 274 358 354 476 519 513 533 514 524 490 277 391 476 488 678 804 1093 681 732 1191 1655 1699 1516 709 271 213 587 2076 1358 1188 1303 1509 1735 1370
194 137 65 63 103 45 52 125 190 224 369 431 525 784 728 695 699 741 628 537 508 408 421 608 756 731 890 1225 944 1064 1103 1139 994 1158 467 547 1297 1875 1725 2529 2171 1172 1452
50 40 45 95 80 87 101 62 129 288 409 541 726 716 632 731 701 682 729 492 371 282 200 232 59 222 321 705 1163 847 587 973 919 1090 530 365 347 451 1140 2054 2378 2062 1166
12 0 37 235 169 99 103 206 257 466 621 788 797 819 864 857 793 784 654 475 289 136 52 34 12 47 290 626 607 1116 1083 737 974 836 593 317 319 744 1039 1275 1833 1222 1128
86 121 96 263 360 169 415 552 566 516 481 669 663 756 744 721 690 732 400 432 263 148 61 5 6 37 14 8 51 629 656 1010 652 784 464 305 452 658 769 860 1210 1270 1623
491 258 261 449 646 773 565 624 599 475 430 576 641 636 804 786 0 0 50 339 165 191 145 7 6 31 14 17 5 1 36 498 983 791 434 458 806 611 538 816 871 1092 925
647 444 430 736 777 775 361 535 578 632 669 567 584 652 826 873 72 0 4 275 203 127 170 175 9 10 14 12 8 8 2 2 76 1072 578 586 888 820 928 1020 1469 1548 1385
726 631 599 728 808 772 490 414 553 705 635 577 604 730 765 707 81 1 0 341 431 241 181 201 92 29 9 2 4 8 15 3 297 131 803 629 883 785 1034 1167 1999 1799 2000
549 644 587 718 795 837 729 679 735 671 427 402 582 784 807 820 85 6 0 442 697 381 334 262 169 90 0 0 1 2 5 24 0 10 42 185 192 118 486 1079 1089 1206 759
473 498 364 622 887 801 769 716 670 635 476 504 564 759 811 720 384 201 0 827 767 999 358 535 111 30 2 0 0 2 6 8 30 230 234 20 19 107 3 711 938 1292 1179
500 307 362 918 1295 1237 828 786 723 866 799 805 930 924 768 338 703 208 0 423 1090 732 690 223 376 67 3 0 0 1 1 3 15 60 299 618 546 520 614 285 729 572 590
767 718 1125 1431 1309 540 1186 887 662 907 1089 948 1039 881 418 411 186 6 0 0 7 192 334 406 455 88 10 4 1 0 0 2 27 61 82 42 280 697 505 663 784 580 883
1635 1330 1336 894 866 1243 1241 1104 749 653 502 516 538 406 597 426 346 0 0 2 0 0 70 159 6 66 55 80 38 3 4 10 4 3 5 3 30 551 382 517 967 958 1085
1145 1012 1259 1145 1123 1212 964 677 578 374 645 743 580 430 333 356 381 47 0 50 6 0 1 140 57 54 44 91 90 59 81 14 8 4 4 8 4 1 8 200 389 480 903
812 907 959 825 831 820 1005 407 414 0 115 115 398 316 271 218 31 0 0 0 0 0 0 155 27 2 4 14 28 94 76 90 19 7 0 2 3 5 4 4 15 326 248
824 690 525 501 435 307 356 119 0 0 0 0 0 0 0 0 0 0 0 0 0 0 49 1 0 0 2 8 7 8 15 28 98 35 6 1 2 2 14 1 3 4 4
670 530 358 78 210 486 713 412 0 0 0 0 0 0 0 0 0 0 0 0 0 0 0 0 0 1 0 2 9 9 8 5 8 5 11 82 2 1 1 23 20 19 12
489 9 246 394 522 554 409 266 83 10 44 19 0 0 0 0 0 0 0 0 0 0 0 0 1 3 5 3 3 5 6 8 12 14 12 8 9 84 82 16 12 2 20
391 412 657 361 268 15 2 1 0 0 5 4 10 1 1 0 0 0 0 1 1 1 1 1 2 2 2 3 5 10 10 0 2 12 23 13 9 24 117 119 83 12 2
92 20 20 103 2 1 1 1 1 0 5 6 4 7 12 11 10 8 5 5 3 1 0 1 0 0 2 2 1 0 1 1 3 3 2 6 2 2 1 93 176 102 103
117 125 1 24 4 6 7 5 6 5 2 4 8 1 0 7 5 7 6 4 2 1 2 0 0 0 0 0 0 0 0 0 0 0 1 4 0 0 0 1 5 43 92
94 83 107 33 7 2 0 1 8 2 5 9 8 1 0 6 6 11 7 4 1 0 0 0 0 0 0 0 0 0 0 0 0 0 1 2 0 1 2 2 6 2 1
13 3 4 3 0 0 1 1 3 3 2 3 3 2 6 14 12 5 7 6 4 1 0 0 0 0 0 0 0 0 0 0 0 0 0 0 0 0 0 0 0 4 7
0 0 0 0 0 0 0 0 1 0 0 0 0 0 1 3 8 2 2 1 1 0 0 0 0 0 0 0 0 0 0 0 0 0 0 0 0 0 0 0 2 1 0
0 0 0 0 0 0 0 0 0 1 1 1 0 0 0 0 0 0 0 0 0 0 0 0 0 0 0 0 0 0 0 0 0 0 0 0 0 0 0 0 0 0 0
0 0 0 0 0 0 0 1 2 3 2 0 0 0 0 0 0 0 0 0 0 0 0 0 0 0 0 0 0 0 0 0 0 0 0 0 0 0 0 0 0 0 0

GFSGL_con_sbcape_003.txt.gz
CAPE
620 499 187 87 97 179 149 125 274 384 427 433 306 315 467 529 637 772 760 719 523 844 832 691 810 941 194 390 857 902 917 1181 985 442 258 385 508 1249 549 1461 1637 1873 1088
383 366 160 208 233 136 157 136 187 214 334 375 389 640 520 533 967 665 701 658 737 618 434 364 176 98 404 286 393 934 938 858 831 635 511 455 1115 1510 1457 2004 1391 1169 1375
292 335 223 300 334 385 384 213 159 136 311 393 632 648 602 645 635 774 785 710 796 564 393 323 125 79 45 25 21 767 884 906 682 728 611 661 588 836 1458 1947 2029 1606 1681
125 32 118 301 569 546 516 350 447 516 568 650 724 729 574 642 774 860 830 835 701 595 486 303 127 17 31 2 12 29 69 523 692 616 907 719 633 694 1040 695 1109 1348 1235
175 184 270 411 637 764 679 617 552 533 479 591 897 750 425 621 400 874 930 722 744 681 516 450 152 17 1 8 28 13 14 12 7 849 704 798 571 492 431 622 720 1744 1716
523 445 405 435 606 787 800 701 666 618 737 903 555 787 937 453 109 73 193 564 778 685 533 386 423 150 12 29 6 4 10 14 8 6 760 780 925 651 450 397 1111 1327 1551
718 721 624 688 901 945 659 573 581 830 1328 1201 667 647 946 1276 141 191 241 400 702 840 763 603 305 283 157 51 0 0 2 3 13 26 7 266 648 725 596 900 1354 1331 1472
869 873 826 842 914 942 880 862 1101 1023 1367 1222 949 1031 1072 873 113 130 164 435 720 1006 1104 1024 780 355 293 2 0 0 0 3 10 25 46 6 310 884 966 441 1417 1310 1793
934 1011 1014 897 1010 1083 1097 1251 1320 1276 875 931 1154 1166 1405 1573 200 127 123 532 974 1057 1066 1094 783 357 157 0 0 0 1 4 11 3 0 0 0 87 420 1300 485 1674 1416
1278 1002 951 905 998 1066 1333 1206 1216 1490 744 574 574 841 784 1499 870 42 44 400 1221 831 947 921 252 102 34 0 3 2 5 9 5 9 10 0 0 64 0 322 1383 604 1216
962 882 1365 1162 1714 1409 1438 905 1315 1182 1236 1081 643 1228 1121 889 335 1 0 405 431 535 571 529 191 18 0 0 0 3 28 0 9 7 9 110 517 630 675 521 592 1021 657
1722 1282 1519 1967 1083 523 1766 1580 1385 1321 1197 933 563 593 78 380 226 11 0 0 46 0 45 82 322 8 0 2 3 3 0 1 5 7 100 349 697 713 681 887 743 905 725
2196 2406 1939 1573 891 800 1647 1751 1085 1471 1176 196 415 339 491 242 384 1 0 0 0 0 46 4 5 7 0 2 5 0 27 32 4 6 6 3 10 276 1218 1071 972 1134 1068
2383 1928 1926 2039 1712 1478 1633 1005 807 584 343 239 268 463 170 566 129 1 0 0 0 5 25 22 39 0 0 1 6 5 15 19 65 13 5 5 7 1 19 90 483 716 1044
1626 1259 1037 852 1194 1218 1271 419 417 0 12 85 116 138 88 131 0 0 0 0 0 0 0 377 20 0 0 3 6 10 8 3 2 49 21 6 4 7 4 2 81 631 927
1188 1034 692 597 514 366 374 57 0 0 0 0 0 0 0 0 0 0 1 0 0 0 0 17 10 3 1 2 13 8 8 5 7 3 6 50 15 2 2 2 8 9 5
1108 720 454 136 243 651 746 789 423 0 0 0 0 0 0 0 0 0 0 0 0 0 13 11 9 7 7 10 11 10 9 7 7 18 16 5 30 28 3 1 5 2 4
717 0 268 342 629 854 587 413 382 293 89 0 0 0 0 0 0 0 0 0 3 5 11 7 5 4 3 0 0 7 6 6 2 1 10 12 41 31 82 6 0 1 3
538 652 738 660 482 158 68 0 0 0 0 0 4 0 0 0 0 0 0 3 0 0 4 3 2 1 0 1 2 3 2 0 1 3 7 1 2 21 44 90 35 5 14
463 209 412 399 198 106 10 2 0 1 0 0 1 0 0 9 4 9 5 3 2 2 0 0 0 0 0 0 0 0 0 0 1 1 2 0 0 0 2 127 118 117 94
364 385 23 224 29 0 0 0 4 16 11 1 0 0 0 0 6 2 5 5 1 0 1 1 0 0 0 0 0 0 0 0 0 0 1 0 0 0 0 0 37 40 3
287 315 279 123 36 37 22 16 17 7 11 10 4 0 0 0 2 3 5 6 1 0 1 0 0 0 0 0 0 0 0 0 0 0 0 0 0 0 0 0 0 3 0
52 48 12 3 5 0 0 6 9 7 11 8 9 6 9 6 2 3 1 3 2 1 0 0 0 0 0 0 0 0 0 0 0 0 0 0 0 0 0 1 1 0 0
0 0 0 0 2 0 1 3 5 0 1 2 1 0 2 3 10 2 0 0 1 0 0 0 0 0 0 0 0 0 0 0 0 0 0 0 0 0 0 0 0 0 0
1 0 0 5 6 0 0 0 1 0 0 0 0 0 0 0 0 0 0 0 0 0 0 0 0 0 0 0 0 0 0 0 0 0 0 0 0 0 0 0 0 0 0
5 3 1 0 0 0 0 0 1 0 0 0 0 0 0 0 0 0 0 0 0 0 0 0 0 0 0 0 0 0 0 0 0 0 0 0 0 0 0 0 0 0 0

GFSGL_con_sbcape_006.txt.gz
CAPE
1476 1764 1511 702 824 1345 1072 1030 1119 1512 1471 1396 1297 1168 1087 986 1161 900 972 746 481 674 651 532 599 323 66 3 1 5 9 11 44 7 101 284 476 339 469 903 795 678 739
1295 1775 1573 1251 953 919 1066 951 1106 1289 1463 1418 1413 1248 941 972 974 693 760 765 738 673 755 677 581 116 154 3 0 7 12 6 21 36 70 261 360 313 190 247 471 375 314
1190 926 1361 1363 1294 1393 1317 1295 1259 1282 1318 1436 1342 1181 989 1053 1134 969 944 769 913 936 869 674 560 306 149 14 2 3 8 9 2 12 40 200 289 326 294 450 211 167 297
589 842 1422 1510 1500 1346 1651 1776 1444 1607 1595 1491 1482 1436 1201 1189 1153 967 853 797 686 878 925 707 668 501 260 5 4 4 4 3 4 5 9 39 238 238 292 165 367 595 586
996 1112 1518 1799 1671 1756 1846 1649 1611 1735 1549 1758 1604 1483 1438 1205 602 996 784 904 1008 962 1039 783 652 585 245 89 15 1 2 0 4 6 11 13 11 236 264 114 257 321 463
616 1109 1648 1711 1654 1613 1927 2117 1964 2031 1852 1804 1482 1463 1451 940 45 180 499 1064 1031 980 913 833 681 508 465 225 101 54 0 15 4 5 6 2 0 19 249 225 144 300 302
1404 1392 1536 1661 1685 1908 1887 1945 2056 1813 1955 1917 1682 1485 1499 1310 603 172 385 680 861 824 952 930 547 543 338 203 189 49 17 1 9 10 13 16 12 9 74 229 149 113 133
1703 1663 1655 1789 1809 2048 2032 2027 2206 2193 2194 1828 1576 1642 1485 1127 398 42 112 650 848 893 969 819 507 483 512 315 138 79 58 3 13 17 16 16 20 24 5 136 175 86 316
1588 1766 1799 1795 1919 2008 2139 1962 2180 1943 1948 1746 1675 1535 1237 1346 383 1 0 643 753 742 1054 759 628 353 318 15 24 43 1 0 3 0 3 2 3 8 2 13 100 77 123
1502 1823 1963 1986 2148 2129 2043 2018 1773 2105 1476 994 1015 1291 1264 1339 26 43 32 12 99 426 772 755 436 10 0 0 0 5 23 30 4 7 6 5 0 2 1 2 1 135 0
1726 1934 2087 2249 2551 2549 2614 2312 1917 1145 845 1418 1416 1341 1289 1014 339 74 12 54 154 436 140 208 478 0 0 0 0 13 1 0 20 18 11 11 8 1 4 0 6 324 40
2696 2469 2674 2857 1904 1268 2350 1940 1521 1891 1383 1227 1275 777 391 507 93 9 12 0 9 67 123 185 240 0 0 0 0 0 0 1 4 12 8 6 5 11 5 84 9 108 318
3040 3266 3113 2953 2622 2486 2159 1780 1903 1250 1250 1279 924 418 185 261 583 36 0 0 0 0 120 27 0 0 0 0 0 0 0 1 2 13 12 8 6 6 34 292 254 114 143
3244 3433 3068 2714 2643 2439 1623 1762 942 1352 731 714 391 737 686 667 8 0 0 0 0 0 0 0 0 0 0 0 0 3 5 4 6 19 19 22 9 5 9 3 321 349 244
3238 2920 2872 2249 2136 1612 113 22 445 0 0 64 8 7 0 47 0 0 0 0 0 0 0 3 120 0 0 0 0 4 5 5 3 5 19 22 20 2 3 2 5 22 233
2212 1883 1593 1454 401 1290 98 0 0 0 0 0 0 0 0 0 0 0 0 0 0 0 0 24 0 0 0 0 3 2 5 2 3 3 5 4 76 26 1 1 5 5 4
1738 1549 1047 249 810 1006 902 759 356 0 0 0 0 0 0 0 0 0 0 0 0 0 1 0 0 1 3 0 0 0 0 0 2 0 0 0 3 60 29 2 2 3 2
991 19 539 614 669 952 692 499 421 501 147 7 0 0 0 0 0 0 0 0 0 0 0 0 0 0 0 0 0 0 0 0 0 0 0 0 0 1 68 58 22 2 1
497 472 612 765 385 259 226 127 64 18 1 3 4 0 0 0 0 0 0 0 0 0 0 0 0 0 0 0 0 0 0 0 0 0 0 0 0 0 0 60 84 12 2
446 42 224 689 107 202 46 15 1 0 0 4 1 0 0 0 0 0 2 0 0 0 0 0 0 0 0 0 0 0 0 0 0 0 0 0 0 0 0 0 6 3 16
270 228 30 523 85 3 0 0 0 3 17 4 0 0 0 0 0 1 1 4 0 0 1 0 0 0 0 0 0 0 0 0 0 0 0 0 0 0 0 0 0 0 0
143 110 134 329 54 82 53 57 6 2 8 2 0 0 0 0 0 1 4 6 4 5 3 2 0 0 0 0 0 0 0 0 0 0 0 0 0 0 0 0 0 0 0
187 79 44 0 0 0 1 3 10 4 11 6 8 0 0 0 0 0 0 10 17 1 0 0 0 0 0 0 0 0 0 0 0 0 0 0 0 0 0 0 0 0 0
0 0 0 0 0 0 0 5 3 0 0 0 3 0 1 8 2 0 0 3 2 0 0 0 0 0 0 0 0 0 0 0 0 0 0 0 0 0 0 0 0 0 0
0 10 13 9 16 7 2 0 0 1 0 0 0 0 0 0 0 0 0 0 0 0 0 0 0 0 0 0 0 0 0 0 0 0 0 0 0 0 0 0 0 0 0
6 4 6 5 3 0 0 0 0 0 0 0 0 0 0 0 0 0 0 0 0 0 0 0 0 0 0 0 0 0 0 0 0 0 0 0 0 0 0 0 0 0 0

GFSGL_con_sbcape_009.txt.gz
CAPE
573 476 471 605 322 177 89 5 23 97 303 256 229 154 108 160 212 232 80 85 64 46 76 68 52 0 0 0 0 0 0 0 4 1 0 0 5 14 20 335 221 126 61
590 538 408 0 6 133 46 17 11 51 105 161 130 193 175 105 115 109 6 81 91 70 99 89 139 32 0 0 0 0 0 0 4 1 0 0 2 0 6 92 90 155 345
329 635 173 54 21 30 68 29 33 45 38 3 106 105 88 102 104 128 169 126 112 81 154 161 130 48 0 0 0 0 0 0 0 2 1 0 1 0 0 32 106 46 118
363 438 217 165 98 139 167 179 180 166 125 248 340 225 169 251 252 343 306 112 117 103 221 276 132 97 34 0 0 0 0 0 0 0 0 4 7 3 2 8 47 110 152
333 225 180 172 193 278 299 409 346 182 335 268 322 316 261 453 508 66 139 271 271 193 305 220 237 137 391 35 0 0 0 0 0 0 0 3 3 2 5 5 13 76 112
170 170 351 356 323 357 313 393 289 224 334 511 267 193 286 414 260 14 23 48 166 181 172 160 189 298 97 216 236 260 103 18 0 0 0 6 2 4 13 2 12 30 36
125 124 195 262 272 336 412 575 763 654 531 179 403 423 256 400 625 284 142 32 51 113 183 144 114 229 214 67 22 85 135 153 125 54 12 14 26 11 21 11 12 21 20
82 260 274 380 467 505 586 627 651 529 304 414 511 299 465 457 366 139 13 12 59 160 204 197 218 155 88 35 0 0 0 6 12 23 34 21 11 11 17 19 16 12 21
164 264 537 523 505 645 863 849 710 713 563 642 579 346 406 201 6 3 0 0 4 2 11 59 114 53 0 0 0 0 0 0 2 12 4 0 1 4 8 12 23 29 12
449 580 787 745 783 914 978 1056 850 653 513 425 21 350 204 0 0 0 0 0 0 0 42 24 2 0 0 0 0 0 2 0 0 0 1 0 3 5 3 0 2 28 5
557 874 1077 1098 1115 1090 1096 955 798 752 30 12 167 368 257 150 0 0 0 0 2 2 0 0 0 0 0 0 0 1 0 1 1 0 4 4 12 15 14 1 3 5 12
924 1109 1382 1430 1368 1332 1302 1055 829 401 101 145 220 303 50 9 0 0 0 0 5 0 0 0 0 0 0 0 0 0 0 0 2 5 8 6 12 12 4 2 1 2 10
1548 1570 1771 1805 1711 863 1083 802 364 134 157 108 174 178 6 0 0 0 0 0 0 0 0 0 0 0 0 0 0 0 0 3 3 3 6 21 5 23 8 5 1 2 9
22 1363 1131 1534 1492 1057 230 185 177 208 159 91 51 1 3 0 0 0 0 0 0 0 0 0 0 0 0 0 0 0 1 0 4 4 3 9 6 21 13 7 5 24 20
0 9 697 1147 864 0 1 0 0 0 0 0 0 0 0 0 0 0 0 0 0 0 0 0 0 0 0 0 0 0 0 0 0 1 3 2 2 23 22 10 5 2 2
3 370 649 535 305 0 0 0 0 0 0 0 0 0 0 0 0 0 0 0 0 0 0 0 0 0 0 0 0 0 0 0 0 0 1 1 3 2 33 4 5 5 5
715 318 373 161 138 21 0 0 0 0 0 0 0 0 0 0 0 0 0 0 0 0 0 0 0 0 0 0 0 0 0 0 0 0 0 0 1 1 1 26 14 2 2
426 212 97 108 127 65 105 51 0 0 0 0 0 0 0 0 0 0 0 0 0 0 0 0 0 0 0 0 0 0 0 0 0 0 0 0 0 1 0 7 3 11 2
323 193 55 0 5 4 0 0 0 0 0 0 0 0 0 0 0 0 0 0 0 0 0 0 0 0 0 0 0 0 0 0 0 0 0 0 0 0 0 4 1 0 0
0 0 11 0 1 1 0 0 0 0 0 0 0 0 0 0 0 0 0 0 0 0 0 0 0 0 0 0 0 0 0 0 0 0 0 0 0 0 0 0 0 0 0
44 4 1 0 0 0 0 0 0 0 0 0 0 0 0 0 0 0 0 0 0 0 0 0 0 0 0 0 0 0 0 0 0 0 0 0 0 0 0 0 0 0 0
35 2 1 3 0 0 0 0 0 0 0 0 0 0 0 0 0 0 0 0 0 0 0 0 0 0 0 0 0 0 0 0 0 0 0 0 0 0 0 0 0 0 0
28 12 0 0 0 0 0 0 0 2 0 0 0 0 0 0 0 0 0 0 0 0 0 0 0 0 0 0 0 0 0 0 0 0 0 0 0 0 0 0 0 0 0
0 0 0 0 0 0 0 0 0 0 0 0 0 0 0 0 0 0 0 0 0 0 0 0 0 0 0 0 0 0 0 0 0 0 0 0 0 0 0 0 0 0 0
0 0 0 0 0 0 0 0 0 0 0 0 0 0 0 0 0 0 0 0 0 0 0 0 0 0 0 0 0 0 0 0 0 0 0 0 0 0 0 0 0 0 0
0 4 0 0 0 0 0 0 0 0 0 0 0 0 0 0 0 0 0 0 0 0 0 0 0 0 0 0 0 0 0 0 0 0 0 0 0 0 0 0 0 0 0

GFSGL_con_sbcape_012.txt.gz
CAPE
24 0 0 0 0 0 0 0 0 0 0 9 0 0 0 0 0 0 0 0 0 0 0 0 0 0 0 0 0 0 0 0 0 0 0 0 0 0 0 0 0 11 75
95 0 13 71 63 10 8 0 0 0 5 4 0 0 0 0 0 0 0 0 0 0 13 4 6 2 0 0 0 0 0 0 0 2 0 0 0 0 0 0 1 4 49
114 21 50 24 0 8 15 3 0 0 0 0 0 0 0 0 0 0 0 3 2 17 30 12 9 0 0 0 0 0 0 0 0 1 0 0 0 0 0 0 0 0 11
274 100 76 0 0 0 19 6 0 0 0 0 0 0 0 0 0 12 25 51 42 49 29 26 31 3 0 0 0 0 0 0 0 0 1 2 0 0 0 0 0 0 0
283 307 178 11 0 0 4 2 0 0 0 0 0 0 0 0 38 98 25 29 67 61 31 41 38 30 41 6 0 0 0 0 0 1 0 2 0 0 0 0 10 6 2
174 261 162 21 30 7 37 40 49 67 21 9 50 67 3 16 134 94 0 0 9 15 31 26 19 96 132 172 153 80 2 0 0 12 14 3 10 11 17 8 16 5 4
287 254 116 80 88 72 99 56 131 82 37 53 108 31 75 38 59 146 2 0 0 0 0 0 0 32 72 24 2 0 0 16 50 40 19 17 4 14 41 27 16 13 13
134 148 238 237 169 138 139 155 197 251 276 216 75 82 104 54 154 175 20 0 0 0 2 8 2 5 0 0 0 0 0 0 0 0 0 1 4 7 3 12 10 14 12
84 118 177 251 198 140 169 217 285 309 224 125 68 97 22 95 47 1 0 0 0 0 0 0 0 0 0 0 0 0 0 0 0 0 0 0 3 0 4 18 13 11 3
57 133 170 212 215 189 283 397 426 384 361 96 7 3 38 1 2 0 0 0 0 0 0 0 0 0 0 0 0 0 0 0 0 0 0 0 0 0 14 16 25 14 2
45 98 130 323 238 344 483 560 572 234 0 0 0 0 1 5 0 0 0 0 0 0 0 0 0 0 0 0 0 0 1 1 1 3 2 0 0 2 5 26 7 14 1
98 245 301 371 589 594 607 541 98 45 1 0 0 0 7 0 0 0 0 0 0 0 0 0 0 0 0 0 0 0 0 0 3 3 2 1 2 1 2 15 4 1 1
0 0 0 0 0 24 607 417 121 4 0 0 0 1 1 0 0 0 0 0 0 0 0 0 0 0 0 0 0 0 0 1 4 2 2 1 2 0 2 18 7 2 1
0 0 0 0 0 0 58 82 33 38 0 0 6 0 0 0 0 0 0 0 0 0 0 0 0 0 0 0 0 0 0 0 0 3 3 3 1 0 1 17 9 6 5
0 0 0 0 132 16 0 0 0 0 0 0 0 0 0 0 0 0 0 0 0 0 0 0 0 0 0 0 0 0 0 0 0 0 2 0 1 1 1 4 14 7 4
0 0 0 4 48 0 0 0 0 0 0 0 0 0 0 0 0 0 0 0 0 0 0 0 0 0 0 0 0 0 0 0 0 0 0 0 1 2 1 5 2 10 8
0 0 9 31 6 0 0 0 0 0 0 0 0 0 0 0 0 0 0 0 0 0 0 0 0 0 0 0 0 0 0 0 0 0 0 0 0 1 1 4 1 1 2
48 41 22 1 3 0 0 0 0 0 0 0 0 0 0 0 0 0 0 0 0 0 0 0 0 0 0 0 0 0 0 0 0 0 0 0 0 0 0 1 2 1 0
0 5 6 6 0 0 0 0 0 0 0 0 0 0 0 0 0 0 0 0 0 0 0 0 0 0 0 0 0 0 0 0 0 0 0 0 0 0 0 0 0 0 0
0 23 0 0 0 0 0 0 0 0 0 0 0 0 0 0 0 0 0 0 0 0 0 0 0 0 0 0 0 0 0 0 0 0 0 0 0 0 0 0 0 0 0
12 2 0 0 0 0 0 0 0 0 0 0 0 0 0 0 0 0 0 0 0 0 0 0 0 0 0 0 0 0 0 0 0 0 0 0 0 0 0 0 0 0 0
0 0 0 0 0 0 0 0 0 0 0 0 0 0 0 0 0 0 0 0 0 0 0 0 0 0 0 0 0 0 0 0 0 0 0 0 0 0 0 0 0 0 0
0 0 0 0 0 0 0 0 0 0 0 0 0 0 0 0 0 0 0 0 0 0 0 0 0 0 0 0 0 0 0 0 0 0 0 0 0 0 0 0 0 0 0
0 0 0 0 0 0 0 0 0 0 0 0 0 0 0 0 0 0 0 0 0 0 0 0 0 0 0 0 0 0 0 0 0 0 0 0 0 0 0 0 0 0 0
0 0 0 0 0 0 0 0 0 0 0 0 0 0 0 0 0 0 0 0 0 0 0 0 0 0 0 0 0 0 0 0 0 0 0 0 0 0 0 0 0 0 0
0 0 0 0 0 0 0 0 0 0 0 0 0 0 0 0 0 0 0 0 0 0 0 0 0 0 0 0 0 0 0 0 0 0 0 0 0 0 0 0 0 0 0

GFSGL_con_sbcape_015.txt.gz
CAPE
1 0 0 0 0 0 0 0 0 0 0 0 0 0 0 0 0 0 0 0 0 0 0 0 0 0 0 0 0 0 0 0 0 0 0 0 0 0 0 0 0 0 0
32 0 0 0 0 0 0 0 0 0 0 0 0 0 0 0 0 0 0 0 0 0 0 0 0 0 0 0 0 0 0 0 0 0 0 0 0 0 0 0 0 0 0
25 0 0 0 0 0 0 0 0 0 0 0 0 0 0 0 0 0 0 0 0 0 0 0 0 0 0 0 0 0 0 0 0 0 0 0 0 0 0 0 0 0 0
16 0 0 0 0 4 0 0 0 0 0 0 0 0 0 0 0 0 0 0 0 0 0 0 0 0 0 0 0 0 0 0 0 0 1 0 0 0 0 0 0 0 0
17 0 0 0 1 3 37 0 0 0 0 12 0 0 0 0 0 0 0 0 0 0 0 10 2 9 82 25 0 0 0 0 0 0 0 0 0 0 0 0 0 0 1
146 38 13 0 0 0 0 0 0 0 0 0 0 0 0 0 0 5 3 0 0 0 0 0 0 7 16 54 185 252 15 0 0 0 0 0 0 0 0 0 0 8 11
199 65 6 67 80 12 0 0 0 0 1 32 5 7 14 0 0 0 1 0 0 0 0 0 0 0 6 4 9 17 32 47 57 7 0 0 0 0 0 0 0 6 9
24 83 43 3 34 47 25 10 31 9 30 52 21 20 4 0 0 10 26 5 0 0 0 0 0 0 0 0 0 0 0 0 0 0 0 0 0 0 0 0 5 7 7
49 72 153 102 2 39 31 52 54 110 122 110 34 13 7 0 0 3 0 0 0 0 0 0 0 0 0 0 0 0 0 0 0 1 2 0 0 0 0 8 7 10 9
162 0 7 18 35 45 58 89 89 128 123 36 13 4 6 7 28 5 0 0 0 0 0 0 0 0 0 0 0 0 0 0 0 0 0 0 0 0 0 4 4 11 12
2 0 0 2 10 13 21 54 87 123 49 0 10 0 1 0 0 3 0 0 0 0 0 0 0 0 0 0 0 0 0 0 1 3 2 0 0 0 0 0 2 9 4
3 4 0 15 107 7 0 0 0 4 9 0 4 4 0 0 0 0 0 1 0 0 0 0 0 0 0 0 0 0 0 0 1 4 1 0 0 1 0 0 3 15 11
0 0 0 0 0 0 0 0 0 0 17 0 0 0 0 0 0 0 0 0 0 0 0 0 0 0 0 0 0 0 0 0 0 0 2 2 2 1 1 0 1 9 4
0 0 0 0 0 0 0 0 3 15 2 0 0 0 0 0 0 0 0 0 0 0 0 0 0 0 0 0 0 0 0 0 0 0 1 2 0 1 1 0 3 8 9
0 0 0 0 0 0 0 1 0 0 0 0 0 0 0 0 0 0 0 0 0 0 0 0 0 0 0 0 0 0 0 0 0 0 0 0 0 1 1 1 1 2 11
0 0 0 0 0 0 0 0 0 0 0 0 0 0 0 0 0 0 0 0 0 0 0 0 0 0 0 0 0 0 0 0 0 0 0 0 0 0 3 1 0 0 3
0 0 0 0 0 1 0 0 0 0 0 0 0 0 0 0 0 0 0 0 0 0 0 0 0 0 0 0 0 0 0 0 0 0 0 0 0 0 1 1 1 0 0
0 0 0 0 0 1 0 0 0 0 0 0 0 0 0 0 0 0 0 0 0 0 0 0 0 0 0 0 0 0 0 0 0 0 0 0 0 0 0 0 1 1 1
0 2 0 0 0 0 0 0 0 0 0 0 0 0 0 0 0 0 0 0 0 0 0 0 0 0 0 0 0 0 0 0 0 0 0 0 0 0 0 0 0 0 0
0 0 0 0 0 0 0 0 0 0 0 0 0 0 0 0 0 0 0 0 0 0 0 0 0 0 0 0 0 0 0 0 0 0 0 0 0 0 0 0 0 0 0
0 0 0 0 0 0 0 0 0 0 0 0 0 0 0 0 0 0 0 0 0 0 0 0 0 0 0 0 0 0 0 0 0 0 0 0 0 0 0 0 0 0 0
0 0 0 0 0 0 0 0 0 0 0 0 0 0 0 0 0 0 0 0 0 0 0 0 0 0 0 0 0 0 0 0 0 0 0 0 0 0 0 0 0 0 0
0 0 0 0 0 0 0 0 0 0 0 0 0 0 0 0 0 0 0 0 0 0 0 0 0 0 0 0 0 0 0 0 0 0 0 0 0 0 0 0 0 0 0
0 0 0 0 0 0 0 0 0 0 0 0 0 0 0 0 0 0 0 0 0 0 0 0 0 0 0 0 0 0 0 0 0 0 0 0 0 0 0 0 0 0 0
0 0 0 0 0 0 0 0 0 0 0 0 0 0 0 0 0 0 0 0 0 0 0 0 0 0 0 0 0 0 0 0 0 0 0 0 0 0 0 0 0 0 0
0 0 0 0 0 0 0 0 0 0 0 0 0 0 0 0 0 0 0 0 0 0 0 0 0 0 0 0 0 0 0 0 0 0 0 0 0 0 0 0 0 0 0

GFSGL_con_sbcape_018.txt.gz
CAPE
357 43 3 0 0 0 0 0 0 0 0 0 0 0 0 0 0 0 0 0 0 0 0 0 0 0 0 0 0 0 0 0 0 0 0 0 0 0 0 0 0 0 0
383 59 0 0 0 0 0 0 0 0 0 0 0 0 0 0 0 0 0 0 0 0 0 0 0 0 0 0 0 0 0 0 2 0 0 0 0 0 0 0 0 0 0
392 46 2 0 0 0 6 0 0 0 0 0 0 0 0 0 0 0 0 0 0 0 0 0 0 0 0 0 0 1 2 1 4 2 1 2 3 0 0 0 0 0 0
374 133 4 0 0 0 6 0 0 0 0 0 0 0 0 0 0 0 0 0 0 0 0 0 0 0 3 0 0 0 1 3 4 3 3 2 1 5 0 0 0 0 0
406 144 6 0 0 0 0 40 14 0 0 0 0 0 0 0 0 2 0 1 0 5 0 0 0 0 0 0 12 36 7 23 18 1 4 3 1 3 1 0 2 0 0
333 101 0 6 2 0 0 0 0 0 0 9 7 27 9 20 22 12 16 14 7 10 12 0 0 0 0 2 39 43 88 57 43 40 3 4 4 2 1 3 2 1 2
310 3 0 0 0 0 0 0 0 3 1 8 30 50 66 95 42 0 0 35 0 2 0 0 0 0 0 1 0 4 22 31 75 88 1 6 7 1 9 10 5 4 4
229 7 0 0 0 0 0 0 0 8 0 10 69 64 102 139 62 3 0 15 20 0 0 0 0 0 0 0 0 0 0 0 0 0 0 0 4 8 12 8 0 5 10
228 69 0 0 0 0 6 1 0 0 5 41 89 135 112 144 58 0 0 0 0 0 0 0 0 0 0 0 0 0 0 0 0 0 0 0 2 4 6 8 7 11 10
247 181 85 1 0 42 3 0 5 2 19 6 23 23 49 80 10 0 0 0 0 0 0 0 0 0 0 0 0 0 0 0 0 0 0 0 3 3 1 2 2 9 6
269 273 170 141 97 17 0 3 2 0 1 0 15 4 6 2 3 0 0 0 0 0 0 0 0 0 0 0 0 0 0 0 2 2 2 0 2 2 0 0 4 4 4
161 120 34 0 21 3 18 0 0 0 0 0 6 3 0 2 0 0 0 0 0 0 0 0 0 0 0 0 0 0 0 0 1 1 0 0 4 3 1 4 6 5 7
4 4 58 28 21 0 0 0 0 0 0 0 13 25 57 0 0 0 1 0 0 0 0 0 0 0 0 0 0 0 0 0 0 0 0 0 1 3 7 7 6 2 0
0 0 0 0 0 0 0 0 0 0 0 6 39 22 2 1 0 0 0 0 0 0 0 0 0 0 0 0 0 0 0 0 0 0 0 0 0 1 1 6 7 2 2
0 0 0 0 0 1 2 2 2 2 0 10 1 1 0 1 0 0 0 0 0 0 0 0 0 0 0 0 0 0 0 0 0 0 0 0 0 0 0 2 7 1 3
0 0 0 0 1 2 3 2 0 0 1 1 0 0 0 0 0 0 0 0 0 0 0 0 0 0 0 0 0 0 0 0 0 0 0 0 0 0 0 1 5 4 2
0 0 0 0 0 0 2 1 0 0 0 0 0 0 0 0 0 0 0 0 0 0 0 0 0 0 0 0 0 0 0 0 0 0 0 0 0 0 0 0 4 6 3
0 0 0 0 0 0 2 0 0 0 0 0 0 0 0 0 0 0 0 0 0 0 0 0 0 0 0 0 0 0 0 0 0 0 0 0 0 0 0 0 0 4 5
0 0 0 0 0 0 1 0 0 0 0 0 0 0 0 0 0 0 0 0 0 0 0 0 0 0 0 0 0 0 0 0 0 0 0 0 0 0 0 0 0 0 1
0 0 0 0 0 0 0 0 0 0 0 0 0 0 0 0 0 0 0 0 0 0 0 0 0 0 0 0 0 0 0 0 0 0 0 0 0 0 0 0 0 0 0
0 0 0 0 0 0 0 0 0 0 0 0 0 0 0 0 0 0 0 0 0 0 0 0 0 0 0 0 0 0 0 0 0 0 0 0 0 0 0 0 0 0 0
0 0 0 0 0 0 0 0 0 0 0 0 0 0 0 0 0 0 0 0 0 0 0 0 0 0 0 0 0 0 0 0 0 0 0 0 0 0 0 0 0 0 0
0 0 0 0 0 0 0 0 0 0 0 0 0 0 0 0 0 0 0 0 0 0 0 0 0 0 0 0 0 0 0 0 0 0 0 0 0 0 0 0 0 0 0
0 0 0 0 0 0 0 0 0 0 0 0 0 0 0 0 0 0 0 0 0 0 0 0 0 0 0 0 0 0 0 0 0 0 0 0 0 0 0 0 0 0 0
0 0 0 0 0 0 0 0 0 0 0 0 0 0 0 0 0 0 0 0 0 0 0 0 0 0 0 0 0 0 0 0 0 0 0 0 0 0 0 0 0 0 0
0 0 0 0 0 0 0 0 0 0 0 0 0 0 0 0 0 0 0 0 0 0 0 0 0 0 0 0 0 0 0 0 0 0 0 0 0 0 0 0 0 0 0

GFSGL_con_sbcape_021.txt.gz
CAPE
2362 2491 2461 1804 1310 48 253 9 1 22 94 302 257 198 283 288 249 290 253 174 235 300 296 308 382 349 181 165 169 155 116 82 47 0 6 6 3 5 23 46 1 0 0
2248 2352 1932 967 35 422 61 92 30 27 13 59 193 269 317 327 267 332 299 102 258 291 205 365 379 242 455 696 463 393 200 188 120 63 50 53 63 66 124 146 106 0 0
2071 1690 1342 98 229 48 0 21 2 17 32 33 90 273 260 328 353 393 309 310 288 209 292 391 418 419 448 606 537 205 137 177 147 85 58 44 70 53 32 102 102 63 7
1905 1588 940 189 379 126 0 0 0 0 0 15 16 65 238 427 373 308 277 362 387 361 384 490 552 277 299 436 413 355 330 276 220 74 70 56 59 88 52 40 54 41 34
2152 1661 1129 340 411 239 138 6 0 0 1 16 5 36 131 240 223 274 319 522 756 652 555 605 418 262 120 56 118 142 214 171 122 127 106 73 58 47 64 66 49 57 100
1996 1660 1002 460 540 383 184 66 0 0 0 64 9 27 177 182 26 0 217 724 891 746 670 631 500 70 49 0 14 25 56 172 234 272 144 124 133 197 83 73 45 14 13
1981 1570 667 656 629 432 171 134 77 45 21 46 55 114 303 360 52 14 9 619 954 860 790 721 476 122 14 45 8 0 6 0 34 119 77 87 119 131 101 26 26 36 37
1885 1271 843 665 603 474 311 165 210 211 18 118 196 352 365 584 136 36 22 450 736 801 785 742 407 205 44 6 24 31 48 40 60 8 11 12 7 3 11 27 26 26 32
1769 1223 1002 788 670 451 284 228 361 333 190 182 275 430 516 850 6 0 0 76 92 154 428 182 45 21 0 0 0 4 13 2 1 0 0 0 0 0 1 13 6 46 27
1828 1366 1040 822 665 396 317 254 336 309 327 297 283 361 323 639 29 1 1 1 20 11 1 3 0 0 0 0 0 1 3 2 2 0 0 4 4 5 1 11 6 52 48
1746 1315 947 720 544 470 576 566 554 476 422 461 503 709 276 320 35 18 0 0 6 1 0 35 8 0 0 0 0 2 3 0 0 1 1 3 4 5 6 11 19 38 84
1137 1114 931 760 553 526 656 662 700 686 703 871 572 91 388 465 26 0 1 0 0 31 129 42 0 0 0 0 0 0 0 0 0 1 1 1 2 0 0 0 0 2 19
1350 1033 743 576 698 667 676 932 891 871 978 787 72 154 267 130 42 0 1 1 0 4 5 0 0 0 0 0 0 0 0 0 0 0 0 0 0 0 0 0 0 3 11
1065 1005 830 862 798 770 672 673 627 558 509 106 136 144 156 36 22 0 0 0 0 0 0 0 0 0 0 0 0 0 0 0 0 0 0 0 0 0 0 0 0 3 14
902 884 796 458 294 4 2 2 0 1 1 60 150 151 124 222 78 0 0 0 0 0 0 0 0 0 1 0 0 0 0 0 0 0 0 0 0 0 0 0 0 7 13
529 424 307 161 0 0 0 0 0 0 0 0 0 58 0 0 0 0 0 0 0 0 0 0 0 0 0 0 0 0 0 0 0 0 0 0 0 0 0 0 0 0 11
40 0 0 4 0 0 1 0 0 0 0 0 0 0 0 0 0 0 0 0 0 0 0 0 0 0 0 0 0 0 0 0 0 0 0 0 0 0 0 0 0 0 4
0 0 0 0 0 0 2 0 0 0 0 0 0 0 0 0 0 0 0 0 0 0 0 0 0 0 0 0 0 0 0 0 0 0 0 0 0 0 0 0 0 2 4
24 0 0 0 52 29 41 2 0 0 0 0 0 0 0 0 0 0 0 0 0 0 0 0 0 0 0 0 0 0 0 0 0 0 0 0 0 0 0 0 0 0 0
117 22 197 367 107 131 66 15 0 0 0 0 0 0 0 0 0 0 0 0 0 0 0 0 0 0 0 0 0 0 0 0 0 0 0 0 0 0 0 0 0 0 0
356 197 54 227 260 220 186 116 40 0 0 0 0 0 0 0 0 0 0 0 0 0 0 0 0 0 0 0 0 0 0 0 0 0 0 0 0 0 0 0 0 0 0
218 243 237 264 254 208 216 155 94 71 32 3 0 0 0 0 0 0 0 0 0 0 1 2 0 0 0 0 0 0 0 0 0 0 0 0 0 0 0 0 0 0 0
297 369 333 335 357 55 154 231 165 73 30 2 0 0 0 0 0 0 0 0 0 0 0 0 0 0 0 0 0 0 0 0 0 0 0 0 0 0 0 0 0 0 0
239 277 336 348 281 272 335 280 145 6 1 1 10 5 20 20 7 0 0 0 0 0 0 0 0 0 0 0 0 0 0 0 0 0 0 0 0 0 0 0 0 0 0
93 157 196 266 273 279 260 235 53 12 7 36 18 27 38 38 14 0 0 0 0 0 0 0 0 0 0 0 0 0 0 0 0 0 0 0 0 0 0 0 0 0 0
0 1 28 118 176 209 234 192 74 76 78 25 23 32 30 24 19 7 0 0 0 0 0 0 0 0 0 0 0 0 0 0 0 0 0 0 0 0 0 0 0 0 0

GFSGL_con_sbcape_024.txt.gz
CAPE
3335 3494 3730 2929 2933 3104 2861 2536 1840 1032 809 936 1018 637 726 443 525 688 440 81 190 289 268 247 312 457 207 97 103 123 102 61 15 2 8 24 43 86 59 59 55 72 15
3273 3941 3259 3181 3081 2967 2625 1815 1101 732 485 693 601 734 692 658 661 569 441 97 238 307 252 320 365 249 393 559 131 273 152 192 109 275 236 23 351 103 98 180 138 33 17
2616 2737 3107 2970 2749 2319 1939 1285 497 398 331 122 430 487 470 602 906 800 528 329 323 293 313 396 386 365 446 344 255 123 108 204 169 148 71 12 29 70 160 163 148 315 30
2415 2593 3442 2970 2731 2358 2117 889 291 352 357 327 89 480 717 754 592 429 552 516 430 417 539 604 558 477 455 379 337 282 283 225 294 146 112 116 99 136 269 98 87 61 39
2506 2595 3077 3507 2176 1921 2540 1446 1041 776 406 186 129 239 479 392 225 526 522 527 601 745 735 674 709 615 495 212 192 255 478 198 125 104 78 110 128 339 428 148 49 58 197
2747 2838 3058 2772 1877 2360 1952 1427 889 908 714 414 245 270 410 201 0 24 424 496 597 893 881 815 782 613 198 39 16 4 23 87 128 99 43 295 302 231 126 106 66 58 68
3236 3197 3056 2740 2145 1893 1753 1308 1374 601 248 561 413 391 386 390 21 9 23 397 553 1150 1089 1199 889 586 222 398 117 0 0 0 0 83 140 182 144 159 201 224 72 50 30
3262 3208 3047 2732 2194 1992 1935 1444 959 371 537 504 539 591 689 469 255 3 0 365 813 1124 220 167 203 236 876 342 209 186 152 135 172 142 172 135 102 65 31 11 25 24 25
3112 3067 2883 2368 2256 1986 1890 1616 1062 779 617 758 641 689 1112 961 24 0 0 440 575 114 97 94 101 103 51 0 75 88 111 122 18 0 0 0 0 0 0 13 8 23 56
2879 2832 2565 2349 2270 2119 1639 1769 1392 885 685 597 851 1218 672 1043 0 0 12 641 330 153 93 47 0 0 0 0 8 60 83 72 67 17 10 7 3 27 6 20 14 104 136
2714 2630 2529 2409 2161 2039 1642 1497 1072 947 892 889 897 1031 1044 1155 828 0 0 232 193 258 118 27 41 1 0 0 0 7 39 0 0 2 6 3 17 29 54 118 85 55 40
2781 2615 2324 2053 1662 1373 1216 881 945 796 741 887 1182 1372 1304 1265 378 1 1 0 97 182 194 390 232 0 0 0 0 0 0 0 0 10 2 6 16 17 12 2 0 1 6
2687 2378 1874 1391 1482 1227 1040 1008 751 894 921 1138 1443 1159 1084 763 156 1 1 1 1 176 158 0 0 0 0 0 0 0 0 0 16 2 3 6 3 1 0 23 40 78 118
2186 1747 1443 1255 1078 1009 998 1049 1050 940 888 1002 1217 886 537 256 34 19 2 0 0 2 1 1 0 0 0 0 0 0 1 8 0 0 0 0 0 1 2 0 0 0 19
1704 1581 1082 945 670 144 0 0 410 0 60 906 337 410 396 314 260 25 4 170 132 21 30 61 10 3 12 20 29 26 8 0 1 0 0 0 0 0 0 0 0 2 35
1641 1431 1150 1094 942 833 260 0 0 0 0 0 0 130 0 0 0 0 0 0 0 0 0 2 48 60 40 39 26 11 2 0 0 0 0 0 0 0 0 0 0 5 25
1268 1071 694 590 562 448 180 42 0 0 0 0 0 0 0 0 0 0 0 0 0 0 0 1 13 24 24 19 5 0 0 0 0 0 0 0 0 0 0 0 0 7 20
180 0 213 165 57 82 58 53 89 53 3 0 0 0 0 0 0 0 0 0 0 0 0 2 10 16 14 3 0 0 0 0 0 0 0 0 0 0 0 0 0 8 10
170 40 19 33 82 37 169 381 264 139 61 0 0 0 0 0 0 0 0 0 0 0 0 0 0 2 0 0 0 0 0 0 0 0 0 0 0 0 0 0 0 0 0
190 14 26 100 204 350 405 227 145 178 133 42 0 1 0 0 0 0 0 0 0 0 0 0 0 0 1 1 0 0 0 0 0 0 0 0 0 0 0 0 0 0 16
263 192 8 110 95 122 172 195 190 197 199 209 185 33 0 0 2 0 0 0 0 0 0 0 0 2 2 0 0 0 0 0 0 0 0 0 0 0 0 0 0 0 0
279 181 137 220 255 246 290 309 291 237 264 226 168 0 0 0 8 7 5 0 0 0 0 1 3 1 0 0 0 0 0 0 0 0 0 0 0 0 0 0 0 0 0
326 374 327 340 293 66 280 297 309 322 270 203 72 25 0 0 17 22 8 0 2 2 0 0 0 0 0 0 0 0 0 0 0 0 0 0 0 0 0 0 0 0 0
314 334 342 390 396 366 340 373 362 106 211 44 47 20 19 13 24 44 16 10 4 0 0 0 0 0 0 0 0 0 0 0 0 0 0 0 0 0 0 0 0 0 0
93 133 184 255 336 285 349 402 427 371 133 44 25 23 31 25 23 44 32 15 10 4 0 0 0 0 0 0 0 0 0 0 0 0 0 0 0 0 0 0 0 0 0
15 35 76 120 198 291 367 385 413 317 133 28 57 43 40 45 49 41 36 13 10 7 1 0 0 0 0 0 0 0 0 0 0 0 0 0 0 0 0 0 0 0 0

GFSGL_con_sbcape_027.txt.gz
CAPE
4436 4444 4383 4386 4116 4476 4001 4178 4025 3621 2597 1914 1882 1641 1550 966 1128 1369 1190 445 474 675 402 505 758 756 83 46 307 694 514 351 85 135 77 206 954 873 557 430 116 349 68
3954 4477 4398 4515 4327 4137 4291 4215 4231 3532 2788 2086 1927 1592 1302 1147 1080 1180 840 368 352 462 756 941 403 110 945 1298 262 991 216 501 59 683 291 109 590 771 905 1001 361 53 87
3619 3673 4398 4566 4400 4235 4425 4398 4109 3316 2508 1699 1844 1599 1038 1014 1161 1253 1011 956 696 363 365 397 361 435 1057 583 673 610 62 533 593 268 78 20 141 126 159 596 478 203 216
2649 3257 4221 4568 4557 4395 4630 4302 3892 2937 2299 1714 1542 1506 978 1043 693 1006 685 682 543 530 394 815 506 590 1091 1336 1179 1397 1179 442 420 127 209 175 209 334 187 265 111 107 87
3428 3686 4298 4737 4749 4776 4371 4141 3359 2813 1543 1564 1536 627 594 264 431 1125 846 640 789 532 772 586 1161 1034 438 274 378 803 1392 337 110 89 127 109 57 347 205 113 95 102 156
3925 4063 4435 4828 4783 4537 4143 4175 3150 2160 1561 1426 1060 400 471 510 221 138 746 541 1169 1194 1276 1349 1317 482 485 140 93 31 75 337 575 106 118 102 356 157 104 46 40 9 15
4486 4336 4688 4844 4751 4167 3588 3632 3033 2342 1698 1460 1035 737 766 996 7 0 1 612 975 1336 1349 1502 1158 888 188 170 153 143 16 3 5 175 223 276 382 420 377 351 233 91 24
4431 4597 4784 4651 4297 3634 3347 3651 3245 2442 1854 1123 1147 1004 1094 1180 67 0 0 621 1136 1324 1345 1327 1212 616 308 119 108 114 134 223 558 245 315 294 435 235 61 50 93 40 30
4364 4658 4513 4204 4105 3575 2751 3104 3081 2693 1804 1458 1156 1151 1235 1320 281 13 0 447 696 1355 1509 767 589 280 86 2 0 6 48 290 171 49 13 0 0 0 0 0 1 28 33
4202 4318 4174 4036 3614 3029 2778 2787 2912 2387 1926 1219 989 1222 809 1226 701 7 4 1725 1507 915 1431 951 26 154 2 0 23 66 86 297 295 295 132 30 12 14 0 27 61 64 89
3522 3502 3707 3192 3311 3118 2974 2766 2082 1474 1153 1205 929 808 975 1057 1266 0 0 1536 1313 1536 954 642 236 1 0 0 0 87 73 42 92 30 8 7 65 71 54 147 263 92 50
3746 3088 3118 3235 2843 2608 2403 2068 1756 1289 1493 1316 1164 1071 1720 1900 703 0 0 3 184 787 623 255 142 1 0 0 0 0 0 0 0 0 13 43 15 16 18 24 146 124 21
3756 3718 3639 3220 2469 2432 1749 1396 1198 1252 1173 1194 1015 1820 1710 1565 1030 7 1 1 0 31 195 42 0 0 0 0 0 0 0 0 0 27 33 10 4 4 95 25 105 239 214
3406 3080 2403 1974 1907 1697 1190 1223 1258 1128 1172 1205 1201 1313 1365 1505 950 118 0 2 1 0 1 7 0 0 0 0 0 0 0 2 24 4 0 0 0 0 0 0 0 0 0
2422 2194 1814 1759 1682 996 35 289 1119 521 359 1219 956 876 756 697 413 15 0 5 2 17 212 330 109 60 41 46 22 87 22 52 26 10 2 0 0 0 0 0 0 0 9
2098 1829 1333 1166 993 948 456 0 0 0 0 0 0 160 0 0 0 0 0 0 0 0 92 200 126 137 195 328 236 65 124 23 15 9 0 0 0 0 0 0 0 0 18
1880 1537 1397 1225 1224 989 753 413 32 0 0 0 0 0 0 0 0 0 0 0 0 0 0 0 35 138 343 106 33 22 21 20 10 0 0 0 0 0 0 0 0 0 21
1302 676 1092 718 643 509 367 305 116 4 0 0 0 0 0 0 0 0 0 0 0 0 0 0 3 144 46 24 23 18 15 11 3 0 0 0 0 0 0 0 0 0 4
372 385 345 131 60 34 49 84 89 58 57 0 0 0 0 0 0 0 0 0 0 0 0 1 2 3 3 4 5 6 4 0 0 0 0 0 0 0 0 0 0 0 0
257 30 25 96 30 10 118 198 144 119 74 3 0 0 0 0 0 0 0 0 0 0 0 0 0 0 0 1 3 1 0 0 0 0 0 0 0 0 0 0 0 0 0
283 0 0 121 133 223 220 156 94 113 145 101 83 10 0 0 2 14 7 1 0 0 0 0 0 0 0 0 0 0 0 0 0 0 0 0 0 0 0 0 0 0 0
237 68 75 165 134 236 358 428 450 201 285 184 1 0 0 0 21 18 12 7 3 1 0 0 0 1 0 0 0 0 0 0 0 0 0 0 0 0 0 0 0 0 0
251 186 154 304 80 36 170 240 362 410 274 236 7 2 1 0 0 13 10 14 13 8 2 0 0 0 0 0 0 0 0 0 0 0 0 0 0 0 0 0 0 0 0
157 217 276 371 225 350 452 355 404 62 137 196 175 24 13 2 15 22 15 17 18 11 2 0 0 0 0 0 0 0 0 0 0 0 0 0 0 0 0 0 0 0 0
120 91 150 193 253 175 119 158 272 242 142 148 139 49 65 40 13 24 25 24 27 16 10 2 0 0 0 0 0 0 0 0 0 0 0 0 0 0 0 0 0 0 0
61 49 61 88 140 249 145 238 302 251 170 190 37 98 49 52 32 34 41 23 30 27 11 7 1 0 0 0 0 0 0 0 0 0 0 0 0 0 0 0 0 0 0

GFSGL_con_sbcape_030.txt.gz
CAPE
4274 4267 4255 4198 4370 3864 3580 3270 3449 3234 2815 2164 1950 1759 1807 1705 1546 1336 1136 1113 1039 956 568 706 459 760 444 407 663 498 447 235 118 65 150 175 451 526 398 482 360 73 55
4105 4146 4270 4331 4312 4233 3392 3868 3857 3226 2902 2061 1928 1854 1619 1485 1407 1323 837 489 974 1050 957 1025 820 626 1011 1119 733 790 592 528 220 196 216 334 223 590 869 579 482 44 58
3795 3998 4173 4199 4176 4030 3955 3239 3725 3594 3179 2167 1972 1761 1657 1332 1298 1119 1036 854 909 398 932 930 830 892 1056 629 757 776 586 406 334 199 250 265 124 224 190 342 256 302 120
3395 3653 3916 4185 4099 3934 3950 3837 3865 3940 3402 2329 1970 1741 1483 1218 1265 1099 1182 1121 827 736 852 852 922 1028 1069 957 800 406 409 384 223 125 103 98 208 253 168 99 49 69 39
2892 3368 3852 4286 4208 4224 4053 4072 3958 3945 3472 2578 1936 1714 1356 771 1071 997 1128 991 884 792 777 873 908 1073 712 363 647 805 208 156 66 55 3 2 10 12 0 2 35 35 23
2482 3118 3528 4037 4383 4426 4331 4270 3978 3852 3244 2560 1799 1417 1146 649 456 267 906 866 973 891 866 1211 1180 667 86 12 21 24 71 52 49 44 36 6 1 81 91 51 45 0 0
3013 3030 3509 4218 4460 4438 4453 4217 4060 3734 3079 2238 1695 1260 863 803 153 53 475 752 801 856 1086 1240 1303 851 609 301 30 36 40 20 15 46 10 6 55 124 144 99 64 15 3
3624 3616 4005 4427 4587 4573 4458 4228 4014 3607 2682 1916 1519 1097 858 1143 272 0 53 291 527 1123 853 1301 1285 1351 776 509 210 180 202 244 102 22 13 19 69 117 158 39 1 0 0
3680 4583 4502 4623 4723 4577 4313 4064 3565 3326 2239 1766 1324 1169 1199 1335 280 0 0 102 119 462 789 1191 1268 1442 1041 39 196 219 217 94 64 43 39 46 14 0 0 4 0 0 0
4314 4427 4752 4795 4658 4418 4070 3702 3840 3496 2336 1481 1116 1170 1112 1217 209 3 0 151 129 552 1075 998 564 1027 497 9 55 192 121 129 320 289 217 82 19 4 0 9 21 26 37
4454 4697 4762 4694 4650 4426 3709 3235 3114 2899 2649 1794 1265 990 1265 968 1098 47 0 427 1012 1043 839 971 1181 54 1 0 0 110 153 6 0 34 38 0 0 34 55 96 83 53 73
4420 4563 4512 4512 3486 3642 2920 2625 2386 1986 1960 1517 1085 966 1038 1026 897 29 0 3 96 1026 1119 1081 806 193 0 0 0 0 0 0 0 0 0 0 7 32 33 20 79 64 30
4249 4178 3777 3521 3250 2747 2390 2350 1461 1454 1123 1100 1130 932 922 1733 1525 135 0 0 0 36 10 0 0 0 0 0 0 0 0 0 0 0 0 4 2 18 7 0 28 179 213
3879 3801 3579 2937 2340 1943 1599 1580 1199 1001 1179 1355 1357 1663 1896 1685 797 47 0 1 1 0 0 0 0 0 0 0 0 0 0 0 12 62 18 3 7 4 0 0 0 0 0
3542 2582 2113 1762 1338 60 0 0 813 0 399 1319 1451 1653 1530 1274 825 195 32 0 0 0 65 113 0 0 11 1 4 40 14 23 24 27 35 18 0 0 0 0 0 0 0
2291 2119 1613 1016 514 32 1 0 0 0 0 0 0 312 0 0 0 0 0 0 0 0 0 769 580 457 245 81 182 136 97 38 26 36 41 0 0 0 0 0 0 0 0
1845 1779 1569 1472 1282 925 472 28 0 0 0 0 0 0 0 0 0 0 0 0 0 0 157 247 209 241 246 300 301 43 11 9 14 19 14 7 0 0 0 0 0 0 0
2052 1483 1530 1524 1424 1366 921 502 0 0 0 0 0 0 0 0 0 0 0 0 0 0 0 0 76 251 334 406 22 21 15 5 5 2 0 0 0 1 0 0 0 0 0
1799 1593 1149 1020 908 702 657 449 64 31 0 0 0 0 0 0 0 0 0 0 0 3 3 23 14 7 7 5 4 3 0 0 0 0 0 0 3 0 0 0 0 0 0
660 189 495 448 190 294 232 149 168 106 0 0 0 0 0 0 0 0 0 0 0 0 0 0 0 0 0 0 0 0 0 0 0 7 5 0 0 0 0 0 0 0 0
231 56 0 230 128 87 260 316 187 87 48 8 2 0 0 0 0 0 0 2 0 0 7 0 0 0 0 0 0 0 0 0 0 0 0 0 0 0 0 0 0 0 0
148 27 78 100 150 684 426 433 281 82 121 106 44 0 0 0 6 31 33 34 18 19 2 11 0 4 6 0 0 0 0 0 0 0 0 0 0 0 0 0 0 0 0
299 87 168 262 157 26 131 26 180 51 0 8 7 0 0 5 6 61 27 25 7 38 30 5 3 3 0 0 0 0 0 0 0 0 0 0 0 0 0 0 0 0 0
155 185 322 355 43 173 221 30 130 15 33 30 2 4 7 19 9 57 30 37 37 13 26 6 0 0 0 0 0 0 0 0 0 0 0 0 0 0 0 0 0 0 0
237 39 177 245 163 57 58 67 129 222 128 113 14 19 24 14 5 15 44 22 43 47 21 0 0 0 0 0 0 0 0 0 0 0 0 0 0 0 0 0 0 0 0
66 39 37 56 52 101 182 138 263 239 51 166 63 36 38 29 12 37 35 27 20 33 24 5 0 0 0 0 0 0 0 0 0 0 0 0 0 0 0 0 0 0 0

GFSGL_con_sbcape_033.txt.gz
CAPE
2670 2579 2760 2872 2816 2487 2371 2230 1915 1440 1164 1042 1440 1297 991 835 526 392 181 206 361 45 174 10 104 1 0 0 10 0 0 0 0 0 0 11 61 50 65 25 21 0 2
2923 3014 2936 2903 3206 3107 2614 2205 2077 1689 1327 1238 1159 1214 971 837 560 525 315 287 150 276 92 19 0 0 0 0 0 11 14 0 0 0 1 16 19 0 4 13 71 73 0
3020 3200 3292 3185 3080 3366 3047 2594 2273 2195 1702 1225 1126 1043 1046 922 718 519 338 165 347 212 230 102 37 25 79 91 146 39 57 41 33 9 0 4 13 8 0 21 16 35 29
3175 3257 3289 3321 3296 3315 3415 2705 2572 2618 2074 1250 1134 1005 940 918 687 658 456 305 236 224 252 246 132 87 65 106 5 17 34 33 47 31 4 4 0 0 2 0 0 0 0
2911 3232 3194 3343 3414 3442 3352 3161 2394 2739 2514 1500 1105 1115 1004 864 652 591 524 442 395 308 262 321 227 282 303 185 54 12 15 4 0 0 0 0 0 0 0 0 0 0 0
2538 2957 3125 3098 3462 3419 3295 3236 2996 2591 2885 2036 1339 1175 932 954 733 681 564 596 482 421 302 292 244 529 650 522 260 101 15 0 0 0 0 0 0 0 6 1 0 0 0
1502 2434 2830 3075 3361 3409 3358 3252 3281 2902 3127 2370 1627 1214 896 740 459 443 501 527 558 458 409 314 459 316 63 1 0 2 0 16 8 0 0 0 0 0 6 7 5 0 0
1788 2098 2679 2881 3390 3552 3508 3414 3372 3256 2822 2214 1548 1120 687 508 195 31 119 403 371 338 466 441 425 381 101 0 2 0 4 6 5 0 0 0 0 0 1 20 1 0 0
1845 2071 2676 2959 3351 3655 3643 3558 3391 3160 2595 1779 1128 824 626 485 416 168 0 87 190 205 378 572 565 312 141 138 20 5 6 8 35 32 0 0 0 16 25 0 0 0 0
1662 2377 2532 3017 3469 3849 3721 3496 3082 2553 2091 1212 979 772 612 707 499 147 0 22 25 22 37 209 455 328 421 85 13 0 4 2 2 17 7 0 0 0 0 0 0 0 0
2597 3391 3466 3698 3963 3910 3488 3133 2882 2098 1668 1257 987 768 680 789 395 0 0 5 2 5 143 342 362 282 0 0 0 0 2 10 0 0 0 0 0 0 0 4 14 14 15
3671 4119 4067 3932 3817 3212 2751 2474 2436 1987 1566 1196 928 750 672 554 613 0 0 8 124 338 401 257 125 337 1 0 0 1 0 0 0 0 0 0 0 0 0 0 1 17 16
4084 3875 3738 3218 2937 2333 1871 1559 1401 1263 1059 702 677 635 650 714 683 372 2 0 0 155 30 7 0 0 0 1 0 0 0 0 0 0 0 0 0 0 0 0 0 0 0
3378 2896 2251 2129 1852 1572 1107 1154 1027 914 843 778 861 798 652 733 365 1 1 0 1 0 0 0 0 0 0 0 0 0 0 0 0 0 0 0 0 0 0 0 0 0 0
2620 1764 1310 862 137 0 0 392 386 101 490 1014 953 912 750 706 196 0 0 1 1 0 0 0 0 0 0 0 0 0 0 0 0 6 10 0 0 0 0 0 0 0 0
1407 1141 362 79 0 0 0 0 0 0 0 0 26 3 0 88 0 0 0 0 0 0 0 0 0 0 0 0 0 0 2 8 1 2 3 0 0 0 0 0 0 0 0
1224 473 198 57 57 1 0 0 0 0 0 0 0 0 0 0 0 0 0 0 0 0 0 0 1 0 0 0 0 6 4 0 0 0 0 0 0 0 0 0 0 0 0
939 701 883 513 380 60 0 0 0 0 0 0 0 0 0 0 0 0 0 0 0 0 0 0 0 0 0 0 0 0 0 0 0 0 0 0 0 0 0 0 0 0 0
1118 1033 976 736 554 224 31 0 0 0 0 0 0 0 0 0 0 0 0 0 0 0 0 0 0 0 0 0 0 0 0 0 0 0 0 0 0 0 0 0 0 0 0
647 939 521 607 456 368 32 0 0 0 0 0 0 0 0 0 0 0 0 0 0 0 0 0 0 0 0 0 0 0 0 0 0 0 0 0 0 0 0 0 0 0 0
0 0 0 0 0 0 0 0 2 0 0 0 0 0 0 0 0 0 0 0 0 0 0 0 0 0 0 0 0 0 0 0 0 0 0 0 0 0 0 0 0 0 0
0 0 0 0 0 9 26 52 33 5 0 0 0 0 0 0 0 0 0 0 0 0 0 0 0 0 0 0 0 0 0 0 0 0 0 0 0 0 0 0 0 0 0
0 3 50 9 0 12 15 2 0 0 0 0 0 0 0 0 0 0 0 0 0 0 0 0 0 0 0 0 0 0 0 0 0 0 0 0 0 0 0 0 0 0 0
71 27 80 32 7 0 8 9 32 0 0 0 0 0 0 0 0 0 0 0 0 0 0 0 0 0 0 0 0 0 0 0 0 0 0 0 0 0 0 0 0 0 0
64 62 25 16 0 11 17 20 16 2 0 0 0 0 0 0 0 0 0 0 0 0 0 0 0 0 0 0 0 0 0 0 0 0 0 0 0 0 0 0 0 0 0
11 97 98 91 75 46 12 47 32 12 2 12 3 0 0 0 0 0 0 0 0 0 0 0 0 0 0 0 0 0 0 0 0 0 0 0 0 0 0 0 0 0 0

GFSGL_con_sbcape_036.txt.gz
CAPE
1460 1573 1459 1184 1029 1375 1865 1745 1076 833 439 226 770 750 554 201 113 24 2 3 0 0 1 0 0 0 0 0 0 0 0 0 0 0 0 0 2 7 5 26 0 0 0
1637 1693 1754 1597 1512 1241 1405 1814 1674 1104 828 514 517 993 765 447 156 124 11 55 90 3 0 2 0 0 0 0 0 0 0 0 0 0 0 0 0 0 0 0 0 44 0
1834 1873 2027 2106 2065 1872 1684 1560 1970 1714 947 738 682 921 846 673 322 184 77 40 6 73 25 1 0 0 0 0 0 0 0 0 0 0 0 0 0 0 0 0 0 0 0
2129 2075 2076 2236 2438 2404 2243 1927 1818 1966 1367 988 832 941 852 677 524 288 182 64 55 39 28 16 3 0 0 0 7 0 2 5 0 0 0 0 0 0 0 0 0 0 0
2466 2397 2329 2374 2530 2647 2738 2602 2224 1942 1921 1284 956 732 696 654 592 409 307 185 90 53 47 116 140 18 0 4 7 0 0 2 0 0 0 0 0 0 0 0 1 2 2
2467 2662 2675 2749 2766 2698 2824 2979 2524 2268 2155 1392 1034 779 582 772 709 430 488 380 225 144 109 82 205 213 121 69 49 15 12 8 0 0 0 0 0 0 0 0 0 0 0
2368 2642 2781 2905 2959 2933 2867 3017 2885 2391 2455 1524 996 874 813 850 577 320 337 459 336 312 168 65 162 222 226 207 206 4 1 0 0 0 0 0 0 0 0 0 0 0 0
2428 2551 2869 2948 2945 3016 3061 2998 2951 2578 2368 1909 1173 980 895 899 439 98 172 565 325 306 251 170 185 324 87 34 8 3 1 0 0 0 0 0 0 0 0 0 0 0 0
1731 2326 2563 2839 2839 3097 3091 3036 2945 2952 2514 2350 1467 1208 1102 990 170 19 68 512 203 201 178 219 273 161 76 0 0 0 0 0 6 9 0 1 0 3 12 0 1 0 0
1448 1459 2318 2733 2858 3040 3154 3107 3044 3021 2651 2111 1568 1375 1130 1054 105 0 0 3 122 248 21 212 345 320 67 0 21 21 43 19 1 0 2 0 0 0 0 0 0 0 0
1227 1446 1599 2451 2664 3022 3171 3199 3072 2862 2106 1834 1422 1010 489 460 153 0 0 2 26 22 65 42 59 8 24 0 60 18 13 0 0 0 0 0 0 0 0 0 0 0 0
1096 1369 1772 2345 2654 2982 3272 3202 2798 2517 1804 1372 502 281 238 213 113 0 0 6 0 5 18 62 100 14 0 0 1 0 0 0 0 0 0 0 0 0 0 0 0 0 8
1524 1993 2135 2512 2923 3383 3294 2906 2508 1902 1218 661 563 340 345 317 7 0 0 0 0 86 126 32 0 0 1 1 1 1 0 0 0 0 0 0 0 0 0 0 0 0 0
2240 3243 3374 3313 3176 3006 2812 2348 1814 1233 682 394 406 512 337 224 112 1 1 1 1 0 0 0 0 0 1 0 0 0 0 0 0 0 0 0 0 0 0 0 0 0 0
3155 2963 2635 1879 1868 574 291 499 873 456 330 164 603 352 253 381 161 0 0 1 0 0 0 0 0 0 0 0 0 0 0 0 0 0 0 0 0 0 0 0 0 0 0
1984 1064 437 86 2 2 4 3 3 0 3 73 321 24 1 237 0 0 2 1 1 0 0 0 0 0 0 0 0 0 0 0 0 0 0 0 0 0 0 0 0 0 0
611 268 41 11 1 1 1 0 0 0 0 0 0 0 0 1 1 0 0 2 0 0 0 0 0 0 0 0 0 0 0 0 0 0 0 0 0 0 0 0 0 0 0
87 53 15 15 0 0 0 0 0 0 0 0 0 0 1 0 0 0 0 0 0 0 0 0 0 0 0 0 0 0 0 0 0 0 0 0 0 0 0 0 0 0 0
211 141 120 76 14 0 0 0 0 0 0 0 0 0 0 0 0 0 0 0 0 0 0 0 0 0 0 0 0 0 0 0 0 0 0 0 0 0 0 0 0 0 0
159 223 198 38 0 0 0 0 0 0 0 0 0 0 0 0 0 0 0 0 0 0 0 0 0 0 0 0 0 0 0 0 0 0 0 0 0 0 0 0 0 0 0
0 188 255 138 68 0 0 0 0 0 0 0 0 0 0 0 0 0 0 0 0 0 0 0 0 0 0 0 0 0 0 0 0 0 0 0 0 0 0 0 0 0 0
0 0 0 11 0 0 0 0 0 0 0 0 0 0 0 0 0 0 0 0 0 0 0 0 0 0 0 0 0 0 0 0 0 0 0 0 0 0 0 0 0 0 0
0 0 0 0 0 0 0 0 0 0 0 0 0 0 0 0 0 0 0 0 0 0 0 0 0 0 0 0 0 0 0 0 0 0 0 0 0 0 0 0 0 0 0
0 0 0 1 0 6 0 2 0 0 0 0 0 0 0 0 0 0 0 0 0 0 0 0 0 0 0 0 0 0 0 0 0 0 0 0 0 0 0 0 0 0 0
0 13 0 0 0 1 0 0 0 1 0 0 0 0 0 0 0 0 0 0 0 0 0 0 0 0 0 0 0 0 0 0 0 0 0 0 0 0 0 0 0 0 0
33 47 48 54 16 0 0 0 0 0 0 0 0 0 0 0 0 0 0 0 0 0 0 0 0 0 0 0 0 0 0 0 0 0 0 0 0 0 0 0 0 0 0

GFSGL_con_sbcape_039.txt.gz
CAPE
786 871 925 968 1031 1061 1028 744 457 176 67 226 422 454 306 47 0 0 0 0 0 0 0 0 0 0 0 0 0 0 0 0 0 0 0 0 0 0 0 0 2 0 0
879 885 830 784 758 1091 1342 1365 857 443 111 86 316 386 346 137 36 7 0 0 0 0 0 0 0 0 0 0 0 0 0 0 0 0 0 0 0 0 0 0 0 0 7
816 1040 1034 945 826 793 999 1278 1372 1101 666 294 206 501 440 283 73 55 21 2 0 0 0 0 0 0 0 0 0 0 0 0 0 0 0 0 0 0 0 0 0 0 0
856 1062 1165 1198 1067 891 775 861 1322 1468 938 758 357 417 617 484 300 176 92 33 9 0 0 0 0 0 0 0 0 0 0 3 0 0 0 0 0 0 0 0 0 0 0
1043 1174 1197 1329 1347 1272 1125 881 936 1256 1424 988 746 531 641 625 554 371 245 142 53 31 0 0 0 0 0 1 0 0 3 0 0 0 0 0 0 0 0 0 0 0 0
1314 1434 1456 1422 1625 1694 1624 1516 1314 1166 1302 1125 816 768 711 700 597 404 403 314 164 76 17 0 26 89 31 0 0 0 0 0 0 0 0 0 0 0 0 0 0 0 0
1608 1676 1740 1691 1748 1922 1995 1986 1931 1672 1466 1324 1160 828 720 735 470 201 211 453 320 88 16 0 4 66 46 1 0 0 0 0 0 0 0 0 0 0 0 0 0 0 0
1773 1881 2028 2012 1988 2000 2115 2180 2298 2172 1858 1645 1304 1022 836 657 357 97 134 472 219 143 126 11 0 0 2 42 28 0 0 0 0 0 0 0 0 0 0 0 0 0 0
1721 1939 2263 2284 2303 2306 2354 2319 2389 2533 2230 2103 1396 987 874 809 338 44 27 427 310 269 112 22 12 0 13 0 0 0 0 0 0 0 2 0 0 0 0 0 0 0 0
1797 1978 2166 2390 2426 2522 2523 2490 2445 2575 2429 2170 1658 1041 970 1020 257 0 85 417 392 216 37 0 10 42 0 0 0 0 3 0 0 0 0 0 0 0 0 0 0 0 0
1292 1905 2151 2324 2513 2563 2589 2623 2654 2709 2618 2252 1842 1359 1164 1245 1 0 59 163 343 183 125 0 0 14 36 0 0 1 21 0 0 0 0 0 0 0 0 0 0 0 0
1147 1244 1521 2058 2419 2577 2609 2723 2755 2789 2684 2312 1886 1428 972 492 0 0 0 121 64 35 2 0 1 0 12 0 1 1 0 0 0 0 0 0 0 0 0 0 0 0 0
746 973 1109 1380 2189 2475 2639 2822 2942 2928 2630 2111 1491 860 636 376 45 1 0 0 8 7 0 7 0 0 2 1 1 1 1 0 0 0 0 0 0 0 0 0 0 0 0
614 726 973 1143 1640 2220 2611 2848 2978 2891 2342 1606 1101 699 433 176 0 0 0 0 1 0 1 1 0 1 0 0 0 1 1 0 0 0 0 0 0 0 0 0 0 0 0
1329 1026 1394 1565 1697 13 0 1 777 881 1507 976 651 449 296 165 115 0 1 0 1 0 0 0 0 0 0 0 1 0 1 0 0 0 0 0 0 0 0 0 0 0 0
2782 2107 1340 26 1 0 0 0 1 1 26 40 16 6 0 5 0 2 1 1 0 0 0 0 0 0 0 0 0 0 0 0 0 0 0 0 0 0 0 0 0 0 0
218 13 1 1 1 33 129 1 1 1 0 72 0 4 37 0 2 2 2 2 0 0 0 0 0 0 0 0 0 0 0 0 0 0 0 0 0 0 0 0 0 0 0
20 7 1 1 1 1 0 2 1 2 0 0 1 1 2 1 2 2 1 1 0 0 0 0 0 0 0 0 0 0 0 0 0 0 0 0 0 0 0 0 0 0 0
146 30 1 0 0 0 0 0 0 0 0 0 1 4 0 1 1 0 0 0 0 0 0 0 0 0 0 0 0 0 0 0 0 0 0 0 0 0 0 0 0 0 0
0 0 0 1 1 0 0 0 0 0 0 1 0 0 0 0 0 0 0 0 0 0 0 0 0 0 0 0 0 0 0 0 0 0 0 0 0 0 0 0 0 0 0
6 1 0 1 0 0 0 0 0 0 0 0 0 0 0 0 0 0 0 0 0 0 0 0 0 0 0 0 0 0 0 0 0 0 0 0 0 0 0 0 0 0 0
0 0 0 0 0 0 0 0 0 0 0 0 0 0 0 0 0 0 0 0 0 0 0 0 0 0 0 0 0 0 0 0 0 0 0 0 0 0 0 0 0 0 0
0 0 0 0 0 0 0 0 0 0 0 0 0 0 0 0 0 0 0 0 0 0 0 0 0 0 0 0 0 0 0 0 0 0 0 0 0 0 0 0 0 0 0
0 0 0 0 0 0 0 0 0 0 0 0 0 0 0 0 0 0 0 0 0 0 0 0 0 0 0 0 0 0 0 0 0 0 0 0 0 0 0 0 0 0 0
0 0 0 0 0 0 0 0 0 0 0 0 0 0 0 0 0 0 0 0 0 0 0 0 0 0 0 0 0 0 0 0 0 0 0 0 0 0 0 0 0 0 0
12 18 6 0 0 0 0 1 0 0 0 0 0 0 0 0 0 0 0 0 0 0 0 0 0 0 0 0 0 0 0 0 0 0 0 0 0 0 0 0 0 0 0

GFSGL_con_sbcape_042.txt.gz
CAPE
539 657 714 681 630 546 477 288 207 200 249 401 603 718 598 206 32 0 0 0 0 0 0 0 0 0 0 0 0 0 0 0 0 0 0 0 0 0 0 0 0 8 0
338 717 801 799 712 605 554 490 377 282 147 234 503 646 670 324 111 48 6 0 0 0 0 0 0 0 0 0 0 0 0 0 0 0 0 0 0 0 0 0 0 0 9
380 580 769 847 850 795 762 844 648 521 277 173 376 571 605 510 254 133 102 55 32 19 0 0 0 0 0 0 0 0 0 0 0 0 4 0 0 0 0 0 0 0 0
418 605 678 798 834 925 1008 1071 1121 872 580 304 289 517 578 564 443 321 207 156 103 71 18 0 0 0 0 0 0 0 0 0 0 6 0 4 0 0 0 0 0 0 0
523 641 815 788 770 801 857 987 1129 1293 1086 674 481 400 495 561 510 435 376 261 169 144 74 18 0 0 0 0 0 0 0 1 1 5 2 0 0 0 0 0 0 0 0
684 710 888 976 986 906 866 838 905 1242 1424 1174 1036 716 546 639 534 291 376 407 271 264 151 44 46 0 0 0 0 0 0 0 11 19 7 28 3 0 0 0 0 1 7
815 854 929 1081 1193 1169 1089 979 861 881 1167 1411 1250 1108 855 821 477 203 219 594 503 408 302 69 36 61 18 58 0 0 0 0 0 3 5 0 0 3 1 0 0 0 0
957 993 1093 1219 1263 1380 1368 1330 1254 1086 941 1057 1276 1255 1212 1119 438 125 169 708 553 452 246 76 97 44 58 109 149 35 5 1 0 0 0 0 0 0 1 0 0 2 0
1207 1269 1328 1478 1453 1452 1616 1684 1626 1568 1456 1294 1298 1309 1138 1134 278 78 70 643 471 385 242 209 101 84 15 1 47 135 40 2 0 0 0 0 0 0 1 6 2 5 0
1381 1549 1584 1644 1673 1615 1706 1867 1917 1950 1962 1858 1683 1473 1267 1295 161 9 71 565 551 469 338 174 76 204 1 0 92 73 52 0 2 3 4 1 0 0 0 2 1 0 0
1136 1577 1772 1931 1949 1926 1882 1911 2056 2086 2248 2258 2121 1947 1387 1194 685 0 6 606 648 503 228 91 49 2 0 0 6 41 15 1 1 8 3 2 0 0 0 0 0 0 0
1028 1549 1767 1988 2204 2201 2219 2239 2296 2317 2406 2489 2322 2000 1326 1162 767 1 0 394 368 227 76 7 16 0 0 2 1 0 1 0 0 1 0 0 0 0 0 0 0 0 0
759 1070 1624 1978 2170 2383 2548 2644 2585 2579 2531 2556 2413 2099 1657 1320 0 1 1 1 3 0 0 0 0 0 2 1 1 1 0 0 0 0 0 0 0 0 0 0 0 0 0
358 608 768 1044 1615 2118 2585 2748 2797 2776 2741 2641 2388 1942 1238 619 105 0 0 0 1 0 1 1 0 0 1 0 1 0 1 1 0 0 0 0 0 0 0 0 0 0 0
460 441 856 763 7 1 1 17 168 1 1637 1096 961 650 431 170 4 0 0 0 1 0 0 0 0 0 0 3 2 1 1 1 0 0 0 0 0 0 0 0 0 0 0
1542 1164 267 4 1 31 0 0 1 1 0 1 0 0 0 0 2 0 23 1 1 0 0 0 0 0 0 0 1 0 2 1 0 0 0 0 0 0 0 0 0 0 0
151 12 5 20 83 97 46 0 0 0 1 0 0 0 0 0 0 0 2 2 1 0 0 0 0 0 0 0 0 0 0 0 0 0 0 0 0 0 0 0 0 0 0
1 4 38 69 22 1 0 1 3 1 0 1 1 1 0 0 2 2 2 1 2 2 0 0 0 0 0 0 0 0 0 0 0 0 0 0 0 0 0 0 0 0 0
58 20 5 25 15 0 0 0 0 1 0 0 1 0 0 1 1 1 1 2 2 0 0 0 0 0 0 0 0 0 0 0 0 0 0 0 0 0 0 0 0 0 0
93 3 1 2 3 3 4 1 1 1 0 3 1 1 1 1 3 2 1 0 0 0 0 0 0 0 0 0 0 0 0 0 0 0 0 0 0 0 0 0 0 0 0
2 1 1 2 3 3 1 2 1 3 1 2 1 1 3 0 2 0 0 0 0 0 0 0 0 0 0 0 0 0 0 0 0 0 0 0 0 0 0 0 0 0 0
0 0 1 1 3 2 2 2 1 1 1 1 1 0 0 0 0 0 0 0 0 0 0 0 0 0 0 0 0 0 0 0 0 0 0 0 0 0 0 0 0 0 0
0 0 1 0 0 0 0 0 0 0 0 1 0 0 0 0 0 0 0 0 0 0 0 0 0 0 0 0 0 0 0 0 0 0 0 0 0 0 0 0 0 0 0
0 0 0 0 0 0 0 0 0 0 0 0 0 0 0 0 0 0 0 0 0 0 0 0 0 0 0 0 0 0 0 0 0 0 0 0 0 0 0 0 0 0 0
0 0 1 6 2 0 0 0 0 0 0 0 0 0 0 0 0 0 0 0 0 0 0 0 0 0 0 0 0 0 0 0 0 0 0 0 0 0 0 0 0 0 0
7 0 0 4 2 0 0 0 0 0 0 0 0 0 0 0 0 0 0 0 0 0 0 0 0 0 0 0 0 0 0 0 0 0 0 0 0 0 0 0 0 0 0

GFSGL_con_sbcape_045.txt.gz
CAPE
1522 1637 1728 1726 1828 1990 2011 2138 2147 2308 2424 2408 2248 2382 2394 2223 2095 1810 1535 1077 648 537 240 252 242 198 29 72 51 5 0 0 0 0 0 8 113 269 121 242 233 269 79
1457 1671 1768 1922 1974 1992 2050 2108 2162 2220 2330 2430 2453 2244 2258 2220 2146 1859 1604 1158 905 716 515 315 231 125 254 229 97 210 25 25 6 175 28 22 145 288 326 347 70 0 0
1437 1616 1871 1957 1949 1993 2055 2191 2242 2189 2242 2202 2264 2409 2161 2178 2081 1904 1766 1465 1038 879 678 571 400 279 273 229 179 123 137 183 139 10 0 47 51 40 98 142 82 4 9
1335 1528 1719 1868 1962 1963 2074 2197 2249 2238 2223 2282 2267 2369 2446 2332 2066 1817 1696 1627 1319 1018 840 755 617 438 383 486 352 325 281 253 222 175 98 38 85 86 53 36 37 42 41
1551 1585 1766 2081 2183 2215 2249 2245 2303 2371 2220 2282 2203 2234 2352 2343 1825 2107 1867 1732 1558 1302 1084 883 777 560 188 247 263 431 569 356 209 213 159 12 23 3 89 139 120 67 35
1639 1694 1831 2128 2245 2268 2325 2369 2419 2438 2428 2440 2277 2206 2238 1849 1259 1016 1649 1885 1587 1801 1831 1289 976 214 72 0 5 123 512 762 819 229 84 77 231 178 171 171 73 101 51
1737 1803 1994 2188 2230 2314 2357 2446 2507 2566 2662 2591 2490 2302 2247 2247 707 331 468 2152 2103 2178 2157 1911 1250 605 196 151 1 0 0 27 244 870 579 622 531 418 249 0 83 56 154
1883 2030 2169 2289 2287 2327 2364 2370 2399 2454 2594 2752 2684 2624 2402 2249 632 102 199 1635 2383 2462 2249 1994 1625 975 617 515 402 385 167 240 124 162 668 849 743 134 101 159 195 150 212
1935 2160 2296 2252 2377 2483 2484 2416 2375 2341 2357 2452 2740 2848 2783 2646 557 32 68 1444 2166 2490 2065 1856 1515 1256 720 4 663 966 746 732 152 10 34 33 0 0 1 9 79 9 46
2068 2176 2309 2380 2435 2508 2591 2579 2593 2503 2390 1999 2424 2760 2427 2875 840 0 45 1565 2016 2076 1762 1715 344 626 274 0 235 868 1085 943 492 95 8 1 0 2 0 55 167 177 147
2093 2383 2611 2651 2682 2533 2701 2767 2858 2594 2600 2822 2761 2690 2782 2461 2392 0 0 1648 1926 1640 1206 903 452 9 12 0 35 889 799 853 287 404 212 64 64 98 20 22 53 1 1
2384 2276 2864 2958 2483 2448 2862 2439 2845 2625 2039 2681 3463 2937 2533 2444 1260 0 0 141 1295 1240 799 472 433 1 0 1 0 243 162 176 424 319 113 124 25 7 4 0 0 0 0
2105 2619 2771 2931 2911 3174 3146 2991 2707 2774 2353 2656 3044 3012 2582 1672 1522 52 1 0 38 648 530 269 40 2 1 1 0 2 0 291 164 229 271 70 9 0 0 0 0 0 0
2658 2872 2978 2904 3046 3124 2987 2999 2967 3135 3329 3172 3221 2871 2594 1857 962 0 1 0 1 3 0 1 0 0 0 0 0 1 41 357 308 136 13 5 0 0 0 0 0 0 0
2116 2257 2409 2561 2528 1591 614 1695 3604 3817 3093 3554 3324 2329 622 1 1 0 1 5 26 0 6 0 0 3 2 2 2 2 3 1 5 2 6 0 0 0 0 0 0 0 0
2152 1759 718 393 423 18 3 1 1 25 672 378 0 0 1 0 1 2 2 1 1 0 1 1 1 3 2 4 4 4 2 2 2 8 0 0 0 0 0 0 0 0 0
921 310 53 418 65 10 37 9 1 0 0 0 0 0 0 0 0 0 0 2 2 0 0 1 14 2 4 10 5 3 4 4 21 4 0 0 0 0 0 0 0 0 0
490 122 477 618 513 379 396 167 43 4 2 3 1 1 1 1 0 1 1 1 0 0 63 2 1 6 7 3 0 1 1 5 1 0 0 0 0 0 0 0 0 0 0
636 483 450 360 194 29 4 4 0 1 35 6 4 0 1 1 1 1 0 4 3 2 5 5 4 7 2 0 0 0 0 0 0 1 1 0 0 0 0 0 0 0 0
4 1 33 32 103 326 232 194 34 6 4 5 6 1 2 2 3 7 1 12 4 3 5 23 4 0 0 0 0 0 0 0 0 0 0 0 0 0 0 0 0 0 0
20 10 1 21 69 153 50 3 2 5 7 6 6 2 0 1 4 10 7 6 1 4 4 0 0 0 0 0 0 0 0 0 0 0 0 0 0 0 0 0 0 0 0
25 19 25 16 4 1 3 4 3 4 3 4 3 1 1 8 9 11 7 5 0 0 0 0 0 0 0 0 0 0 0 0 0 0 0 0 0 0 0 0 0 0 0
397 232 110 42 6 0 6 7 7 10 3 3 4 1 0 1 0 0 0 0 0 0 0 0 0 0 0 0 0 0 0 0 0 0 0 0 0 0 0 0 0 0 0
469 496 496 238 85 29 13 1 3 0 4 2 0 0 0 0 0 0 0 0 0 0 0 0 0 0 0 0 0 0 0 0 0 0 0 0 0 0 0 0 0 0 0
93 172 245 167 99 60 40 1 2 10 6 3 1 0 0 0 0 0 0 0 0 0 0 0 0 0 0 0 0 0 0 0 0 0 0 0 0 0 0 0 0 0 0
10 50 91 55 117 75 23 2 1 0 0 2 0 0 0 0 0 0 0 0 0 0 0 0 0 0 0 0 0 0 0 0 0 0 0 0 0 0 0 0 0 0 0

GFSGL_con_sbcape_048.txt.gz
CAPE
2933 3084 3264 3139 2788 3189 2976 3599 3705 3763 3824 3255 2983 2433 2222 2688 3187 3314 3216 2556 2424 1986 1276 1033 1104 595 33 34 35 20 13 4 0 0 0 132 264 355 40 88 138 149 85
2674 3259 3331 3424 3332 3080 3317 3440 3649 3719 4009 4022 3452 3142 2733 2586 3320 3272 3074 2476 2491 2153 1631 1260 1130 516 674 625 116 659 289 353 15 243 100 37 430 347 480 590 194 4 2
2476 2201 2954 3307 3330 3503 3635 3565 3591 3723 3917 3577 3867 3981 3532 3127 3233 3200 3035 2841 2568 2353 1877 1722 1255 924 747 408 379 307 143 136 249 77 69 151 108 305 498 526 426 179 0
1819 2110 2888 3343 3405 3398 3554 3573 3562 3758 3901 4008 4007 4187 3940 3597 3317 3056 2845 2920 2941 2458 2172 1785 1571 1199 909 820 622 936 759 389 587 215 37 15 156 299 302 212 404 412 157
2512 2616 2843 3304 3560 3626 3687 3705 3769 3854 3836 3920 4000 4063 3934 3570 2623 3369 3465 3369 3530 2922 2468 2074 1742 1445 751 923 652 1266 1275 665 70 190 148 46 77 75 300 111 199 245 797
2795 2777 3091 3403 3742 3674 3727 3827 3898 3868 3961 4017 3946 3928 3778 2983 1773 1131 2574 3397 3493 3516 3422 3002 2376 1165 786 301 311 456 784 1151 922 166 179 307 655 208 315 196 217 235 253
2791 3058 3322 3535 3696 3784 3602 3754 3947 3967 3776 3996 3922 3915 3880 3837 1751 586 979 3262 3472 3745 3805 3600 2402 1842 1344 1303 123 45 225 287 387 1552 1062 1303 720 888 797 654 862 513 352
2918 3079 3460 3640 3655 3760 3894 3909 4044 3914 3844 4063 4026 3988 3966 3847 2227 307 365 2628 3331 3819 3855 3815 3720 3353 2646 1882 1320 516 372 402 463 434 854 1080 1257 1225 1205 1034 611 744 619
2957 3155 3357 3539 3748 3876 3963 3975 4053 3596 3619 3381 3484 4004 4265 3733 1725 191 117 2310 2748 3562 3965 3869 3777 3728 2489 605 1809 1235 414 444 277 91 92 165 94 77 246 433 338 555 199
3140 3221 3439 3719 3894 3956 3941 3920 3714 3635 2997 2815 2895 3602 3221 3645 2982 231 0 1792 2249 2285 3149 3353 2069 2773 2031 184 1304 1229 1113 968 967 496 212 10 2 1 0 214 765 464 183
2412 2435 3345 3926 4160 4076 4208 4001 3790 3507 3418 3601 3367 3664 3515 3425 3527 1345 0 1003 1518 1790 2330 2556 2919 569 59 0 153 766 713 1123 813 872 370 421 254 173 41 40 282 163 58
3384 2756 3681 3983 3114 2788 4039 3576 3707 3785 3819 3744 3679 2699 2541 2461 2008 1330 0 136 1238 2261 2421 2163 2227 464 1 1 0 131 297 412 632 604 685 388 279 162 202 146 171 2 0
3122 3793 3979 3786 3250 3609 3915 3655 3242 3551 3103 3119 2991 2919 2640 2389 1557 34 0 0 45 929 2047 1236 54 1 1 0 1 0 9 486 435 626 550 429 262 179 244 27 2 0 0
3230 3215 3445 3601 3856 3448 3148 3238 3185 3092 3205 2949 2809 2558 1757 990 2819 2772 703 0 1 1 0 1 0 1 0 0 0 1 92 441 392 547 433 346 312 9 0 0 0 0 0
2957 3103 3298 3352 3397 3577 2514 2169 3387 3741 2786 3301 3324 3228 2856 3374 3339 749 239 1 1 1 4 3 6 13 8 4 0 1 22 91 339 513 312 206 10 0 0 0 0 1 0
3308 3261 3199 3245 3467 3478 2547 895 1 0 3 13 1755 2992 1714 632 1 1 1 1 1 1 3 5 8 67 9 10 0 9 56 31 238 178 137 21 0 0 1 0 0 0 6
2836 2567 2332 2168 1978 2101 2450 2708 1556 1 1 2 2 0 0 0 2 0 2 2 1 1 6 53 55 22 95 73 7 5 3 14 305 146 118 5 0 0 0 5 4 4 3
1464 1055 1985 1529 1944 2232 2276 2064 1270 887 361 1 0 0 1 0 0 1 1 1 2 0 22 90 259 127 25 18 8 11 9 114 220 161 50 7 0 1 5 12 10 2 0
1315 1340 1270 1231 1332 941 1246 1074 600 196 79 4 0 0 0 1 1 1 1 43 21 38 112 36 5 5 25 27 143 168 193 159 110 46 9 2 4 10 17 12 2 0 0
427 229 816 613 183 69 96 161 144 149 99 1 3 7 3 3 3 2 6 22 17 17 103 98 88 41 7 63 219 224 84 7 10 2 2 7 10 7 7 3 0 0 0
554 258 251 687 473 307 268 160 256 559 370 3 6 2 0 11 7 7 24 17 4 10 20 4 2 33 74 15 7 0 2 1 2 4 14 11 4 1 0 0 0 0 0
532 522 552 541 494 311 201 144 55 4 4 5 8 2 0 9 24 25 12 4 1 3 91 101 118 89 11 3 1 1 3 4 6 5 2 0 0 0 0 0 0 0 0
577 480 439 341 218 37 128 22 5 9 6 5 7 5 2 6 1 0 13 68 55 57 26 6 4 2 1 0 0 0 0 0 1 0 0 0 0 0 0 0 0 0 0
535 463 467 506 421 321 65 63 11 0 5 1 1 0 42 132 52 24 16 3 0 0 0 0 0 0 0 0 0 0 0 0 0 0 0 0 0 0 0 0 0 0 0
381 476 238 88 65 73 63 55 71 5 1 3 10 13 21 23 21 15 4 0 0 0 0 0 0 0 0 0 0 0 0 0 0 0 0 0 0 0 0 0 0 0 0
93 85 203 110 96 77 73 19 12 15 19 3 25 52 29 38 36 18 3 0 0 0 0 0 0 0 0 0 0 0 0 0 0 0 0 0 0 0 0 0 0 0 0

GFSGL_con_sbcape_051.txt.gz
CAPE
4050 4050 4165 4109 4078 4204 3753 3888 3854 4379 4385 3915 4176 3516 3498 3708 4139 4523 4215 3820 4029 3665 2945 3030 2551 2649 69 78 99 96 75 86 60 48 44 923 1215 574 233 209 73 511 23
3726 3955 4029 4100 4107 4033 4129 3821 4196 4146 4498 4581 4078 4321 3726 3615 4104 4431 4036 2922 3857 3707 3164 2890 2442 1362 2206 1790 319 1638 515 933 211 1685 807 537 1126 1499 1621 1381 473 7 203
3355 3387 3882 4029 4089 4044 4069 4204 4125 4359 4371 4241 4456 4367 4174 3847 3835 4506 4479 4205 3815 3886 3635 3183 2457 2405 2501 646 880 680 388 807 712 359 474 306 820 657 1051 1481 1444 1056 258
2588 3063 3583 4007 4065 4048 4033 4196 4237 4368 4406 4394 4407 4475 4487 4278 3901 3992 4434 4491 4274 3686 3823 3427 2854 2536 2445 2299 2009 1507 1774 860 725 406 401 386 690 1361 742 359 656 634 384
2986 3187 3520 3945 4234 4252 4185 4139 4331 4367 4393 4491 4531 4513 4595 4460 3611 3923 3755 4300 4548 4198 3947 3780 3269 2568 1694 1931 1366 1513 1266 1282 596 658 628 510 388 474 762 588 447 294 1188
3212 3258 3848 4050 4269 4370 4335 4342 4386 4393 4386 4522 4515 4561 4566 4097 2740 1873 2954 3697 4404 4421 4141 4255 3685 1943 1395 771 682 491 1061 1572 1167 557 606 739 1140 1439 679 286 338 459 146
3016 3862 3902 4175 4282 4446 4472 4471 4477 4482 4445 4439 4553 4614 4622 4610 2965 998 1299 3623 4014 4434 4314 4390 4004 2749 1887 2207 327 251 58 437 647 1114 905 1098 2168 1717 1421 2011 1346 953 428
3724 3373 4044 4137 4269 4461 4595 4558 4596 4539 4555 4574 4560 4647 4633 4616 3571 1304 396 2925 3499 3891 3993 3772 4089 3486 2946 2243 2354 1236 828 649 485 386 461 1001 1626 2011 2301 1866 1811 1648 969
3592 3668 3760 4157 4336 4495 4541 4598 4609 4604 4637 4621 4637 4731 4737 4681 2889 1990 371 2698 2922 3399 3648 3728 3330 3511 2844 981 2594 2425 1399 777 254 204 170 39 152 453 1216 1842 1071 463 424
3634 3763 3944 4321 4434 4431 4526 4692 4656 4718 4594 3958 4342 4580 4385 4765 3365 1014 448 2908 2996 2914 3184 3414 2383 2831 2837 671 2036 2721 2247 819 330 86 36 22 46 87 135 966 1140 404 280
3144 3746 4275 4328 4521 4588 4733 4744 4739 4646 4114 4465 4428 4614 4684 4446 3938 1851 731 2506 2698 2878 2887 2799 2960 1211 1719 560 513 2051 1343 408 152 85 194 132 93 179 150 123 568 802 244
4112 4000 4332 4502 4148 3903 4810 4845 4791 4716 4646 4644 4674 4428 4303 4604 3028 1332 1 299 1420 3034 3197 2782 2585 1554 476 45 0 369 337 192 234 473 249 215 248 331 272 239 300 566 290
4586 4546 4570 4709 4657 4409 4751 4930 4433 4673 3779 3968 3483 3682 3219 3450 3933 2513 1387 647 16 2581 2559 2338 1270 1128 2 0 0 5 4 270 749 400 214 102 233 299 403 378 509 448 15
4792 4751 4735 4842 4841 4704 4019 4027 3813 3556 3643 3357 3293 3220 3188 3086 3014 2997 479 88 45 915 232 733 172 0 0 74 0 0 320 206 277 610 484 599 322 267 183 239 31 0 0
4186 3903 4563 4070 4316 4415 3279 1830 3373 3213 1779 3460 3290 3273 3211 3131 2622 1899 2200 1894 2383 1194 297 3 2 2 1 1 1 3 146 218 204 487 482 416 156 244 164 31 0 0 0
3771 3574 3144 2922 3796 3562 2843 745 0 0 0 3 99 1867 721 337 876 1610 1231 674 681 4 1 0 1 1 1 1 2 2 158 93 274 358 137 98 186 140 88 3 1 3 1
3779 4033 3129 2825 3623 3562 3762 3291 2595 0 1 1 1 3 13 15 2 2 2 2 2 0 3 4 4 6 4 6 6 13 46 103 309 172 65 47 255 62 0 3 0 0 0
3133 2238 3365 3259 3229 3158 2979 3047 2752 2752 2048 185 0 0 2 2 2 2 0 0 1 0 0 0 0 0 20 3 6 30 74 190 243 55 148 100 7 1 9 18 4 1 0
2423 2454 2508 2626 2708 2541 2633 2322 2021 1639 1149 300 0 0 0 1 1 1 0 4 3 0 120 2 1 2 8 1 2 1 3 52 104 107 98 19 10 17 28 7 1 0 0
928 794 1078 1344 1580 1623 1579 1233 1090 858 573 445 180 125 0 2 4 6 4 21 14 16 37 32 10 9 3 2 3 42 53 110 170 154 118 86 30 15 17 4 0 0 0
946 958 702 1193 1213 1116 1002 925 773 749 536 350 270 0 0 5 11 6 15 23 20 29 57 48 89 55 1 1 20 54 91 140 175 113 48 19 18 8 5 1 0 0 0
725 874 994 928 832 799 736 492 320 101 46 10 1 0 0 0 8 7 10 11 25 44 58 54 21 3 0 4 85 166 135 61 105 74 67 21 16 3 0 0 0 0 0
411 423 380 163 180 90 253 234 191 149 169 11 3 3 6 15 12 14 17 12 3 9 4 72 141 40 107 74 79 85 33 39 29 81 15 3 0 0 0 0 0 0 0
143 308 263 88 72 88 111 97 10 8 61 49 7 8 3 4 1 18 103 120 95 45 52 19 8 11 21 17 12 13 7 19 6 0 1 0 0 0 0 0 0 0 0
75 87 116 9 2 25 118 43 18 11 20 8 1 41 60 67 59 26 66 17 11 4 1 0 1 0 0 0 0 0 0 0 0 0 0 0 0 0 0 0 0 0 0
11 10 72 37 21 20 10 7 5 2 1 2 0 1 8 0 45 56 32 29 13 5 1 0 0 0 0 0 0 0 0 0 0 0 0 0 0 0 0 0 0 0 0

GFSGL_con_sbcape_054.txt.gz
CAPE
3288 3451 3400 3391 3541 2873 2184 2688 2278 2700 2809 3459 4057 3337 3158 3233 3253 3694 3475 3274 3351 3223 2618 2816 2268 1892 2003 1118 878 1047 872 827 612 594 1052 1336 934 501 163 626 348 278 0
3391 3513 3478 3565 3632 3521 2873 2720 2814 3059 3919 3355 3722 3893 3182 3016 3145 3469 3331 2752 3511 3376 2958 2731 2721 1932 2098 1922 1737 837 808 1031 862 1117 1488 1198 1020 817 1040 975 452 43 77
3234 3601 3592 3585 3684 3683 3578 2956 3187 3294 3113 3986 4057 3421 3231 2999 2975 3195 3382 3608 3167 3488 3337 2882 2232 2275 1962 1328 1036 1157 1075 1444 1915 903 1113 1258 1180 1171 861 939 1213 838 583
2758 3413 3598 3647 3722 3814 3734 3637 3363 3224 3717 3415 3748 3871 3443 3241 2988 3025 3310 3577 3590 3222 3480 3264 2766 2170 1909 2008 1147 849 1083 975 734 996 634 492 1174 863 784 774 719 755 595
2526 3042 3421 3580 3767 3759 3820 3749 3804 3695 3454 3883 3799 3704 3796 3511 3313 3073 3069 3544 3738 3555 3203 3447 3060 2515 1915 1844 1644 1268 589 826 770 454 449 522 451 1082 537 617 500 767 532
2720 2718 3334 3562 3730 3943 3880 3895 3819 3928 3863 3861 4006 3993 3797 3772 3334 2768 2886 3176 3673 3628 3593 3132 3224 2534 1937 1395 1448 1113 1094 550 583 489 411 320 309 585 771 396 599 645 261
2971 3275 3393 3661 3752 3895 4066 4009 3998 3929 4020 3951 4085 4073 4008 3932 3331 1875 1749 3062 3138 3374 3491 3371 3168 3075 2254 1895 689 719 500 428 418 586 375 284 421 521 855 979 671 329 309
3443 3582 3746 3910 3868 4021 4086 4177 4138 4079 4066 4117 4084 4145 4098 4078 3602 1907 705 2448 3048 3115 3148 3397 3387 3063 2997 2368 1905 991 760 537 101 377 456 313 506 509 580 623 512 465 500
3594 3848 3482 3826 4091 4077 4168 4210 4284 4243 4261 4200 4240 4176 4205 4086 3111 2007 388 1769 2489 2780 3176 3253 3382 3339 3014 1794 2110 1879 1397 746 394 281 91 0 35 148 125 249 400 313 215
3657 3567 3884 3695 4014 4147 4134 4292 4365 4404 4303 4320 4273 4251 4107 4244 3977 1283 497 3080 2713 2591 2814 2994 2420 3028 2972 1204 1742 2017 1899 1563 696 63 0 6 6 10 0 176 120 175 183
3637 3790 3814 3737 3970 4184 4329 4364 4436 4456 4343 4289 4293 4311 4379 4305 4343 1340 6 3256 3182 3047 2890 2659 2820 2318 1143 841 664 2440 2101 2043 683 89 26 23 0 1 7 10 99 179 182
4410 4027 3984 4325 3632 4089 4387 4428 4503 4498 4407 4390 4403 4277 4285 4418 3851 2013 0 287 2524 2851 3091 3126 2999 2673 1695 273 0 1467 1832 1133 187 44 19 11 3 10 27 17 38 188 127
4497 4537 4367 4289 4342 3843 4391 4417 4520 4562 4481 4436 4178 4420 4169 4025 4404 2954 443 0 0 908 2298 2436 1646 1167 43 33 0 37 6 769 166 62 84 70 35 61 89 40 38 87 54
5271 4806 4729 4650 4514 4390 4213 4405 4542 4460 4447 4212 4141 3879 3938 4130 3621 4191 1343 19 0 38 1001 1383 195 152 6 48 0 1 685 815 374 200 162 109 62 67 126 87 77 113 0
4977 4856 4769 4581 4446 4673 2037 1067 3353 2889 1977 4288 3895 3988 3829 3677 3301 2422 3169 2125 1833 1356 1969 2277 365 99 232 80 1 1 177 303 174 46 88 99 96 139 76 44 61 0 0
4573 4620 4402 4050 4471 4358 586 52 1 0 2 3 833 2331 388 270 960 531 1290 1493 525 579 985 341 116 22 4 1 0 1 2 1 2 1 89 43 77 5 14 30 2 0 0
4686 4163 3748 3366 3768 3923 2746 1539 60 0 1 2 2 2 11 2 2 3 3 3 2 0 8 1 0 0 1 1 1 1 2 1 7 47 43 13 17 23 15 1 0 0 0
4476 2402 3886 3346 3710 4036 4001 3530 2203 1423 1338 0 1 0 2 2 2 2 2 0 1 1 1 1 2 1 0 0 0 0 0 0 28 2 1 21 23 7 0 0 0 0 0
3836 3728 4142 4052 4576 3797 3887 3057 2888 2613 853 0 0 0 1 2 2 2 0 1 3 3 8 7 29 38 39 23 5 7 4 15 4 2 13 44 40 5 0 0 0 0 0
1549 1663 2563 2807 2930 2521 2010 2011 1674 1479 1068 593 494 0 0 0 0 4 12 4 1 2 9 0 0 0 1 1 5 14 22 20 2 2 2 6 1 0 0 0 0 0 0
1372 1631 1395 1979 1761 1557 1419 1128 941 954 772 563 326 0 0 18 5 0 1 11 7 17 5 56 13 15 27 14 11 12 11 8 8 13 1 0 0 1 0 0 0 0 0
1209 1345 1407 1230 1154 1099 1035 913 795 392 214 51 0 0 0 3 3 0 3 18 18 62 54 50 10 21 9 5 8 46 44 43 26 1 0 0 8 13 17 2 0 0 0
792 663 472 391 401 98 236 224 218 53 2 9 0 0 1 10 16 4 3 5 77 42 73 97 105 20 0 1 1 13 18 21 55 48 26 24 4 4 1 0 0 0 0
3 0 0 9 23 7 32 6 1 0 20 19 21 6 6 4 30 47 36 50 12 8 26 152 139 26 77 89 71 28 15 67 26 40 71 25 18 0 0 0 0 0 0
0 0 0 0 0 0 0 17 0 1 0 0 0 0 95 64 34 91 317 116 60 61 98 95 15 52 103 83 15 0 0 0 19 7 20 6 4 3 0 0 0 0 0
0 0 0 0 0 0 4 4 3 1 1 0 0 0 0 0 0 17 61 67 42 16 14 19 11 3 2 0 0 0 0 0 0 0 3 0 0 0 0 0 0 0 0

GFSGL_con_sbcape_057.txt.gz
CAPE
1726 1413 1824 2079 1748 1041 1460 1151 677 648 945 2720 2255 2070 2057 2064 2260 2087 1653 2128 2354 2197 1734 1597 1411 1179 503 292 133 94 77 4 3 0 6 13 0 157 0 0 0 0 0
1732 1908 1607 1929 2404 1813 1095 1175 1031 884 1318 1268 2625 2507 2327 2199 1950 2260 2228 2266 2090 2278 2062 1355 1638 1348 909 655 707 12 26 30 0 0 152 445 8 1 0 23 32 21 23
1712 1845 2260 2091 2231 2545 2046 1320 1298 1357 1321 1836 1495 2471 2356 2207 2176 1939 2249 2373 2034 2226 2302 2070 1393 1572 1195 881 683 528 88 2 123 13 24 148 213 87 140 89 102 65 40
1669 2131 2201 2572 2487 2461 2619 2284 1529 1760 1770 2242 2408 1915 2396 2170 2079 2246 2423 2384 2366 2083 2404 2459 2080 1683 1577 1202 740 379 151 249 201 386 74 155 259 258 27 63 175 289 242
2005 2199 2464 2529 2639 2595 2555 2669 2463 1724 2268 1893 2038 2647 2439 2409 2249 2138 2187 2426 2606 2637 2358 2479 2514 2127 1594 1397 1284 874 148 63 241 100 70 53 61 216 265 122 34 64 177
1064 2236 2444 2750 2760 2736 2810 2772 2817 2698 1972 2262 2562 2120 2705 2688 2687 2078 2235 2391 2515 2672 2834 2620 2567 2285 1750 1117 1057 1081 600 105 1 200 52 36 18 27 50 26 180 157 191
1422 1448 2276 2686 2885 2913 3006 3011 2971 2945 2978 2677 2434 2856 2774 2837 2559 1552 1446 2348 2422 2669 2804 2837 2791 2654 2155 2136 660 620 591 331 91 3 82 19 9 70 91 115 74 74 44
1495 1820 1812 2535 2898 2920 2931 3046 3013 3037 3044 3090 3039 2875 3110 3127 2824 1216 836 2273 2540 2464 2726 3034 2981 2931 2674 2387 2212 1248 990 826 256 62 46 65 83 134 127 239 198 58 37
2277 2116 2201 2641 2930 3017 3005 3103 3198 3173 3151 3096 3206 3182 3186 3291 2463 1478 381 1950 2594 2647 2630 2647 2895 3089 2955 1924 2303 2167 1634 1277 750 104 93 127 146 161 85 43 148 123 43
2247 2779 3030 2819 3020 3026 3238 3219 3444 3379 3318 3325 3251 3338 3270 3282 3224 1395 336 2476 2405 2419 2507 2530 2338 2411 2794 2073 1873 2437 2176 1854 1000 5 29 3 3 0 0 1 0 51 36
2719 2493 2927 3199 3190 3323 3247 3401 3476 3649 3648 3518 3504 3430 3456 3429 3463 2052 157 2645 3092 2939 2672 2497 2314 2150 1621 1567 998 2571 2574 2331 1436 380 40 42 22 20 0 0 0 2 32
2951 3084 3044 3023 3198 3466 3578 3573 3660 3723 3793 3758 3656 3640 3687 3655 3273 2957 110 284 3027 3188 3161 2914 2496 2370 1683 896 51 798 1644 1160 1908 806 210 127 73 17 13 9 3 184 17
3806 3230 3092 3143 3050 2639 3578 3720 3751 3821 3913 3876 3798 3769 3733 3617 3654 2955 766 0 49 1995 3202 3109 2507 1764 683 82 0 0 0 233 1669 1319 589 267 53 36 1 4 2 4 1
2845 3918 3487 3327 3681 2833 3610 3693 3892 3977 4034 3938 3881 3814 3619 3628 3618 3442 872 1 1 0 285 1105 868 369 158 123 0 0 0 40 689 1064 616 342 4 1 2 6 15 1 0
2247 4319 4231 3813 3312 3364 436 633 2794 2452 2138 3966 3841 3583 3578 3321 3279 2821 2946 561 521 366 688 900 70 75 191 141 7 1 1 22 469 633 115 6 2 3 12 28 6 0 0
2739 2976 4260 3933 3582 1472 0 1 1 0 2 3 1515 3409 32 508 2 215 630 1220 1275 846 921 904 805 405 207 67 4 0 1 3 1 1 1 1 2 2 11 10 1 0 0
3806 2660 3576 3721 3797 1230 427 115 2 1 1 2 2 1 162 2 2 3 3 2 2 441 342 8 3 0 0 0 0 0 0 1 0 0 1 1 1 1 1 1 0 0 0
3039 3842 3322 2838 2895 2396 1270 525 39 23 86 0 0 0 2 2 2 2 2 0 0 0 0 0 0 0 0 0 0 0 0 0 0 1 1 1 1 0 1 0 0 0 0
3045 3749 3150 2607 2683 3283 2019 910 507 534 0 0 0 0 1 2 2 1 1 0 0 0 0 0 0 0 0 0 0 0 0 0 0 0 1 1 1 0 0 0 0 0 0
1526 1674 2316 2280 2357 2575 2564 2195 632 7 0 0 0 0 0 1 0 0 0 0 0 0 0 0 0 0 0 0 0 0 1 1 1 0 0 0 1 0 0 0 0 0 0
1371 1312 1487 1022 850 861 796 733 580 360 194 0 0 0 0 0 0 0 0 0 0 0 0 0 0 0 0 0 0 1 0 0 1 0 0 0 0 0 0 0 0 0 0
1295 1250 881 767 590 457 474 415 224 0 0 0 0 0 0 0 0 0 0 0 0 0 0 0 0 0 0 0 0 0 0 0 0 0 0 0 0 0 0 0 0 0 0
981 1146 546 371 191 33 4 14 0 0 0 0 0 0 0 0 0 0 0 0 0 0 0 0 0 0 0 0 0 0 0 0 0 0 0 0 0 0 0 0 0 0 0
0 0 0 0 0 0 0 0 0 0 0 0 0 0 0 0 0 0 0 1 0 0 0 0 0 0 0 0 0 0 0 0 0 0 0 0 0 0 0 0 0 0 0
0 0 0 0 0 0 0 0 0 0 0 0 0 0 0 0 0 0 0 6 4 5 14 10 21 13 10 8 0 0 0 0 0 0 0 0 5 0 0 0 0 0 0
0 0 0 0 0 0 0 0 0 0 1 1 1 1 1 1 1 0 0 0 0 0 0 0 0 0 0 0 0 0 0 0 0 0 0 0 0 0 0 0 0 0 0

GFSGL_con_sbcape_060.txt.gz
CAPE
496 777 743 564 226 483 889 133 14 128 545 558 1067 1199 1227 1751 1409 1076 1018 1636 1449 1544 1509 1136 921 773 647 137 0 0 0 0 0 0 0 0 0 0 0 0 0 0 0
623 619 835 907 845 384 363 1056 398 88 53 367 1660 1341 1262 1458 1795 1607 1284 1455 1859 1519 1589 1470 1312 997 788 434 52 12 0 0 0 0 0 30 0 0 0 0 0 0 0
828 837 879 1156 1331 1263 751 508 990 664 340 334 1349 1934 1667 1580 1537 1915 1875 1540 1418 1741 1729 1637 1518 1195 1161 943 325 123 29 0 0 0 0 1 4 0 0 0 0 0 0
1115 1248 1145 1114 1602 1931 1624 1037 598 1004 882 589 743 1630 2045 1850 1719 1629 1703 1922 1783 1678 1632 1727 1716 1249 1411 1207 788 432 190 51 0 0 0 1 15 8 0 0 0 12 17
1215 1308 1430 1436 1302 1707 2116 1838 1353 766 942 1068 960 1070 1726 1982 1936 1777 1696 1553 1682 1914 1857 1823 1947 1843 1402 1368 1185 939 539 29 19 9 1 0 14 58 51 2 0 0 19
1137 1318 1353 1525 1893 1727 1836 2078 2117 1675 1151 1204 1257 1431 1698 1914 2015 1592 1775 1860 1773 1671 1721 1767 1732 1782 1635 1054 950 1084 1036 500 126 15 29 4 41 35 20 32 10 0 6
1119 1165 1445 1681 1862 2203 2150 2119 2208 2276 1819 1467 1736 1548 1475 2119 2080 1104 954 1804 1809 1922 1990 2050 2106 2145 1823 2105 831 211 284 341 534 324 2 30 28 20 15 24 60 21 42
749 1516 1615 1916 2147 2267 2350 2322 2330 2395 2468 2220 1734 1901 2234 1947 1925 818 499 1607 2043 2006 2056 2129 2175 2225 2305 2085 2220 2023 960 964 376 206 476 242 44 49 1 26 36 19 4
672 698 1617 2046 2352 2490 2580 2585 2597 2660 2642 2659 2640 2427 2122 2301 2238 1096 98 1428 2003 2276 2291 2178 2259 2407 2453 2118 1935 2193 2228 1692 1237 400 269 374 93 3 22 62 75 58 13
913 1060 1150 1586 2314 2555 2645 2694 2819 2791 2823 2817 2809 2848 2828 2756 2511 1019 214 2163 2277 2351 2440 2518 2226 2070 2297 2292 1741 2423 2437 2364 1982 1535 180 22 2 3 0 71 118 85 22
1588 1504 1570 1543 1711 2342 2605 2687 2679 2881 2860 2822 2863 2863 2859 2730 2864 1102 69 2357 2809 2816 2683 2621 2519 2238 1336 951 891 2454 2632 2636 2517 1794 1544 595 359 55 7 41 85 39 2
2301 1988 2317 2231 2101 2355 2537 2703 2788 2829 3044 3006 2977 3021 3010 2924 2643 1582 57 336 2845 2967 3022 2958 2803 2497 1730 1066 2 347 1173 381 1578 2232 1703 972 303 79 0 0 0 0 1
1812 2212 2325 2298 2588 2764 2736 2682 2926 3019 3151 3293 3304 3241 3212 3257 3225 2145 439 0 14 1684 3079 3170 3075 2513 2037 38 0 0 0 0 132 734 1528 1752 745 103 5 1 1 3 10
1632 1977 2505 2371 2478 2202 3063 3048 3160 3284 3326 3356 3431 3458 3445 3428 3315 2808 264 1 1 1 563 1409 706 461 194 165 3 0 0 0 1 186 533 1031 712 130 1 1 2 3 0
2636 1808 2239 2814 2247 2401 1678 1737 2963 3005 2598 3520 3519 3534 3573 3496 3072 3269 2710 923 613 703 1239 483 180 370 551 354 73 12 0 1 1 64 170 24 0 1 2 1 0 1 0
2214 2474 2366 2465 2687 1764 1 1 1 1 2 2 294 2966 2273 874 1645 2401 2338 1981 1187 127 649 1105 1208 923 524 197 33 11 0 0 0 1 0 0 1 0 1 3 1 0 0
1447 1854 2392 2280 2900 1031 141 29 19 1 2 2 2 240 794 604 3 0 0 2 2 280 912 602 481 71 1 1 0 1 0 0 0 1 0 0 1 1 2 1 1 0 0
1210 1637 1503 2179 2466 1599 837 525 226 89 336 0 1 1 2 2 2 2 2 107 175 64 0 1 1 0 0 0 1 0 0 1 0 0 1 1 1 0 1 1 0 0 0
1112 1100 1437 2544 2250 2329 1428 616 331 108 0 1 0 0 1 2 2 1 0 19 21 0 0 0 0 0 0 0 0 0 0 0 0 0 1 1 1 0 1 0 0 0 0
1026 1239 924 1249 2497 2128 1528 677 489 0 0 0 0 0 1 0 0 0 0 0 0 0 0 0 0 0 0 0 0 0 1 0 0 0 1 1 0 0 0 0 0 0 0
996 1061 959 629 1232 2421 1736 1060 172 0 0 0 0 0 0 0 0 0 0 0 0 0 0 0 0 0 0 0 0 0 0 0 1 0 0 1 0 0 0 0 0 0 0
996 1097 708 679 684 804 634 382 159 7 0 0 0 0 1 0 0 0 0 0 0 0 0 0 0 0 0 0 0 0 0 0 0 0 0 0 0 0 0 0 0 0 0
919 911 79 108 174 34 1 0 0 0 0 0 0 0 0 0 0 0 0 0 0 0 0 0 0 0 0 0 0 0 0 0 0 0 0 0 0 0 0 0 0 0 0
107 9 0 0 0 0 0 0 0 0 0 0 0 0 0 0 0 0 0 0 0 0 0 0 0 0 0 0 0 0 0 0 0 0 0 0 0 0 0 0 0 0 0
0 0 0 0 0 0 0 0 0 1 0 0 0 0 0 0 0 0 0 0 0 0 0 0 0 0 0 0 0 0 0 0 0 0 0 0 0 0 0 0 0 0 0
0 1 1 1 0 0 1 2 2 2 1 1 1 0 0 0 0 0 0 0 0 0 0 0 0 0 0 0 0 0 0 0 0 0 0 0 0 0 0 0 0 0 0

GFSGL_con_sbcape_063.txt.gz
CAPE
292 317 263 254 261 159 32 0 2 0 0 29 639 827 1017 1276 1100 881 912 1115 921 922 976 866 714 407 489 196 0 0 0 0 0 0 0 0 0 0 0 0 0 0 0
160 248 249 215 254 497 624 48 0 5 43 136 149 746 854 1052 1272 1127 1007 1079 1248 1242 1211 1192 1117 867 601 340 53 1 0 0 0 0 0 0 0 0 0 0 0 0 0
25 205 355 305 225 118 211 753 405 25 2 0 483 875 832 929 1118 1334 1204 1062 990 1205 1291 1291 1408 1101 1058 830 398 180 0 0 0 0 0 0 0 0 0 0 0 0 0
142 165 290 517 544 513 268 124 440 749 455 69 20 412 1113 1214 1180 1257 1516 1302 1128 1156 1320 1451 1485 1282 1343 1273 840 616 291 35 0 0 0 0 0 0 0 0 0 0 0
300 347 385 415 617 737 780 659 303 413 735 616 480 259 880 1274 1421 1418 1354 1501 1531 1416 1376 1305 1357 1434 1333 1260 1308 1139 704 188 245 1 29 0 9 0 18 3 0 0 0
517 543 545 554 640 938 1209 1213 989 595 444 710 665 662 582 1061 1202 1362 1509 1405 1273 1437 1537 1549 1514 1388 1251 992 719 1099 1368 810 668 468 425 386 207 41 17 15 0 0 0
641 714 820 896 875 893 1252 1634 1705 1366 954 583 728 796 795 878 973 584 713 1491 1412 1341 1310 1358 1357 1504 1375 1526 1047 168 155 184 680 1446 900 496 490 194 22 18 27 16 6
642 872 997 1068 1227 1368 1253 1391 1630 1898 1741 1380 1064 1035 1029 1046 1299 561 235 1058 1532 1600 1583 1605 1604 1625 1632 1621 1608 1740 1085 844 493 294 783 1314 1390 864 162 50 41 64 19
554 816 984 1200 1252 1417 1815 1747 1756 1812 2053 2070 1736 1449 1480 1557 1039 600 77 1050 1504 1691 1770 1696 1712 1788 1836 1661 1631 1926 1998 2029 1536 716 417 573 364 194 78 19 27 10 0
483 877 1030 1108 1347 1606 1732 1977 2014 2085 2098 2209 2337 2195 1747 1681 1751 389 0 1256 1551 1759 1921 2028 1865 1723 1901 1798 1380 1975 2247 2382 2326 2025 1052 196 26 156 7 53 184 51 1
325 403 587 1404 1575 1779 2010 2081 2249 2299 2405 2458 2503 2517 2501 2201 2226 774 0 1533 2012 2138 2156 2252 2264 2146 1313 819 650 2032 2348 2458 2577 2060 2153 2111 1387 769 530 204 15 11 2
1105 717 816 850 1420 1882 2029 2239 2347 2486 2581 2612 2599 2623 2630 2627 2211 1520 30 76 2172 2478 2643 2713 2627 2481 1940 768 0 126 791 253 957 1494 1966 2107 1579 853 610 143 3 0 2
1608 1732 1487 1311 1250 1263 1832 2153 2455 2498 2543 2662 2696 2662 2709 2719 2652 1716 500 0 0 1102 2723 2894 2909 2552 1942 234 0 0 0 0 53 352 644 853 1143 1572 686 21 0 0 1
1865 1440 1802 1825 1992 1912 1995 2094 2323 2579 2607 2664 2834 2894 2878 2830 2783 2276 136 12 1 2 65 935 953 1203 691 772 6 0 0 0 6 34 138 199 369 308 1 1 1 1 0
1448 1704 1747 2018 1837 1817 2028 1469 2376 2580 2310 2864 2901 2991 3069 3056 2971 2828 2602 1681 1156 1053 1067 921 332 687 667 433 158 18 1 1 1 1 1 53 1 1 1 1 1 1 0
941 992 1180 1412 1907 2061 892 10 1 3 2 2 1 1578 2946 2919 3034 2981 2646 2228 1666 301 306 1167 1547 1265 1201 766 442 115 1 0 1 1 1 0 1 1 0 0 0 0 0
494 598 840 1202 1433 1840 758 243 229 1 1 2 2 2 2 2163 1372 1072 1117 219 2 1 1341 1365 1618 1031 546 279 80 1 0 0 0 0 0 0 0 1 0 2 1 0 1
296 677 507 823 1110 1597 1334 622 358 259 222 9 1 2 2 2 3 2 2 0 1 1 365 620 556 167 2 1 1 1 0 1 0 0 0 0 1 0 1 1 1 0 0
166 400 624 757 1011 1655 1828 1085 573 372 322 1 1 1 1 1 1 1 1 506 459 256 5 0 0 0 0 0 0 0 0 0 0 0 0 0 1 0 1 1 0 0 0
116 344 501 439 624 1118 1668 1210 512 290 8 1 0 1 0 0 1 0 0 0 14 5 0 0 0 0 0 0 0 0 1 0 0 0 0 1 1 0 0 0 0 0 0
115 219 507 499 372 698 1625 1050 681 85 2 0 0 0 0 0 0 0 0 0 0 0 0 0 0 0 0 0 0 0 0 0 0 0 1 0 0 0 0 0 0 0 0
94 283 551 728 451 628 1536 960 347 27 0 0 1 1 1 0 0 0 0 0 0 0 0 0 0 0 0 0 0 0 0 0 0 0 0 1 0 0 0 0 0 0 0
5 276 644 429 335 139 199 63 0 0 0 0 0 0 0 0 0 0 0 0 0 0 0 0 0 0 0 0 0 0 0 0 0 0 0 0 0 0 0 0 0 0 0
24 441 22 0 0 0 0 0 0 0 0 0 0 0 0 0 0 0 0 0 0 0 0 0 0 0 0 0 0 0 0 0 0 0 0 0 0 0 0 0 0 0 0
359 0 0 0 0 0 0 0 0 0 0 0 0 0 0 0 0 0 0 0 0 0 0 0 0 0 0 0 0 0 0 0 0 0 0 0 0 0 0 0 0 0 0
1 1 1 0 1 1 0 1 1 0 1 1 0 0 0 0 0 0 0 0 0 0 0 0 0 0 0 0 0 0 0 0 0 0 0 0 0 0 0 0 0 0 0

GFSGL_con_sbcape_066.txt.gz
CAPE
38 39 69 119 84 34 0 0 0 0 0 0 282 522 729 1077 1146 1070 1266 1283 1084 1154 1071 1074 1072 640 729 607 120 8 0 0 0 56 0 0 38 68 110 101 18 3 8
114 115 121 155 170 79 46 0 0 0 0 0 34 433 689 965 1254 1228 1255 1375 1371 1429 1307 1315 1358 1020 984 918 615 492 73 0 0 31 18 0 28 56 56 50 30 7 0
146 226 185 201 198 148 125 31 0 4 1 2 0 73 345 704 1040 1319 1396 1403 1329 1511 1621 1533 1631 1445 1590 1444 1037 932 509 181 0 0 47 1 2 1 9 2 8 22 9
85 247 292 308 235 241 298 403 116 1 2 0 101 342 516 720 939 1148 1442 1468 1378 1336 1434 1512 1584 1560 1636 1788 1582 1476 1281 618 189 122 258 265 123 66 1 13 51 4 15
68 162 305 285 205 162 112 206 569 512 223 142 40 62 246 642 908 1177 1400 1641 1619 1473 1470 1499 1642 1615 1389 1511 1773 1724 1595 1247 1232 607 802 886 385 438 239 528 30 97 116
166 135 158 311 416 388 336 187 86 192 654 675 560 467 321 416 543 443 858 1343 1702 1813 1763 1640 1644 1173 1095 926 701 976 1429 1467 1441 1515 1376 1179 1168 1163 915 291 215 53 83
320 252 269 286 429 559 616 671 612 323 262 510 639 639 586 477 246 62 103 1196 1362 1503 1705 1829 1783 1721 1288 1800 1033 225 158 183 668 1876 2049 1902 1744 1579 1462 1034 377 83 140
437 417 436 478 496 564 744 954 1028 983 761 480 519 685 762 733 397 35 0 742 1384 1448 1473 1508 1569 1598 1644 1650 1846 1884 1671 1333 574 524 1168 1665 1891 1995 2017 1336 595 179 15
522 585 693 761 803 794 843 996 1300 1567 1527 1261 1024 793 823 918 553 31 0 513 964 1397 1575 1638 1747 1794 1620 1149 1664 2017 2163 2231 1801 793 590 732 473 270 176 489 413 410 175
612 759 902 1015 1090 1201 1205 1091 1182 1462 1741 1940 1886 1662 1235 1282 997 64 0 1058 1231 1339 1560 1742 1350 1574 1656 1304 1328 2095 2270 2378 2550 2579 1153 303 71 179 39 12 507 553 374
432 650 908 1074 1198 1215 1345 1602 1745 1772 1847 1940 2122 2207 2101 1546 1664 691 0 883 1458 1680 1794 1979 2131 1650 747 784 286 2134 2283 2448 2590 2282 2425 2423 1987 1426 1343 1617 811 146 199
330 632 869 1014 1132 1323 1504 1608 1872 2019 2113 2210 2271 2362 2485 2521 1677 1296 14 31 1454 1941 2184 2341 2399 2043 1650 655 0 106 817 385 1422 1668 1853 1907 1961 1914 1918 1597 956 170 29
389 318 519 758 1411 1557 1705 1913 2073 2236 2306 2388 2521 2604 2686 2716 2728 1247 370 0 1 1061 2370 2566 2553 2274 1870 94 0 0 0 2 267 789 1011 1153 1274 1421 1533 1156 58 1 1
1300 1497 1438 1339 1155 1255 1844 2029 2254 2391 2461 2605 2727 2765 2674 2704 2763 2659 468 44 1 1 1 713 762 948 800 1014 574 0 0 0 350 702 706 959 599 798 411 46 1 1 0
975 1289 1629 1750 1441 1851 1742 1319 2150 2393 2282 2619 2616 2644 2791 2854 2753 2729 2428 1990 1717 1189 945 1336 420 704 1053 865 599 332 1 1 5 1 79 274 325 9 4 3 4 1 2
457 599 620 1227 1696 1827 1433 332 1 2 2 2 3 1056 2854 2617 2692 2535 2349 2030 1824 754 333 1700 1660 1388 1470 1255 854 504 130 4 3 26 64 30 3 8 3 3 1 4 2
81 290 347 478 967 1394 1304 862 815 0 1 2 2 3 2 1457 1146 2551 2031 22 1 1 1395 1570 1838 1846 1707 1336 943 353 35 6 7 5 30 20 5 6 2 8 7 1 1
0 13 180 368 639 919 1290 1204 911 926 683 327 0 1 2 2 2 2 2 1 101 1 996 1895 1904 1606 972 735 264 4 1 3 7 3 5 4 6 6 10 7 5 3 0
0 1 96 304 482 616 801 1148 1000 838 811 426 2 1 1 2 2 2 2 1846 1867 850 452 533 649 531 281 42 2 3 3 0 3 3 4 10 8 5 5 4 1 0 0
0 0 1 65 333 486 791 1114 895 856 693 189 5 117 1 0 3 2 3 104 703 592 146 162 15 27 8 1 2 3 3 3 3 5 9 8 3 0 1 2 1 0 0
1 1 1 67 358 468 716 1081 1091 737 635 376 239 0 0 72 186 198 216 0 58 44 0 0 0 0 0 1 2 1 1 1 3 1 7 2 2 2 1 0 0 0 0
2 2 1 2 337 559 771 902 1205 799 613 246 1 1 0 0 25 0 0 0 0 0 0 0 0 0 0 0 0 0 0 2 0 2 7 3 1 0 0 0 0 0 0
0 1 4 2 41 287 350 645 855 612 246 1 1 1 0 0 0 0 0 0 0 0 0 0 0 0 0 0 0 0 2 2 2 3 5 2 1 2 2 0 0 0 0
0 0 2 5 32 206 332 148 15 5 0 0 0 0 0 0 1 1 0 0 1 0 0 0 0 0 0 1 1 0 0 0 0 0 1 3 3 1 0 0 0 0 0
2 3 4 8 0 0 0 0 0 0 0 0 0 0 0 0 0 0 0 0 0 0 0 0 0 0 0 0 0 0 0 0 0 0 1 2 1 0 0 0 0 0 0
3 2 2 1 1 1 1 2 2 1 1 1 0 0 0 0 0 0 0 0 0 0 0 0 0 0 0 0 0 0 0 0 0 1 1 2 2 2 0 0 0 0 0

GFSGL_con_sbcape_069.txt.gz
CAPE
1048 1111 1227 1282 1034 1099 1016 1017 1409 1201 1072 1139 1309 1403 1521 1624 1862 2165 2274 2177 2465 2658 2710 2608 2574 2525 2120 1959 1774 1465 1271 859 748 371 359 371 656 791 804 944 852 831 496
967 1169 1222 1355 1422 984 1220 984 941 1224 1109 1126 1164 1320 1386 1505 1732 1994 1982 1873 2368 2545 2678 2804 2812 2478 2643 2608 2288 2400 2064 1769 1162 2097 1686 1135 1347 845 1293 960 710 312 509
826 796 1191 1379 1305 1547 1507 1457 1202 1210 1304 1038 1181 1319 1589 1472 1697 1913 2031 2132 2463 2578 2653 2784 2781 2829 2948 2681 2622 2309 2058 2250 2095 1755 1916 1819 1827 1414 1443 1386 975 1349 672
711 855 1267 1454 1501 1485 1591 1653 1269 1499 1508 1298 1453 1639 1455 1271 1308 1354 1561 2067 2297 2333 2469 2584 2650 2752 2885 3044 2968 2924 2788 2627 2500 2135 1787 1644 1576 1936 1555 1208 1226 1346 1374
1109 1173 1343 1565 1594 1711 1755 1674 1385 1427 1570 1815 1558 1430 1418 1297 966 1605 1588 1792 2225 2393 2490 2628 2670 2462 2142 2347 2696 3377 3116 2797 2497 2260 2137 2082 2002 2042 2371 2011 1911 1835 1971
1257 1310 1575 1717 1757 1768 1841 1911 1825 1678 1377 1721 1605 1531 1513 1092 486 319 1055 1665 1865 2213 2279 2427 2631 2075 1666 1068 902 1243 1966 3407 3076 2695 2400 2501 3643 3077 2624 2599 2721 2423 2485
1272 1430 1672 1833 1863 1865 1839 1822 2026 2182 1804 1958 1757 1624 1743 1719 739 30 10 1293 2010 2401 2774 2635 2002 1523 2179 2701 1644 269 266 282 768 2904 3414 3358 3638 3518 4042 3861 2966 2427 1891
1385 1430 1557 1800 1856 1913 1899 1921 1886 1434 1810 2100 1895 1940 2012 1995 1047 82 0 975 2056 2520 2603 2654 2799 2748 2921 2540 2326 2283 2435 2447 2208 1655 2298 2737 3013 3352 3773 3698 2681 1864 1510
1533 1570 1586 1602 1783 2003 2032 2021 1912 1888 1877 1908 1871 2070 2368 2301 884 24 0 810 1115 2257 2470 2707 2830 2870 2236 1625 2122 2361 2851 2690 2292 1822 1450 1361 1058 454 320 1049 1125 1749 1626
1695 1700 1750 1759 1857 1953 2053 2172 2326 2349 2159 1837 1869 2015 1649 2299 1445 61 0 1175 1816 1578 2486 2796 1761 1832 2089 1486 1963 2358 2944 2907 3127 3357 3395 1881 857 1341 257 307 1263 1254 1208
1423 1528 1891 2010 2075 2207 2283 2407 2487 2489 2586 2719 2767 2736 2484 2229 2200 367 0 1509 1751 2053 2144 2302 2427 1117 692 641 485 2797 3166 3129 3182 3464 3562 3456 3285 2876 2817 3231 2635 2032 1182
2051 1946 2230 2306 1813 1779 2719 2538 2643 2773 2774 2826 2791 2640 2669 3031 2021 1398 0 47 1807 2481 2722 2827 2990 2270 1080 175 0 626 1058 1105 2465 2803 3011 2779 2942 2885 2784 2781 2587 1921 870
1938 2322 2450 2592 2488 2623 2782 2732 2518 2773 2516 2606 2600 2665 2681 2859 3195 1303 83 0 0 1487 2721 2797 2522 2240 1725 422 1 69 2 478 1556 1960 2200 2570 2755 2627 2119 1469 315 20 7
1833 1906 1855 2006 2221 2402 2210 2285 2321 2389 2605 2587 2755 2874 2982 3157 3339 3429 1886 313 10 41 242 1660 2224 2064 1737 1931 1384 224 221 1595 2348 2384 2464 2522 2449 1748 1194 646 70 7 4
2175 1926 1561 1636 1799 2230 2408 2285 2386 2936 2465 2829 2980 3117 3283 3438 3435 3113 3348 3417 3081 1991 1719 2216 2264 1533 1740 1491 1731 2160 1701 810 546 862 1373 1873 1348 1006 435 155 13 6 8
1314 1706 1764 2830 2851 2369 2177 1897 1 0 1 2 27 1186 3304 2835 2562 2771 2592 2637 2524 949 1463 2705 2199 1770 1822 1942 1938 1963 1769 565 725 775 911 1099 1068 745 79 55 16 34 9
127 693 716 1160 2088 2920 2881 2533 2670 598 0 0 0 2 2 920 100 930 1898 67 0 1 2212 2551 2722 2380 2237 2206 2188 2042 1249 1037 1251 745 885 970 661 212 11 13 20 31 24
0 0 369 1275 1711 1929 2073 2357 2472 2353 2726 2904 79 0 1 2 3 3 2 6 192 1 1581 2581 2768 2814 2742 2730 2314 1705 1140 695 355 652 930 379 100 122 10 8 5 17 5
0 0 1 165 912 1109 1730 1922 2034 2161 2512 2707 2108 140 1 1 2 2 2 1938 3051 3499 2379 2489 2826 2784 2734 2355 1808 1038 430 232 722 1241 869 67 52 62 20 19 7 1 2
0 0 0 0 8 579 1142 1684 1729 1928 1952 2183 2666 2437 617 1 291 210 2 29 2941 3999 3910 2769 1664 1535 1280 953 450 424 475 128 490 513 97 89 64 11 11 12 5 12 6
0 0 0 0 0 44 436 1209 1478 1651 1653 1508 1907 1879 975 705 2147 1972 1508 976 2149 3365 3106 2519 1757 1174 535 559 779 886 759 177 109 21 40 11 30 13 12 14 21 9 4
1 0 0 0 0 0 160 455 1199 1500 1383 1114 1086 544 2 5 1191 1669 1647 1860 2195 2004 1420 768 213 69 0 0 5 110 205 113 33 13 6 7 14 12 16 9 9 13 7
3 4 4 0 0 0 1 208 362 1173 1293 1229 915 199 1 1 411 1386 1653 1480 808 591 345 16 0 0 0 0 0 65 87 7 3 7 5 4 9 12 9 5 1 0 18
5 2 1 6 0 0 3 99 216 516 925 862 866 430 2 3 141 143 250 220 54 6 52 61 48 12 1 1 1 2 3 6 6 6 11 13 4 0 6 8 1 0 20
3 4 8 7 5 0 56 127 397 649 369 64 0 1 0 0 0 0 0 0 0 0 0 0 0 2 4 1 0 2 0 3 1 0 12 15 17 27 27 22 17 14 10
5 4 4 4 4 2 2 1 2 1 1 2 2 1 1 0 0 0 0 0 0 0 0 0 0 0 0 0 0 0 0 0 0 2 10 19 33 42 37 39 34 38 28

GFSGL_con_sbcape_072.txt.gz
CAPE
1674 2029 2303 1799 1611 1659 1278 1521 1834 1855 1722 1880 1453 1340 1058 1507 1988 2448 2316 1901 2307 2897 2930 2966 3137 3056 2072 1431 1638 1675 1378 1306 1272 896 534 944 1392 1595 1514 1478 1299 1261 1003
1925 2499 2157 2147 2405 1427 1665 1560 1718 1937 2059 2073 1955 1831 1490 1379 1916 2352 2372 1695 2310 2726 2959 3202 3328 3137 3551 3459 2466 2876 2526 2649 2051 3270 2556 1682 2859 3039 2858 2255 1752 1227 1276
1622 1405 1718 1823 1788 2275 2170 1914 1815 2012 2049 2091 2066 2030 1854 1386 1421 1976 2214 2217 2188 2475 2910 3169 3328 3487 3629 3347 3191 2633 2299 2340 2675 2445 2291 1522 1434 1578 2065 3196 3134 3045 2047
1008 1226 2158 2517 2565 2069 2614 2679 2098 2405 2162 2217 2362 2194 2021 1765 1301 1296 1521 2070 2205 2237 2638 3027 3263 3403 3502 3629 3729 3701 3533 3272 3010 2532 2131 2008 1942 2522 2249 2160 2277 2277 2357
1801 1382 2255 2901 2908 3145 3098 2974 2511 2464 2190 2325 2325 2260 2106 1860 1261 1666 1259 1256 1838 2277 2362 2488 2758 2629 2335 2719 3153 4339 4636 3424 2505 2144 1957 1800 1634 1730 2737 2374 2469 2472 3036
2452 2205 2623 3114 3192 3178 3224 3123 3035 2556 2706 2555 2479 2387 2191 1713 741 449 820 1258 1510 2218 2152 2362 2523 2117 2133 1944 1711 1450 1675 3506 4782 3230 2421 2375 4236 3633 2663 2569 2687 3150 3630
2839 2717 2931 3216 3344 3410 2892 3247 3358 3132 2871 2940 2599 2589 2692 2597 1253 172 92 1235 1387 2236 2938 2747 1823 1027 1528 2210 1472 906 681 528 502 2488 3341 3563 3859 3612 4115 4330 4626 3929 3798
2972 3029 3125 3341 3348 3329 3338 3359 3665 3003 3431 3464 2708 2828 2736 2766 1567 557 0 1309 2204 2612 2872 3186 3444 3209 3178 2745 2498 2517 2613 2696 2604 2258 2613 2777 2926 3672 4196 4359 3758 3537 3082
2891 3109 3193 3077 3366 3231 3285 3402 3028 3216 3142 3021 2981 3205 3347 3130 1424 659 36 1455 1457 2512 2618 3087 3509 3691 2822 1940 2312 2887 3023 2889 1650 1512 1642 1862 1940 1498 877 1761 1932 3069 2831
2960 2938 3111 3141 3490 3458 3540 3559 3301 2760 2541 2367 2480 2924 2429 3395 2413 67 26 1635 2045 1547 2890 3627 2015 2046 2501 1757 2493 2742 3031 2592 2559 2905 3563 2559 1206 2692 1186 2095 2878 2937 2963
2056 1996 2739 2878 3488 3562 3710 3660 3611 3271 3199 3506 3213 3223 3100 2787 2984 344 0 2075 1577 1662 1706 1725 2104 1290 1307 763 684 3319 3098 2803 3052 3860 4026 3963 4262 4043 3816 3918 3805 3179 2636
2669 2252 2960 3130 2387 2257 3482 3155 3145 3445 3587 3740 3406 2953 2832 3315 2314 1343 0 92 1763 2461 2593 2295 2832 2290 782 207 5 844 1130 1228 2503 3034 3509 3471 3208 3512 3547 3438 2434 2106 1605
2769 2929 2974 2799 2449 3115 3376 3054 2831 3228 2921 2963 2891 2942 2838 2860 3471 1724 0 0 2 1090 2599 2782 1745 1273 1136 168 0 296 326 2081 2734 2960 3115 3481 3492 3885 3464 2094 1142 1087 228
2466 2613 2645 2756 2741 2594 2687 2882 2825 2746 2797 2646 2769 2769 2858 2950 3119 3484 2413 262 55 183 784 1765 2552 2468 2104 2420 2784 1015 1923 2967 3393 3276 3418 3678 3921 2924 2330 1792 998 658 11
2332 2437 2604 2653 2701 2883 2910 2752 2739 3326 2624 2920 2781 2947 3063 3304 3348 3217 3484 4042 3543 2326 2366 2979 3094 3119 3155 3263 3304 3624 3783 3848 3156 3119 3357 3087 2630 2361 1721 1537 828 622 390
2503 2181 2096 2068 2348 2365 2498 2538 53 13 1 94 434 1512 3272 2551 2513 2283 2875 2900 2112 1561 2576 3442 3528 3168 2786 2687 2766 2849 2992 2884 2967 2780 2503 2249 2160 2162 1836 1281 814 517 579
1673 2242 2635 2686 2652 2436 2701 2786 3049 832 33 304 250 77 583 1412 985 198 105 8 1 393 3346 3790 3565 3034 3281 3710 3735 3547 3103 3106 2759 2188 1766 1819 2130 2046 878 1330 619 502 520
52 5 1432 1808 2171 2492 1731 2505 3163 2606 2842 2942 381 405 21 6 2 125 0 84 1283 315 2746 3233 3572 3403 3598 4243 3997 3669 3366 3026 2336 2204 2195 1973 1858 1625 1089 811 445 529 180
0 0 7 188 1021 774 874 641 1184 1748 2426 2894 2821 150 1 0 0 0 2 1841 3754 3919 3752 3707 3918 3994 3966 3826 3951 3794 3386 2111 1365 1210 1111 1064 1188 1773 897 389 137 3 51
0 0 0 141 5 230 699 1008 1362 1470 1960 2434 2209 2028 1089 192 1326 1340 0 311 2751 3768 3954 3870 3696 3586 3883 3851 3720 3210 2542 1237 801 1070 1443 1286 1402 1161 656 311 134 122 9
0 0 0 0 0 0 131 422 812 1064 1013 1500 1813 1719 1026 2711 2657 2640 2989 2218 2293 3234 4151 4299 4451 3685 3609 3480 2680 1818 1127 599 858 1201 1553 1599 1293 806 533 485 151 25 9
0 0 0 0 0 0 0 0 97 194 504 680 580 636 664 1386 1916 2751 2975 3001 3369 3279 3554 4402 4139 3600 3227 2869 2722 2439 1851 1552 1368 1632 1682 1183 678 532 349 207 133 35 11
0 0 0 0 0 0 0 0 0 5 66 376 519 460 595 716 1127 1912 2687 2938 3103 3224 2957 2525 2626 2677 1993 1526 1356 1329 1254 1046 862 713 792 556 434 357 140 21 91 14 5
2 7 4 4 0 0 0 0 36 2 42 130 495 514 525 768 932 1385 1437 1706 1822 1478 1538 1379 1411 1394 1121 908 828 679 651 587 565 520 448 172 159 95 31 9 25 11 10
4 5 5 4 0 1 25 6 58 196 335 32 107 81 0 1 1 1 2 2 271 321 85 63 130 300 175 234 353 302 0 2 0 0 66 13 11 6 8 14 20 8 2
9 8 8 8 6 5 7 6 6 2 0 0 2 2 2 0 0 0 0 0 0 0 0 0 0 0 0 0 0 0 0 0 0 0 4 15 10 33 25 25 47 36 25

GFSGL_con_sbcape_075.txt.gz
CAPE
2474 2332 2376 2397 2169 2538 2402 3030 2885 3047 3138 2998 2304 1969 1722 2028 2624 3737 3704 2863 3564 3757 3179 3000 3311 4072 2174 1558 1517 1664 1566 1306 1342 1342 1256 1672 3835 3227 2606 2552 2170 2878 1820
2302 2545 2467 2844 2652 2636 2527 2406 2947 3264 3652 3565 3363 2950 2422 2038 2962 3193 2417 2255 2272 2380 2627 3865 3382 2618 4758 4560 2657 3867 2432 3017 2093 3397 2764 2367 3483 3579 4238 4737 3150 2232 2472
2221 2081 2689 2866 2952 2813 2916 2821 2778 3305 3592 3183 3475 3701 3275 2529 2699 3008 3373 2935 2185 2542 3045 3660 3648 4166 4729 3624 4444 3391 2558 3065 2983 2752 2741 2355 2220 2133 2848 3810 4111 3354 2624
1420 1680 2556 3060 3145 2900 3083 3252 3228 3558 3764 3700 3950 3980 3685 3195 2593 2226 2693 3318 3345 2532 2959 3337 3440 3903 4521 4810 4452 4964 4355 3866 2941 2600 2516 2605 2537 3319 2973 2770 2925 2505 2750
2293 2082 2552 3219 3273 3375 3141 3389 3516 3648 3664 3941 4051 3944 3606 2999 2089 2688 2544 2889 3518 3254 2997 2986 3334 3200 2472 3198 3098 4189 4818 3873 2687 2611 2438 2013 1807 2062 3080 2751 2857 2840 3119
2726 2348 2591 3254 3566 3474 3371 3484 3728 3754 3821 4066 4024 3973 3754 2285 1161 892 1857 2325 2690 3047 3310 3666 3786 2738 2160 1936 1899 1990 2188 4117 4840 3166 2730 2573 3697 3149 2870 2498 3005 3039 3502
3392 2783 2894 3454 3697 3681 3603 3860 3985 4035 3970 4077 4111 4069 4021 3999 1366 275 276 2195 2595 2910 3257 3513 3016 1214 2104 3526 1992 1527 1240 777 856 3097 3680 3668 3715 3987 4079 4018 4311 4693 4173
3230 3620 3160 3560 3726 3929 4067 4108 4147 4161 4107 4192 4247 4233 4218 3874 2197 830 0 2003 2247 2710 3111 3587 3820 3178 2875 3100 3762 3803 3511 3527 3181 2101 3093 3354 3661 4116 4728 3995 4480 4008 3795
3619 3648 3543 3567 3849 4099 4081 4169 4251 4291 4288 4286 4394 4383 4402 4184 1860 1084 40 1901 2121 2954 3352 3502 3502 3598 3197 2709 3109 3100 3133 3172 1703 1315 1318 1562 1614 1220 1254 2439 2910 3404 3434
3370 3565 3915 3772 4027 4173 4222 4231 4316 4337 4188 3263 3809 4306 3874 4410 3270 566 184 1917 2363 1948 3031 3507 2491 2503 2950 2461 3155 3700 3726 3816 3645 3536 3836 2797 753 1870 1489 1757 3596 3990 4209
3026 3604 4129 4084 4201 4321 4456 4482 4481 4298 3631 4252 4209 4348 4414 4097 4320 1199 0 2767 2071 2018 1881 1725 1986 1488 1379 1053 810 3501 3807 3887 3617 3882 3748 3779 4397 4641 5067 3208 4757 4460 3793
3655 3759 3969 4221 3706 3633 4503 4540 4466 4533 4453 4577 4342 4117 3189 4270 3077 1144 0 251 2333 2589 2062 1076 1455 874 336 253 9 841 1487 1624 2370 2579 2903 3235 3511 4122 3829 4669 4072 3291 2293
3974 4024 4091 4068 4055 3957 4367 4540 3957 4428 3272 3362 3171 2928 2501 2373 3385 1935 0 0 79 1455 2449 1572 1171 1640 520 0 0 443 532 1874 2442 2929 3364 3440 3692 3692 4519 3085 2670 2003 1141
4070 4220 4103 4066 4095 3949 3448 3534 3180 3001 3099 2662 2792 2669 2472 2293 2392 3219 1539 89 24 220 1162 1716 1986 1972 1026 2180 2646 325 1706 3015 3329 3779 3782 3696 3806 5151 4363 2441 1270 1654 581
3097 3108 3677 3309 3316 3735 3489 3120 3071 3270 2295 2931 2276 2444 2603 2944 2919 2757 2978 3400 2786 2180 2415 2697 2550 2593 3016 3501 3760 3977 4243 4099 3759 3667 3904 4114 4408 4952 3351 1869 1182 1562 853
2771 2996 2904 2853 3124 3033 2968 2404 214 976 532 497 546 1614 2681 521 1518 594 1611 1873 2355 2124 2407 3055 3229 3359 3723 3675 3904 3571 3867 3738 4173 4678 4510 4316 3776 3165 2128 1523 1523 1610 1740
184 1124 3160 2580 3102 2997 3226 3173 2873 537 61 253 468 758 500 86 330 17 92 2 312 1330 3591 3685 3438 3374 3715 3594 3377 3354 3374 3578 4620 4312 3940 3661 3030 2684 1699 1677 1703 1736 1231
0 13 557 2272 2849 2670 2836 3137 2988 3338 3158 2625 1348 1686 553 2 2 2 58 701 2518 1525 3195 3550 3569 4036 3973 3573 3611 3824 4127 3897 4416 3874 3460 3062 2629 2376 1567 1719 1807 1685 1135
5 0 0 198 358 1195 3405 3350 3274 2820 2781 2063 1789 300 2 2 2 1 2 1798 3055 3522 3552 3517 3649 3662 3875 3950 4131 4451 3961 3947 4210 3615 3051 2999 2552 2396 2126 1735 1628 1049 638
0 0 0 73 239 1221 1475 927 733 971 906 1233 1112 2753 535 429 1333 2102 1109 1627 2525 3067 2976 2897 3148 3582 3872 4020 3674 4465 4555 4268 3528 2790 2631 2064 1540 1402 1489 1090 1605 1094 573
18 15 0 0 4 119 100 424 714 759 1480 1568 1070 768 752 2291 2437 1838 2506 2372 2566 2840 3428 3239 3373 3266 4531 4337 4108 3908 3885 3854 3420 2745 1957 1478 1134 1255 1459 1847 1298 760 539
0 0 0 0 0 0 0 0 355 667 783 757 1064 1037 790 1166 2060 1429 1172 1725 2731 3207 3048 3538 3602 3725 4002 3615 3572 3541 3305 2841 2476 2121 1808 1747 1760 1553 1345 1195 1114 834 536
0 0 0 0 0 0 0 0 8 25 144 277 401 602 971 602 636 241 541 1214 2118 2463 2791 3737 3920 3704 4016 3603 3178 3111 3134 3037 2873 2314 2127 2032 1762 1287 1047 998 947 590 458
0 0 0 0 0 0 0 0 0 0 5 6 100 211 643 950 874 1094 1044 1049 1352 2074 2773 3017 2835 2797 2982 2809 2330 2149 1962 1779 1737 1388 1374 1312 1258 1122 758 671 666 352 276
3 4 4 4 1 0 0 0 0 0 0 0 0 0 0 0 0 0 0 0 0 0 0 0 0 0 0 0 0 0 0 0 0 0 315 937 951 742 401 405 323 106 138
5 6 7 6 7 6 5 5 5 4 2 1 3 3 3 3 3 1 0 0 0 0 0 0 0 0 0 0 0 0 0 0 0 1 1 347 326 190 86 60 32 12 55

GFSGL_con_sbcape_078.txt.gz
CAPE
1967 1392 1297 1178 1143 1125 1810 1961 2478 2511 3586 3619 3545 3135 3083 2970 3506 3689 3245 3151 3177 3415 3068 3644 3339 3511 2967 2797 3312 3302 2733 2474 2116 1925 2593 2544 3819 3270 2786 2498 2704 2477 2313
2102 1803 1418 1420 1183 1117 757 2435 2481 3436 4014 4355 3443 3909 2967 2786 2985 3291 3080 2065 3114 3354 3639 3540 3756 3466 4059 3982 3247 3345 2997 3375 2852 2558 2653 2494 2638 2646 3150 4541 3726 2745 2490
2382 2038 1854 1710 1673 1383 923 1586 2570 2179 2799 3060 3759 3105 3322 2759 2592 3106 3173 2839 2900 2945 3187 3706 3709 3996 4130 3954 4224 3810 3757 3627 3292 2903 2968 3420 2518 2091 2089 2817 3452 3133 3409
2274 2237 2007 1888 1945 1752 1893 1330 1645 2693 2600 3007 2891 3345 3310 3113 2742 2346 2949 3090 3166 2882 3133 3116 3619 3657 3798 4401 4331 4291 4139 4072 3530 3354 2836 2639 2618 2814 3745 3069 2440 2553 3059
1935 2120 2250 2204 2001 2300 2355 2376 2007 2044 2418 2799 3066 3152 3363 3281 2764 2649 2412 2918 3060 3221 3234 3049 3046 3400 3262 3686 3815 4239 4141 4119 3651 3372 3208 2926 2271 2937 2692 2861 2386 2144 2450
1992 2072 2164 2445 2449 2415 2435 2590 2514 2303 2602 2957 3009 3220 3336 3163 2360 1500 1958 1946 2819 2850 2817 2887 3176 2483 2129 1953 1687 1755 2144 3045 3028 3110 2802 2582 2702 3067 2815 2283 2709 2503 3222
2671 2347 2373 2602 2761 2646 2753 2618 2706 2645 2616 3006 3036 3135 3271 3311 2239 844 627 1968 2003 2366 2977 2853 2886 2413 2251 2785 2249 1540 1104 876 1037 2061 2311 2393 2473 2527 3014 3199 3236 3670 3422
2890 3149 2665 2552 2771 3000 2824 2824 2690 2837 2920 2872 3100 3188 3312 3328 2869 1512 0 1360 2151 2434 2527 2380 2570 2542 2456 2974 3469 3294 2678 2336 1675 889 1337 2170 2714 3076 3379 3402 3580 3438 3431
2865 3104 3079 2566 2891 3084 3110 2975 2894 2927 3036 3060 3049 3346 3413 3323 2703 2112 39 816 1461 1998 2099 2146 2512 3049 2999 2378 1598 1823 1819 1914 1890 1669 1966 2720 2582 2498 2505 1530 1566 2334 2972
2684 3134 3513 2899 2931 3106 3218 3170 3171 3265 3192 3171 3232 3404 3491 3687 3215 888 23 1843 1826 1792 2170 2380 2270 2156 2248 2214 1912 2646 2768 2875 3096 3107 3157 2987 1777 842 259 544 1836 2753 3463
3405 2972 3491 3776 3064 3337 3580 3534 3614 3539 3465 3546 3566 3610 4004 3750 3826 1743 0 2062 2128 2205 2120 2091 2331 2173 1625 1148 863 2441 2734 2884 3251 3307 3532 3435 3455 3783 4485 2893 2705 3580 3907
3764 3417 3527 3677 3548 3431 3751 3918 3778 3808 3764 3657 3652 3673 3714 3973 3297 1860 21 186 2160 2338 2144 1963 1934 1562 623 371 10 261 1346 1583 2517 2693 2561 2563 2847 3787 4176 4543 4032 4300 2970
3652 3920 3565 3925 3947 3463 3787 3885 4005 3948 3781 3647 3689 3701 3560 3730 3956 2554 472 0 47 1753 2385 2076 697 713 699 0 0 0 0 565 1691 2281 2668 2916 3391 4038 4311 4042 2833 2345 1290
4204 4194 4024 3991 4001 3840 3719 3771 3938 3927 3919 3673 3409 3494 3490 3102 3056 3534 586 0 0 27 952 1716 1887 1363 818 1295 1861 44 155 1951 2535 2990 3142 3367 4090 3995 4515 3364 2749 1392 1094
2671 4099 4085 3961 3433 3845 3393 3828 3894 3836 3640 3604 3356 3117 3200 3055 2748 2263 2853 1982 1383 922 1639 2054 2233 2248 1913 2087 3072 3709 2604 2528 2885 3218 3467 3675 3990 4068 4490 2284 1925 1188 581
283 960 3083 3317 3401 3319 3440 2948 48 2032 656 1521 2805 2427 459 609 39 47 54 2334 1817 1848 1490 2679 2952 2864 2888 2817 2885 3270 3792 3954 4100 3782 3806 4022 3982 4268 4202 2413 1311 1174 792
0 0 6 297 2734 3189 3256 2988 2877 300 1 20 921 1533 2116 565 549 498 507 441 629 394 3059 3032 3358 3449 3631 3802 3857 4248 3818 3497 3334 3534 4343 4181 3836 3631 2912 2039 1552 1182 1072
1 0 0 0 106 1112 3182 3189 3191 2486 2141 1666 80 25 216 887 807 439 336 725 1791 2035 3549 3808 4028 4099 4135 4433 4106 3893 3505 3584 3801 3837 4075 4166 3669 3042 2515 2017 1617 1512 1412
3 1 0 0 0 1 1612 3160 3256 3332 3201 3014 2883 198 0 2 2 1 120 3028 3349 3538 3630 3335 3211 3406 3759 4492 3965 3641 3462 3760 4322 4435 4264 3902 3374 2758 2388 1996 1824 1434 1289
0 3 0 0 0 0 141 1080 1575 2616 1542 3490 3188 2753 624 12 691 1122 359 1681 2648 2836 3032 3318 3641 3762 3715 3803 4118 3957 4033 4600 4953 4801 4302 3542 3051 2774 2288 1972 1756 1484 914
0 2 8 0 0 2 6 6 244 661 1377 860 1773 1961 1817 1750 2001 2277 2623 2038 2280 2357 3054 3085 3260 3409 3886 5047 4960 3838 3812 4174 4601 4095 3464 2565 2055 1847 1688 1340 1139 1170 1154
0 12 24 0 0 0 0 0 0 228 267 753 1031 699 404 877 404 1672 723 1520 2846 3226 3263 3891 3572 3465 3694 4015 4053 4232 4277 4127 3850 3639 2990 2450 1827 1530 1365 1272 1453 1618 1072
0 0 0 7 1 0 0 0 0 0 0 0 0 78 30 57 152 176 78 1149 756 76 35 17 0 0 26 630 923 1340 2102 2294 3253 3239 2759 2143 1838 1809 1559 1366 1267 1005 572
0 0 0 0 0 0 2 1 0 0 0 0 0 0 0 0 0 0 0 0 0 0 0 0 0 0 0 0 0 0 0 0 0 39 2295 2482 2338 2038 1911 1550 966 783 664
2 7 3 4 2 0 0 3 4 2 0 3 0 0 0 1 0 0 0 0 0 0 0 0 0 0 0 0 0 0 0 0 0 0 0 662 1630 1378 1032 786 766 625 752
5 5 6 6 3 3 4 4 4 4 4 4 5 5 4 6 6 3 0 0 0 0 0 0 0 0 0 0 0 0 0 0 0 0 0 0 67 464 603 402 371 357 359

GFSGL_con_sbcape_081.txt.gz
CAPE
276 460 41 12 833 882 559 126 1236 1091 2018 1905 1705 1839 1968 1857 1965 1863 1516 1529 1987 1709 1578 1789 2116 1607 1611 1324 1707 1944 2098 1179 926 789 1216 1961 1646 1271 1190 1354 1460 1466 1135
422 422 410 10 210 701 489 445 985 1037 1120 1880 1793 1825 1652 1504 1651 1909 1900 1763 1587 1855 2110 1826 1716 2283 2004 1571 1680 1716 1975 1791 1961 1315 1251 1627 1832 2023 1948 2156 2460 3042 1954
737 392 526 368 25 352 317 254 537 1860 1625 2317 1737 1603 1580 1517 1398 1629 1910 1802 1538 1874 2154 2271 2360 2096 2455 2734 2619 2347 2545 2727 2616 2552 2440 2312 2310 1666 1532 1652 2232 2561 2441
940 782 557 449 437 100 90 24 607 1089 1565 1968 2238 1707 1977 1513 1424 1471 2017 2059 1824 1758 2071 1916 2132 2415 2384 2382 2877 2868 2746 2794 2677 2520 2488 2339 2123 2121 2313 1872 1885 1569 1814
1218 1108 877 610 450 550 258 210 0 1302 1019 1181 1762 2084 1958 2116 1931 1536 1464 2031 2040 2042 2032 2062 1937 2009 2581 2586 2666 2913 3238 3092 2994 2881 2640 2343 2097 1674 2003 2080 1577 1451 1842
1328 1340 1139 990 819 758 737 651 206 64 1239 1358 1525 1735 1954 2341 2256 1947 1580 1535 1969 2035 2080 2053 2252 2158 1844 1740 1624 1847 2973 3049 2590 2233 2042 1868 1440 1525 2018 1817 1913 2383 2464
1304 1437 1400 1183 1136 978 1092 1038 1187 654 336 1078 1605 1887 1977 2080 2213 1748 1174 1545 1245 1806 1857 1709 1715 1850 1874 1988 2159 1866 868 341 766 1594 1482 1385 1421 1381 1644 1941 2295 2404 2759
1090 1361 1448 1518 1300 1219 1124 1295 1378 1526 1209 1157 1450 1802 1985 2193 2390 1566 528 804 1234 1091 1312 1858 1902 1808 1571 1486 1477 1644 1614 1246 851 306 431 1175 1345 1478 1764 2116 2227 2487 2549
1620 1368 1487 1456 1605 1570 1256 1336 1476 1513 1670 1391 1552 2008 2060 2087 2085 1860 202 2 590 1140 1246 1210 1276 1401 1485 1591 1186 1113 847 899 1917 1885 1385 891 987 1090 1574 2184 2521 1882 1788
467 2073 1731 1549 1653 1783 1900 1596 1777 1689 1583 1864 1881 1799 2110 2169 2155 1079 188 1350 585 546 1016 1239 1460 1653 1730 2016 1426 1363 1591 1899 1867 2110 1872 689 145 214 382 534 2018 1425 2008
0 32 2482 1884 1694 1908 1999 2045 1902 1946 1868 1746 1856 2017 2062 2070 2461 1776 70 1591 1774 1162 952 920 1187 1337 858 554 465 1090 1263 1364 1510 1771 2132 2499 2686 2706 2604 425 309 1335 2276
0 0 1765 2433 1875 2027 2075 2250 2158 2094 2096 2027 2047 2129 2158 2377 2209 2095 225 72 1778 1685 1406 1396 1286 1291 1316 938 16 23 435 323 1258 1991 2199 2153 1994 1942 2065 3072 2968 2305 2909
0 0 1213 2622 2212 2020 2269 2368 2415 2358 2377 2248 2296 2329 2426 2558 2839 1885 779 0 12 1205 1731 1555 1317 761 118 0 0 0 0 0 360 1058 1407 1524 1724 2022 2288 2708 1893 1302 1001
0 0 1957 2569 2815 2309 2556 2517 2739 2626 2572 2581 2526 2474 2498 2429 2662 3069 662 5 0 0 588 835 144 215 764 1293 674 27 0 0 223 708 1135 1535 2006 2421 2920 2538 1808 1020 647
1 1 575 2566 2474 2908 2724 2743 2748 2811 2836 2660 2604 2607 2413 2626 2520 2564 2865 1800 1069 481 586 834 1275 1287 1478 1572 1328 1505 453 171 896 1424 2011 2438 2848 3097 3061 2720 2263 863 1040
0 5 0 8 610 2887 2794 1907 127 1751 2720 2675 2643 2680 2594 1561 2331 2358 1795 1670 1362 613 252 1359 1363 1500 1569 1598 1518 1205 2220 1582 1570 1843 2350 2710 2863 2892 3024 2101 1268 1309 1058
0 0 2 0 10 124 2292 2769 2601 501 0 6 348 2489 1211 921 160 231 295 0 4 114 1142 1252 1708 1949 1978 1988 1951 1824 1842 2275 2778 2882 2797 2808 3075 3299 3151 2201 1586 1331 1268
0 0 0 0 0 0 0 987 2519 2210 1372 859 1 0 0 177 1 3 0 0 1 138 1551 1688 1902 2218 2370 2488 2599 2650 2756 2694 2574 2484 2450 2593 3108 2969 2656 2421 1712 1726 1539
0 0 0 0 0 0 0 374 1864 2271 1549 1616 84 1 1 1 1 1 1 1864 1539 1404 2067 2526 2711 2819 2897 2788 3045 2887 2777 2679 2675 2769 2926 3044 3099 2667 2439 2103 1871 1671 1521
0 0 0 0 4 1 0 3 62 981 1616 1578 1258 351 1 1 118 191 164 602 1376 2186 2375 2584 2283 2389 2425 2430 3163 2913 2744 2645 2592 2730 3326 3257 2917 2478 2313 2058 1932 1948 1143
0 0 0 0 0 2 2 1 0 5 189 303 415 388 0 234 383 555 516 309 715 1268 1532 1696 1905 1837 1929 2659 2763 3061 3038 3001 3167 3172 3080 2735 2537 2492 2253 2189 1918 1540 1068
0 0 0 7 11 14 10 8 1 0 3 0 0 0 0 0 1 15 2 1 2 1 0 0 0 0 0 0 0 0 1506 2053 2367 3034 2901 2233 1652 1433 1380 1426 1269 1109 980
0 0 0 0 8 4 5 11 5 4 7 5 9 3 0 0 0 0 0 0 0 1 1 0 0 0 0 0 0 0 0 0 0 0 752 1901 1497 1319 1162 1139 1107 1105 1051
0 0 0 0 0 7 17 12 8 4 4 2 2 4 5 4 4 1 0 0 0 0 0 0 0 4 0 0 0 0 0 0 0 0 0 58 1517 1379 1330 1174 1096 972 674
1 3 3 2 2 2 4 3 7 5 5 4 3 2 2 3 4 3 2 0 1 0 0 0 0 0 0 0 0 0 0 0 0 0 0 0 0 0 1302 1462 1387 1040 540
2 2 3 3 3 4 2 3 8 5 3 4 3 2 2 2 2 2 2 2 3 2 0 0 0 0 0 0 0 0 0 0 0 0 0 0 0 0 0 27 130 162 216

GFSGL_con_sbcape_084.txt.gz
CAPE
189 12 0 0 183 317 22 61 785 131 331 811 572 1387 1226 1235 925 1016 1218 935 1099 1035 897 1039 1314 1495 1286 1124 808 1225 1201 636 902 651 426 1272 1249 1294 1662 1505 1405 1396 1500
298 178 0 0 0 536 454 8 103 575 1097 926 768 1224 1270 1042 1071 1005 975 1157 1143 1426 1428 1203 1268 1417 1647 1412 1101 1288 1289 1231 1485 1369 819 1438 1653 1734 1797 1614 1580 1992 1887
255 242 181 0 0 113 562 358 8 282 576 1341 1170 1012 1241 1204 1080 1233 1283 1221 1020 1066 1261 1421 1464 1448 1521 1900 1996 2020 1785 2001 1717 1628 2029 1529 1688 1446 1516 1378 1458 1612 1193
286 170 289 159 0 0 276 127 331 308 554 947 1262 1069 1036 1036 874 780 1054 1139 1057 981 1097 1480 1636 1643 1633 1595 1584 1843 2091 2221 2086 1980 1992 2075 1776 1948 1427 1444 1365 961 1201
342 234 221 343 133 0 0 202 3 441 719 1147 1324 1140 1072 1018 971 729 880 1062 1073 1089 1158 1249 1347 1431 1674 1807 1739 1832 2111 2295 2339 2363 2302 2101 1992 1573 1318 1104 1273 935 1616
554 427 189 333 283 137 0 0 9 0 707 641 1208 1416 1248 1406 1213 949 737 937 1232 1309 1280 1259 1414 1658 1513 1265 1331 1368 2118 2323 2385 2334 2188 2117 1805 908 816 1048 1045 1574 1915
621 747 666 270 366 281 307 12 1 0 0 592 677 937 1283 1567 1630 1257 742 941 858 1153 1251 1267 1253 1574 1656 1587 1584 1253 423 495 1571 1593 1265 1234 1194 1008 785 1046 1182 1416 1683
13 257 832 853 486 379 373 433 210 151 4 0 781 924 929 1000 1265 1193 728 815 1124 868 1024 1270 1279 1265 1045 1077 1056 1109 1141 1127 770 149 127 802 864 910 895 1255 1266 1492 1753
59 5 3 952 855 752 688 658 619 574 510 162 11 593 1187 1307 1201 899 224 692 1014 942 837 603 1049 1221 1266 1114 999 1115 1113 970 952 1315 787 600 641 621 523 1053 1503 1764 1790
0 2 0 1 1170 1100 1004 923 940 928 1059 976 754 584 679 1067 1161 583 42 1261 692 544 546 686 644 758 923 873 803 918 853 925 833 903 1107 559 75 57 153 34 1080 1647 1543
0 2 0 0 190 1397 1226 1089 1052 1144 1108 1233 1289 1115 1131 1325 1546 415 1 1285 1611 1270 712 731 559 724 214 271 290 866 1125 1269 1023 588 923 1241 1521 1828 1854 975 352 1271 1231
1 3 2 4 179 1619 1415 1378 1086 1199 1303 1214 1232 1413 1478 1371 1238 762 5 70 1513 1608 1475 1002 793 529 304 0 0 41 142 33 29 601 1100 1480 1671 1740 1701 1623 1525 498 1173
1 0 0 0 98 1579 1544 1570 1620 1421 1538 1532 1458 1372 1411 1553 1675 742 127 0 10 1053 1664 1567 1202 826 520 9 0 1 0 0 0 105 546 976 1292 1403 1385 1629 1449 1853 1517
1 0 1 0 858 1710 1645 1699 1875 1782 1667 1696 1698 1668 1642 1650 1768 1866 101 0 1 0 385 880 853 165 145 95 3 0 0 0 0 23 211 480 669 1134 1498 1923 2047 1090 1158
1 1 0 2 1 1386 1828 1916 2034 2029 1907 1874 1869 1804 1832 1872 1866 1951 2245 1544 856 319 446 555 540 58 416 245 316 337 128 0 0 33 168 408 823 1296 1844 2152 1945 1082 1691
1 2 3 2 0 2 1248 1498 111 1054 1817 1687 1925 2115 2105 1890 1915 1976 1718 1882 1617 341 1 1147 826 1116 1178 1288 1367 1367 897 615 505 532 655 1044 1456 1974 2200 1853 1736 1699 1784
0 1 3 1 3 3 1 163 1922 433 10 59 726 1610 1657 2214 1432 881 845 417 4 1 1508 878 1259 1174 1224 1274 1268 1201 1133 905 1153 952 1138 1539 1806 1977 1786 1917 1736 1661 1588
0 0 0 1 0 2 4 2 66 1885 1522 1084 44 0 0 0 423 664 0 0 0 1 878 1364 1078 1203 1215 1265 1373 1443 1373 1212 1346 1859 1996 2115 2087 2295 2217 2326 1760 1749 1493
0 0 0 1 0 0 0 1 2 718 1663 1513 50 1 1 2 2 2 1 117 159 27 157 1079 988 971 1308 1553 1696 1900 1887 1968 1978 1863 1926 1872 1954 2073 2153 2159 1907 1498 1297
0 0 0 0 0 0 1 2 1 1 596 1076 736 380 0 0 0 2 1 211 695 531 657 1158 1403 1310 1322 1187 1430 1987 2106 1858 1725 1946 2015 2142 2328 2395 2395 2013 1539 1474 920
0 0 0 1 1 0 3 2 3 3 1 4 2 1 0 71 105 31 17 2 2 0 0 0 0 0 0 0 0 0 343 1776 1679 1855 1971 2359 2577 2282 1933 1696 1555 1377 1410
0 0 0 1 3 2 2 1 3 2 2 2 2 0 0 1 3 5 2 1 2 8 2 1 1 1 0 0 0 0 0 0 0 0 0 1090 1823 1775 1516 1605 1365 1060 992
0 0 0 1 3 2 2 2 1 4 2 2 3 2 2 2 3 7 7 4 3 4 5 8 1 0 0 0 0 0 0 0 0 0 0 0 390 1012 992 978 806 723 734
0 0 0 0 1 3 3 4 3 1 4 3 4 4 1 3 3 9 5 1 0 3 11 12 11 3 1 1 0 0 0 0 0 0 0 0 0 4 330 735 648 637 587
0 1 1 1 1 2 3 3 4 7 5 5 4 11 12 5 5 6 5 7 4 1 0 0 0 0 0 0 0 0 0 0 0 0 0 0 0 0 0 0 262 669 637
1 2 2 2 2 3 3 3 3 7 9 7 5 6 4 4 3 3 4 3 2 2 2 2 0 0 0 0 0 0 0 0 0 0 0 0 0 0 0 0 0 0 0

GFSGL_con_sbcape_087.txt.gz
CAPE
17 55 0 0 57 0 0 0 329 346 152 176 353 1068 992 823 810 726 736 676 899 917 654 725 737 867 1114 981 671 770 752 284 743 656 83 832 1231 1425 1480 1500 1399 1446 1645
25 0 0 0 0 91 0 0 0 350 181 220 374 388 1093 1034 807 751 870 1154 792 761 867 739 827 917 1078 1013 929 941 958 744 1010 1601 957 1368 1487 1506 1552 1551 1197 1324 1112
76 3 0 0 0 0 81 65 0 37 271 607 515 551 844 968 867 810 659 706 794 852 1031 1227 1203 1016 1068 1027 1236 1404 1409 1463 1255 1306 1668 1225 1324 1348 1719 1417 1396 861 821
92 86 25 0 0 0 0 102 168 0 79 337 977 908 739 945 875 818 838 873 876 844 782 874 1079 1186 1289 1313 1207 1270 1265 1434 1505 1540 1561 1638 1478 1475 1068 1385 962 595 874
15 111 124 69 0 0 0 0 51 126 100 96 366 931 781 742 874 806 777 922 919 816 764 769 892 1113 1388 1462 1504 1462 1301 1416 1585 1727 1723 1659 1834 1591 1627 782 783 641 925
200 128 118 104 76 0 0 0 0 6 154 305 436 472 850 981 901 781 666 575 597 659 665 625 829 1160 1090 940 739 756 1009 1328 1603 1664 1794 1857 1708 1149 509 614 594 954 1295
325 233 232 59 128 105 0 0 0 0 0 91 405 723 813 846 1081 650 202 648 563 636 710 770 813 1077 1137 1161 1273 1037 401 215 1002 1627 1513 1259 1100 750 539 549 504 744 947
365 502 413 242 166 213 133 11 0 0 0 0 24 349 730 993 1214 450 73 342 530 550 672 752 788 865 822 975 973 919 805 721 409 57 200 632 585 624 487 708 738 831 979
39 3 3 0 159 322 233 211 174 0 0 0 0 0 206 491 618 822 14 332 741 950 827 619 808 948 933 765 692 795 735 741 691 728 441 307 241 142 67 318 665 928 1289
5 9 9 3 0 33 483 309 298 271 111 57 2 0 0 75 271 22 0 749 840 872 938 691 515 703 871 624 336 760 687 826 635 356 194 102 31 13 6 3 442 1073 994
1 5 7 7 5 0 0 648 503 384 429 406 402 216 11 45 457 54 0 649 965 946 802 803 481 485 69 0 23 621 718 693 417 396 393 350 501 786 984 375 101 711 1093
0 0 0 2 5 28 12 273 871 607 598 662 772 822 709 508 140 54 0 28 959 1047 1200 1084 863 769 243 0 0 0 10 31 10 49 167 404 621 880 1142 1365 1136 496 923
0 4 0 2 3 5 3 219 1136 851 845 890 921 1004 1121 1121 924 295 16 0 2 566 1272 1372 1305 883 450 0 0 0 0 0 0 0 39 222 460 689 843 858 889 1046 995
0 0 0 4 2 3 21 856 1178 1271 907 1076 1177 1087 1088 1114 1310 1399 13 1 1 1 84 507 631 260 17 83 0 0 0 0 0 34 81 67 86 275 551 615 1109 1122 1457
0 0 1 4 3 3 2 691 1451 1503 1398 1149 1269 1334 1245 1288 1287 1327 1461 693 290 100 89 245 708 176 262 223 81 40 10 0 0 0 0 3 75 204 435 721 1296 1036 1696
0 0 0 3 4 5 5 1 394 257 925 961 998 1514 1580 1425 1391 1184 1161 1202 833 186 3 895 1039 966 1132 838 893 697 326 201 134 107 133 246 408 461 683 1052 1460 1420 1741
0 0 0 1 4 5 8 3 2 242 18 2 17 379 1082 1446 1091 1028 838 9 2 1 1191 883 1226 1237 1047 1064 1073 1077 1158 1033 800 613 465 435 484 708 895 1299 1468 1489 1537
0 0 0 0 1 4 6 11 8 54 545 1238 252 1 1 1 14 4 2 1 0 1 603 1397 1240 1224 1167 1044 1039 1045 1010 863 484 682 646 607 799 1125 1304 1479 1519 1894 1799
0 0 0 0 0 1 1 2 1 3 45 615 518 6 1 2 1 2 2 273 653 174 12 469 1036 1368 1094 973 884 883 991 1084 879 879 1146 1307 1409 1526 1635 1770 1830 1623 1247
0 0 0 2 1 1 3 3 3 3 1 9 794 667 1 0 1 0 1 0 208 221 76 96 405 583 617 710 927 1059 1171 1305 1247 1303 1417 1437 1517 1607 1881 1830 1514 1006 797
0 0 0 2 2 2 3 2 2 2 3 1 1 1 1 2 110 131 84 1 0 0 0 0 0 0 0 0 0 0 170 1149 992 999 1138 1269 1538 1708 1726 1529 1269 937 901
0 0 0 1 4 3 2 3 3 2 2 3 2 1 1 0 1 1 1 2 9 2 3 1 1 2 2 1 1 0 1 2 2 4 1 10 700 1278 1194 1188 1107 906 801
0 0 0 0 2 1 2 3 3 3 3 3 3 3 3 2 2 2 3 3 3 4 14 2 2 4 5 4 5 2 2 2 8 2 7 1 48 491 670 991 1071 834 580
0 0 0 0 0 2 3 3 4 1 3 3 3 3 5 4 4 2 2 1 1 4 19 14 2 1 1 2 3 0 1 0 1 6 5 6 2 0 117 452 516 467 473
0 1 1 2 1 2 2 3 4 5 4 3 4 3 2 2 3 4 4 4 3 14 3 3 4 1 0 0 0 0 0 0 0 0 0 0 0 0 0 0 0 0 89
1 2 2 2 3 3 2 2 3 3 3 3 3 2 3 3 3 4 3 2 2 3 3 5 5 2 1 1 0 0 0 0 0 0 0 0 0 0 0 0 0 0 0

GFSGL_con_sbcape_090.txt.gz
CAPE
75 64 14 0 0 0 0 10 293 355 282 271 588 862 901 1026 1035 716 887 906 931 1019 895 1004 1115 993 1471 1442 1238 1112 1165 593 1245 1363 559 1471 2005 2412 2695 2545 2044 2201 1483
51 95 77 0 0 0 0 0 3 244 223 305 242 615 1088 1039 1045 1059 1002 1251 1082 1104 1121 1066 1159 1053 1370 1417 1421 1549 1397 1173 1384 1989 1906 2048 2186 2252 2346 2534 2343 1579 1490
1 0 0 1 0 15 0 0 0 0 101 222 326 427 625 1130 1181 1081 1096 1165 1217 1173 1185 1247 1529 1464 1537 1396 1441 1639 1804 1848 1694 1771 2163 1919 2068 2075 2574 2441 2155 1743 1373
16 0 0 0 0 0 0 0 0 0 0 107 537 639 668 899 1117 1203 1112 1053 1060 1057 1091 1157 1354 1438 1588 1717 1719 1816 1751 1762 1827 1896 2051 2189 2161 2322 1814 1962 2018 1755 1406
40 104 24 1 0 0 0 0 44 0 0 24 152 736 961 912 953 1091 1160 1210 1217 1192 1199 1130 1105 1117 1065 1410 1828 2176 1923 1876 1919 1977 2290 2270 2574 2284 2442 1777 1353 1413 1553
118 102 154 114 30 0 0 0 3 77 52 0 26 235 750 1039 884 722 840 1171 1253 1330 1351 1154 1123 738 832 719 560 674 1337 2051 2045 1945 2390 2333 2556 2064 1726 1317 1295 1577 1969
51 245 194 147 164 74 0 0 0 4 43 91 168 223 312 567 681 517 142 971 960 1014 1053 1065 943 906 772 1276 1084 647 110 20 358 2033 2243 2261 2061 1909 1400 1425 1233 1296 1665
6 219 412 305 218 145 92 0 0 0 3 2 71 248 372 484 320 75 8 501 878 919 952 1004 1060 1187 1136 1178 1321 1431 1406 1388 795 298 867 1408 1556 1573 1275 1433 1470 1267 1368
0 5 4 12 273 308 237 233 46 0 0 0 0 14 197 247 122 113 0 417 695 877 867 895 986 1151 969 467 995 1356 1416 1349 756 474 371 455 271 106 179 728 1050 1157 1624
0 1 6 6 6 10 353 281 249 170 33 0 0 0 0 115 29 0 0 572 738 979 1162 1201 489 983 937 453 675 1286 1361 1496 1376 1142 824 97 30 47 0 70 888 1375 1772
0 0 1 7 10 9 5 10 388 422 369 359 168 74 4 0 0 0 0 617 606 609 824 823 1015 403 75 0 27 1124 1126 1331 1176 819 904 821 851 915 969 375 474 1118 1876
0 0 0 2 24 15 8 4 16 582 606 479 513 447 385 94 0 0 0 3 278 448 540 749 886 493 146 0 0 0 22 4 284 396 595 666 831 899 951 1243 1528 970 1403
0 0 0 0 13 8 7 5 6 169 782 750 597 735 734 791 489 0 0 0 0 272 866 773 760 715 526 0 0 0 0 0 6 161 406 608 679 757 1065 1151 1293 1490 1403
0 0 0 0 2 8 12 11 7 96 726 986 827 880 1079 1114 1226 1104 5 0 0 0 51 267 426 346 0 185 0 1 0 0 17 195 417 519 659 387 707 842 1087 1339 1119
0 0 0 0 0 2 3 7 7 3 559 1076 1090 1133 1204 1176 1265 1249 1102 258 132 19 11 164 622 699 944 869 595 488 300 85 33 149 258 424 304 441 712 975 1192 1359 1326
0 0 0 0 0 3 6 3 2 0 0 2 303 933 1236 1038 1007 821 645 583 344 21 1 656 758 835 790 780 829 1030 758 473 502 553 460 501 582 607 768 1067 1133 1550 1198
0 0 0 0 1 3 5 9 1 2 0 0 3 3 184 1335 549 623 423 1 3 2 855 760 948 1082 860 840 947 927 1161 1251 1114 824 727 826 791 915 671 1036 1032 1097 1300
0 0 0 1 2 4 3 0 8 2 1 7 129 2 2 2 2 3 2 1 0 1 653 1376 1249 1180 1173 1107 1090 1098 1354 1473 1323 1188 1125 965 840 732 635 455 1025 1629 2045
0 0 0 1 2 2 3 4 14 4 5 2 4 23 1 0 1 2 2 202 530 156 21 793 1351 1837 1378 1395 1475 1481 1425 1484 1341 1139 1081 970 822 633 831 1190 1844 1558 1979
0 0 0 4 6 13 10 5 4 4 5 6 8 15 4 2 1 0 3 4 254 807 679 490 807 1001 1363 1562 1408 1372 1341 1181 1127 1124 1167 1420 1246 1153 1564 1897 1882 1839 1099
0 0 0 3 7 7 4 3 4 5 4 3 3 2 1 4 10 16 6 2 4 4 1 0 3 1 0 0 0 1 1 3 22 398 892 1182 1298 1363 1302 1601 1965 1975 1709
0 0 0 1 3 5 3 3 3 4 4 4 2 2 0 3 3 5 7 2 5 4 3 4 9 13 10 4 3 2 0 1 1 2 3 4 3 146 897 1194 1138 938 1102
0 0 0 0 2 4 3 3 3 3 4 4 4 4 3 2 2 2 3 9 4 16 4 3 8 4 6 13 2 3 6 6 2 4 4 6 4 6 49 342 507 355 321
0 0 0 0 0 2 3 3 3 2 3 3 4 3 3 4 4 4 3 3 4 17 4 4 7 15 4 3 2 2 4 1 1 1 1 7 4 0 1 3 13 95 370
0 1 1 1 1 1 3 2 3 4 3 3 3 4 5 4 4 4 3 3 4 6 14 2 3 4 3 5 3 0 0 0 0 0 2 0 0 0 0 0 1 1 0
2 2 2 2 3 3 2 2 3 2 2 2 2 3 4 4 4 3 4 5 10 3 3 3 3 1 1 1 0 0 0 1 0 0 0 0 0 0 0 0 0 1 1

GFSGL_con_sbcape_093.txt.gz
CAPE
766 1055 1115 810 660 768 716 1215 1553 1781 1983 2125 2301 2323 2362 2424 2547 2573 2364 2148 2331 2444 2312 2355 2361 2628 2114 2145 2431 2575 2526 2288 2094 1926 2499 2651 3388 3465 3562 3673 2803 2361 1952
893 1146 877 936 807 669 655 640 1072 1549 1945 2129 2146 2164 2180 2297 2515 2464 2215 1912 2145 2155 2230 2445 2318 2090 2595 2609 2318 2724 2583 2891 2734 2823 2720 2639 2895 3329 3694 3732 3090 2124 2520
677 550 896 839 847 907 841 784 728 1025 1454 1862 2103 2155 2180 2223 2372 2480 2482 2375 2357 2294 2193 2336 2253 2381 2671 2460 2838 2608 2428 2606 2808 2727 2588 2379 2761 2936 2937 2784 2738 2712 1806
549 436 774 917 1064 988 1087 1058 879 879 979 1356 1576 1708 1977 2184 2236 2257 2320 2421 2438 2290 2329 2196 2085 2225 2392 2533 2454 2704 2872 3013 2681 2790 2240 2167 2301 2534 2886 2200 1550 1613 1949
839 711 725 866 908 946 951 1151 1104 996 894 1129 1277 1361 1604 1813 1916 2361 2385 2406 2433 2462 2352 2289 2050 1898 1691 1767 1763 1995 2461 2411 1966 1930 1830 1793 1727 1766 2228 1757 1542 1691 2105
514 731 823 889 812 739 732 754 865 1012 1051 990 1082 1189 1228 1112 617 984 1694 2355 2540 2557 2532 2457 2372 1483 1176 602 470 688 1125 2334 2307 1821 1473 1864 2648 2337 1609 1699 1932 1954 1545
2 29 794 898 921 894 730 653 824 759 857 1024 967 951 1348 1601 514 494 369 2131 2396 2502 2560 2435 2219 1675 1444 1968 1133 281 116 10 372 2145 2388 2277 2785 2359 2419 2580 2413 2401 2221
1 1 1 2 739 1027 958 853 807 671 725 1157 922 939 1101 1158 451 59 0 1484 2316 2325 2362 2350 2317 2283 2215 2066 2184 2129 2158 2019 1902 1300 1763 2221 2397 2454 2564 2508 2356 2346 2108
0 0 1 3 3 7 889 952 953 617 631 633 695 933 1028 1356 185 0 0 624 1182 2251 2060 2115 2373 2476 2103 1169 1748 2026 2155 1944 1232 1147 1027 1173 1192 631 561 1508 1775 1803 1624
0 0 1 1 3 4 6 16 451 792 446 370 430 658 490 1207 650 0 0 414 763 657 1714 2436 1115 1423 1635 576 1462 1968 1925 1792 1605 1637 1891 939 168 698 0 636 1669 1792 1597
0 0 0 0 1 4 10 12 7 181 799 1018 890 840 704 706 843 0 0 647 649 723 539 565 719 234 34 79 87 2276 2001 1869 1454 1933 1899 1749 1660 1731 1833 1591 1718 1780 1631
0 0 0 0 0 3 3 1 5 33 85 161 1125 1096 987 1090 117 25 0 0 350 930 1165 877 1033 559 0 0 0 144 638 580 1381 1498 1458 1256 1338 1479 1595 1848 2200 2098 2024
6 0 0 0 0 0 2 2 6 14 89 159 477 759 1000 1239 1248 0 0 0 0 239 839 746 545 387 0 0 0 0 0 292 1007 1294 1212 1137 1338 1588 2147 2021 2173 2468 2581
15 6 0 0 0 0 0 2 15 13 26 58 131 707 830 1195 1398 1429 135 0 0 0 0 224 432 451 413 703 640 61 89 1190 1391 1361 1294 1358 1662 1945 1950 1878 1851 1868 2028
8 8 3 0 0 3 0 0 1 2 15 14 169 809 940 1144 1555 1481 1504 1206 409 97 221 599 882 1049 1188 1119 1276 1590 1728 1626 1400 1458 1588 1600 1738 1883 1967 1933 1941 1907 1954
13 8 2 0 0 0 2 0 0 0 0 0 0 0 22 833 1019 725 865 947 368 16 0 941 1360 1328 1039 1029 1200 1089 1299 1424 1633 1511 1515 1671 1840 2000 2143 2018 2002 2138 2003
19 4 8 0 0 0 6 0 0 0 5 0 0 3 2 5 81 7 7 0 2 2 640 1240 1557 1313 1111 1033 1045 985 1239 1386 2060 1539 1695 1953 2148 2172 2089 1907 1764 1652 1901
14 0 0 0 0 0 1 3 9 16 15 12 6 2 0 2 0 1 0 1 2 2 405 1128 1648 1384 1485 1299 1088 1017 1200 1290 1931 2124 2194 2333 2319 2121 1582 1489 1306 1224 1180
17 0 4 1 0 0 3 9 10 22 17 4 12 4 1 0 1 1 1 40 308 471 39 349 1004 1679 1908 1925 1863 1444 1280 1599 1920 1995 2477 2456 2172 1732 1320 1170 1154 770 1276
1 0 0 0 0 0 4 21 27 10 12 2 11 8 2 5 4 8 4 4 90 996 1462 389 487 1053 1678 1953 1959 1541 1560 1376 1969 2230 2334 2355 2393 1835 1397 1699 1595 1922 1542
0 1 1 1 0 2 11 26 16 13 9 9 9 5 1 3 4 8 48 5 46 374 2 2 2 4 3 1 1 1 0 1 2 2 3 67 726 1569 1700 1780 1834 1982 2148
3 0 0 0 1 6 7 10 6 7 4 6 7 4 0 7 4 4 4 8 4 2 2 2 5 6 4 11 12 10 6 2 2 1 2 2 4 5 8 359 1068 1344 1785
7 1 0 0 3 2 11 8 5 6 5 6 5 5 5 4 5 5 7 17 14 5 4 5 8 5 10 9 4 6 12 2 5 7 6 3 4 4 5 15 320 591 1092
7 7 7 4 5 5 8 6 5 1 5 5 5 5 5 4 5 5 7 12 6 7 5 21 9 15 10 10 10 5 9 7 12 8 2 4 2 2 5 2 2 3 196
5 7 8 6 3 3 5 4 3 4 5 5 5 6 6 5 5 5 5 5 5 7 6 8 7 5 8 3 2 1 0 1 3 0 2 0 0 0 0 3 3 5 5
4 6 7 7 5 4 5 4 3 3 4 4 4 6 5 5 6 6 7 5 4 4 3 8 9 1 1 1 0 0 0 0 0 0 1 0 1 2 0 0 0 0 0

GFSGL_con_sbcape_096.txt.gz
CAPE
1635 1651 1819 1967 1887 1898 1487 1509 1710 2122 2098 2209 2590 2480 2247 2150 2378 2688 2207 1743 2414 2129 2212 2353 2362 2381 1875 1426 1617 1780 1785 1703 1730 1375 1882 2277 3076 3063 3425 3508 2601 2312 1299
1470 1501 1656 1705 2154 1625 1612 1394 1409 1884 2320 2206 2177 2749 2643 2583 2656 2437 1704 1669 2206 2170 2287 2249 2228 1791 2705 2599 1835 2030 2292 2167 1975 2484 3233 2314 2732 2816 3211 3299 2454 1715 2185
1202 1245 1408 1500 1548 1816 1655 1661 1416 1427 1748 1903 2012 2355 2561 2583 2625 2871 2306 1999 2116 2238 2389 2455 2043 2063 2479 2032 2213 2040 1868 2077 2290 2049 2210 2115 2247 2281 2714 2744 2421 1973 1109
835 1110 1197 1310 1436 1455 2006 1937 1763 1655 1600 1578 1808 2036 2268 2445 2538 2526 2596 2683 2452 2066 2553 2666 2296 1659 2186 2466 2632 2780 2704 2838 3059 2367 2191 1885 1548 2126 2091 1668 1109 936 1246
1127 1116 1234 1676 1440 1300 1557 1544 1773 1864 1764 1724 1545 1483 1719 1833 1925 2563 2523 2512 2836 2819 2587 2726 2301 1502 1091 1348 1487 2623 2428 2184 1955 1617 1418 1137 1039 1266 2009 1288 1064 1046 1864
83 946 1344 1505 1763 1631 1657 1807 1796 1865 1944 1906 1838 1562 1244 871 493 1018 1739 2380 2506 2722 2629 2917 2747 1636 1549 1402 1252 1034 926 2156 2214 1449 664 944 2617 2186 1469 1177 1425 1453 1564
7 8 58 476 1105 1547 1641 1563 1663 1777 1823 1904 1931 1860 1688 1470 317 226 783 1731 1989 2378 2607 2608 2545 1776 2087 2496 871 498 144 56 215 1961 2353 2342 2555 2015 2458 2572 3245 2557 2342
5 6 8 14 3 102 1223 1768 2025 1697 1665 1784 1803 1879 1884 1884 884 35 0 1390 2253 2576 2569 2381 2735 2594 2267 2158 2424 2374 2187 2014 1965 1634 1874 2108 2445 2201 2533 3063 2983 3113 2732
4 1 5 12 12 2 20 278 363 1656 1747 2079 1684 1830 1976 1974 856 260 0 774 648 2238 2427 2967 3084 3121 2395 1791 2334 2271 2280 1801 893 1069 1042 1289 1251 1041 873 1795 1652 1290 861
1 0 0 3 8 9 7 8 20 86 1147 1369 1413 1618 1378 1865 1366 109 0 904 1283 284 1322 2889 1689 1881 2046 1521 2297 2467 2303 1935 1226 1229 1580 1185 566 1313 88 1013 1704 1392 914
4 4 0 0 4 4 35 25 4 9 238 546 907 1443 1563 1412 1578 341 0 1032 1008 1031 651 190 297 304 656 375 205 2889 2516 1851 1279 1300 1672 1534 1576 1507 1681 2006 2630 1826 1207
0 4 7 3 0 0 9 19 8 10 5 487 189 207 812 1584 1205 824 0 2 676 1360 1664 1120 1283 489 0 0 0 259 748 808 1103 219 348 648 757 670 595 1222 3491 3498 2566
0 0 6 13 3 0 0 0 15 1 18 16 328 377 374 563 1284 876 81 0 0 97 1038 1063 873 76 0 0 0 2 0 652 704 344 388 699 720 641 2117 2638 3107 3918 3753
0 0 0 4 8 2 0 0 0 0 0 18 20 138 313 279 610 915 1242 39 0 0 2 56 407 539 653 735 625 68 221 737 728 692 888 986 886 774 693 1192 1586 1636 2005
0 0 0 0 0 3 0 0 0 0 0 0 0 31 11 34 444 0 0 1104 2351 673 320 602 837 888 1139 1290 1199 1179 1298 1259 1026 1236 1352 1366 1253 1004 809 997 1304 1566 1702
0 0 0 0 0 0 0 0 0 0 0 0 0 1 4 0 0 0 0 1 1 0 406 765 1450 1698 1857 1874 1819 1510 1318 1111 1482 1559 1519 1442 1376 1120 712 775 1170 1553 1676
5 1 1 1 0 0 2 0 0 0 0 0 0 0 2 0 2 2 1 1 0 1 673 1553 1484 1702 2010 2226 2238 1477 1541 1646 2369 1473 1177 1201 1089 753 688 1038 1371 1730 1939
13 0 5 9 3 1 1 0 0 0 0 0 0 0 0 0 1 0 2 0 3 1 626 1468 1740 1839 2188 2053 1605 1606 1690 1459 2028 1957 1219 1048 1038 1051 1230 1469 1610 2016 2623
29 16 11 14 16 5 3 0 0 0 4 6 5 0 6 0 0 0 1 8 40 540 28 317 1363 1835 2489 2858 2415 2139 2062 1929 1690 1899 2022 2393 2357 2213 1891 1800 2350 1941 2051
37 25 25 25 24 25 17 6 0 2 3 5 1 13 12 4 5 8 3 6 11 619 886 422 550 1020 1492 2109 2290 2621 2603 2082 2289 1940 1915 2565 3038 2939 2615 2412 2426 2436 2543
11 25 37 36 39 38 34 14 7 1 3 7 1 3 0 5 7 10 8 9 2 9 59 787 278 6 2 2 3 29 258 1362 1544 2008 1991 1056 1509 1831 2154 1924 1715 1932 2054
5 8 23 37 47 47 45 17 8 9 3 3 2 1 0 5 10 9 9 4 3 5 4 4 2 3 4 5 8 6 5 2 2 3 4 4 2 3 4 52 125 516 1220
17 12 10 29 22 32 18 6 4 7 6 10 6 2 4 5 7 6 6 8 8 6 8 3 3 3 4 6 7 4 5 4 4 5 6 7 5 6 8 32 114 499 1078
13 7 3 8 10 14 25 9 6 0 3 6 7 6 7 6 6 5 4 6 6 5 7 5 3 4 4 3 3 3 2 1 1 7 10 18 17 9 12 14 9 5 6
13 13 14 13 10 11 9 2 3 11 8 7 8 7 5 5 4 5 5 4 6 7 5 4 5 4 3 2 2 0 0 1 1 0 3 6 2 3 5 6 2 5 0
15 11 10 11 10 10 8 9 10 9 7 7 8 7 5 4 5 5 4 4 6 4 3 3 9 4 3 1 0 2 1 0 0 0 0 0 0 0 0 0 0 0 0

GFSGL_con_sbcape_099.txt.gz
CAPE
2522 2455 2983 2519 2472 2615 2145 1828 1822 2229 1889 2119 2340 2040 2048 1783 2024 2736 2930 2520 2574 2648 2473 2229 2426 3448 2081 1304 1345 1417 1570 1645 1703 1780 1776 2550 4352 4560 3534 4103 2853 3432 1071
2000 2346 2224 2337 2337 2341 2373 1957 1914 2380 2441 2136 2495 2701 2400 2243 3004 2278 2079 1371 1906 1942 1850 2380 2123 1858 3727 3906 1927 3504 2288 2985 1789 3405 2641 2372 3781 4077 4591 4798 2754 1921 1533
2123 2013 2126 2269 2297 2181 2258 2217 2167 2625 2518 2142 2735 2944 2415 2634 2993 3048 2742 2129 2102 2247 2090 2094 1892 2403 3242 2587 3377 2608 1855 2374 2943 2403 2265 1884 2243 2339 2694 3696 4071 3103 1168
1109 1280 2517 2478 2347 2125 2046 2257 2408 2616 2668 2792 3198 3158 2664 2487 2300 2229 2854 3381 2863 2110 2246 2174 2321 2227 2860 3623 3187 4199 3442 3013 2601 2281 2180 2010 1759 2577 2096 1768 1669 1278 989
455 1491 1545 2132 1696 1901 2050 2069 2132 2908 2561 2596 2806 2612 2350 2161 1702 3008 2985 3004 3587 3339 2918 2605 2501 1823 1192 1737 1554 3126 3891 2816 1767 1690 1558 1224 922 1689 2214 1315 1615 1150 1757
8 11 205 1268 1418 1905 1818 2537 2622 2256 3155 3131 2714 2554 2450 1077 215 689 1370 2683 3222 3619 3520 3597 3549 1790 1185 944 847 860 1099 2354 3770 1375 701 890 3308 1904 1180 1129 1575 1170 1415
0 3 8 12 48 1179 1692 1993 2173 2722 2563 2896 3098 2822 2896 2917 1144 23 311 1730 2593 3419 3380 3912 2671 1467 2125 2829 1325 965 800 431 366 2367 3109 3048 3229 3616 3561 4022 2964 3262 2439
1 0 0 9 12 11 57 1556 1692 2214 2292 2600 2505 2786 2803 2850 1576 762 8 1202 2286 2890 3135 3433 3532 3651 3630 3305 3402 2983 2836 2740 2306 1280 1858 2488 2987 3325 3605 3249 4295 4655 3306
15 7 0 0 5 8 16 12 232 1340 1493 2189 2131 2427 2662 3113 1799 829 111 1165 1125 1977 2657 3080 3445 3769 3191 2278 2906 3556 3707 3213 1234 1825 1980 2342 2356 1626 1258 1708 1379 1234 1096
3 10 11 5 0 0 4 10 9 11 562 700 1227 2085 1881 2448 1932 1039 6 1434 1803 1329 1916 2164 1196 1667 2460 2228 2876 3431 3508 3390 2944 2175 2320 1003 452 1082 318 994 1593 1378 1187
0 0 1 12 8 0 0 5 12 12 14 13 257 686 1633 1993 2138 1306 48 1855 1720 1458 1527 1548 1074 493 604 731 399 3245 3113 3143 2935 2796 2180 1584 1188 1680 2511 2691 2841 2087 1625
0 0 0 0 2 2 2 0 0 8 15 11 4 266 620 1456 1333 1392 74 24 1255 1802 2010 1612 1787 381 0 0 0 462 917 1311 1847 1441 1015 546 470 528 745 1545 3674 3634 2788
0 0 0 0 0 0 3 0 0 0 0 11 37 72 422 1608 844 377 201 0 0 124 1574 1466 408 0 0 0 0 0 0 417 1055 1110 1201 999 664 482 1461 2282 3449 4691 4717
0 0 0 0 0 0 0 0 0 0 0 0 0 0 95 229 939 780 736 549 59 1 12 145 260 124 0 2 222 37 10 681 1083 1386 1527 1391 970 718 930 1152 1171 1119 1498
0 0 0 0 0 0 0 0 2 2 0 0 0 0 0 0 31 0 0 0 4 4 0 1 939 1232 1162 1300 1706 1938 2055 1523 1281 1339 1499 1448 1182 1282 1443 1387 1245 1103 1331
5 0 0 0 0 0 0 0 0 0 0 0 0 0 0 0 0 0 0 2 1 0 5 4 457 1243 1717 1862 1964 1937 1784 1568 1986 2015 1785 1543 1525 1735 1825 1822 1605 1280 1291
22 10 1 0 0 0 0 0 0 0 0 0 0 0 0 0 0 0 2 0 2 1 2 9 242 1102 1449 1961 1784 1765 1968 2363 2482 1976 1953 2079 2068 2212 1715 1529 1599 1310 1271
25 12 19 2 0 0 2 4 2 1 1 0 0 0 0 0 0 2 0 0 0 1 1 4 50 1111 1485 1829 2190 2232 2131 2371 2023 2112 2562 2283 1976 1549 1326 1349 1199 1176 1384
26 19 17 18 12 2 3 7 4 8 7 0 0 0 0 0 0 0 0 3 10 4 10 14 308 1888 1709 1551 1918 2652 2769 2517 1892 1548 2086 2400 2405 1789 1309 1315 1309 639 803
16 15 10 37 22 9 21 20 11 11 9 5 0 3 13 0 0 0 0 10 14 5 6 54 545 581 903 636 786 857 2322 2141 1565 1563 1846 2138 2391 2500 1930 1894 1969 2273 2172
20 12 6 4 12 48 42 28 14 17 18 21 21 6 0 0 0 0 8 4 3 5 4 5 3 6 1 4 3 1 12 134 342 709 1114 1602 2005 2199 2368 2404 2316 2634 2398
11 11 11 4 4 44 60 57 61 52 37 41 32 19 0 0 0 5 6 9 10 10 7 7 6 6 3 3 3 1 1 3 5 5 3 3 3 28 211 489 682 334 619
19 17 13 14 21 9 33 40 27 44 32 44 51 45 27 9 4 5 5 7 8 6 6 5 7 6 4 3 3 3 4 2 4 4 7 5 6 6 5 11 35 83 176
12 17 14 12 10 5 5 5 0 4 1 2 11 11 6 1 4 6 7 7 6 5 4 4 5 4 3 2 1 1 3 4 2 2 5 3 7 12 16 15 28 24 12
14 11 10 8 10 9 9 4 6 5 3 7 3 6 12 7 7 6 7 6 5 4 3 4 3 3 3 1 1 1 0 1 0 0 1 3 5 2 5 21 8 11 6
12 18 17 14 10 12 17 15 11 10 12 6 5 7 8 8 7 6 6 5 4 4 3 2 2 1 0 0 0 0 0 0 0 1 0 0 1 3 0 9 0 0 0

GFSGL_con_sbcape_102.txt.gz
CAPE
3055 3084 3033 2990 3135 3413 3065 2930 2674 3115 838 0 0 204 2750 2930 3016 3348 2815 2563 2356 2692 3250 3041 3569 3718 3195 2847 3180 3111 3010 3190 3096 3107 2591 2793 2804 3531 4417 4150 4182 3267 607
1118 2532 2805 3311 3223 3151 3177 3025 3021 3071 2814 1513 408 1918 2256 2932 2864 3411 2698 2494 2627 3059 3293 3086 3203 2540 3760 3510 3040 2787 2834 3110 2541 2410 2773 2599 3731 3809 4996 4176 4303 2415 2108
1587 1442 2394 2943 2569 3433 3555 3399 3138 3199 3196 3127 3371 3295 3174 2509 2804 3049 3149 3123 2872 2795 3240 3005 3096 3238 3474 3043 3648 3312 3162 3564 3552 3359 3303 2623 2628 3363 3372 3907 3956 3960 1447
283 307 1179 2356 2648 2851 3239 3321 3469 3434 3184 3262 3590 3595 3465 3188 2843 2606 2698 2810 3024 2837 3190 3189 3151 3197 3290 3697 3528 3400 3186 3209 2890 3058 2469 2544 3218 2992 3631 2048 1346 1994 2320
12 7 26 184 1403 1808 2669 2483 2800 3216 3157 3158 3287 3356 3408 2963 2102 2903 3045 2907 2560 2912 3060 3232 3236 2887 2300 2790 2462 2968 3011 3350 2747 2422 2126 1774 1579 2207 1816 1640 2059 2144 1285
2 2 9 12 18 25 887 1814 2483 2658 2823 3228 3072 2992 2722 2089 699 666 2183 2520 2751 2794 2632 3145 3643 2850 1823 794 666 607 669 2158 2593 2976 1706 1440 2266 2820 2012 2161 2034 1565 1771
0 0 0 8 12 9 5 35 1430 2032 2206 2776 2714 2795 2858 2907 1700 452 2 1367 2273 2819 3054 2917 2556 1803 1955 2390 667 520 466 279 385 1179 1732 2086 2013 1993 2458 2825 2722 2817 2269
0 0 0 0 0 0 3 1 3 208 1621 2036 2478 2574 2476 2541 2165 1526 697 1092 1755 2277 2274 2704 3287 2805 2599 2606 3045 2905 2016 1873 1160 362 605 839 1107 1408 2225 2204 2183 2719 2888
1 5 13 8 0 0 0 4 1 3 26 856 1546 1781 2309 2377 2008 857 157 1482 1651 1653 1441 2084 2301 2401 2792 2598 2233 2774 3112 3150 2484 2175 1703 1121 934 952 1429 1973 1633 1210 868
0 0 0 2 12 1 0 0 3 1 3 0 86 1143 1617 2092 1710 1477 215 1444 1955 1826 1890 1745 1022 1143 1446 1735 1714 2695 2327 2195 2202 2288 1816 476 241 375 196 465 1320 1057 981
0 0 0 0 0 15 7 4 0 0 0 3 1 156 510 1194 1826 1307 173 638 1936 1969 1835 1674 1618 1119 575 156 7 1707 2142 2178 2140 2142 2316 2085 1702 1480 1691 955 747 832 1006
0 0 0 0 0 0 1 18 9 1 0 0 15 15 72 517 1031 932 897 32 615 1298 1548 1639 1673 4 0 0 0 0 82 248 1488 1577 1551 1302 989 691 501 688 1772 1807 1640
3 0 0 0 0 0 0 0 4 6 1 0 0 0 0 234 534 428 19 0 0 0 85 321 0 0 0 0 0 0 0 0 224 722 895 863 767 609 461 591 689 3231 2503
2 3 1 0 0 0 0 0 0 0 0 0 0 0 0 0 0 0 0 0 0 0 0 0 0 0 0 0 19 153 48 0 151 296 336 388 542 729 722 453 97 42 2336
2 2 0 0 0 0 0 0 0 0 0 0 0 0 0 0 0 0 0 0 0 0 0 0 0 0 593 1149 1021 919 772 456 142 296 387 540 748 943 838 548 247 294 819
4 0 0 0 0 0 0 0 0 0 0 0 0 0 0 0 0 0 0 0 1 0 0 2 4 6 111 702 980 1379 1290 852 1182 1083 901 829 826 822 828 806 762 680 634
14 10 10 5 3 0 0 0 0 0 0 0 0 0 0 0 0 0 0 2 1 0 0 0 2 5 9 248 709 1069 901 1044 1398 1548 1441 1407 1075 933 697 652 728 786 788
10 1 8 17 7 12 3 0 0 0 0 0 0 0 0 0 0 0 2 1 0 0 0 0 9 13 19 99 350 822 924 858 1122 521 185 503 781 1261 1268 1069 1031 1152 938
12 8 8 8 11 0 0 0 0 4 4 6 7 1 0 0 0 0 1 0 0 2 1 2 10 11 21 85 627 730 964 863 509 686 683 823 91 935 916 870 906 460 439
12 11 4 4 12 19 12 8 8 0 13 17 11 0 2 0 0 23 24 0 4 3 1 2 5 4 4 3 150 655 665 687 486 144 64 104 302 1051 1158 1120 1093 1021 1050
9 0 2 10 1 16 18 31 19 10 21 11 1 2 0 40 58 31 19 0 0 1 2 0 2 8 7 5 6 3 2 9 9 13 16 2 72 367 716 742 863 925 857
10 8 13 11 6 13 23 31 12 19 26 33 3 5 0 14 41 53 22 0 0 1 8 9 7 9 11 6 5 2 2 4 3 3 1 3 1 1 1 1 47 593 375
6 12 18 16 10 19 16 17 21 18 5 14 24 4 13 9 0 0 0 0 1 3 5 8 12 8 7 5 4 5 3 2 2 1 2 4 3 4 4 3 3 12 51
2 4 12 14 15 6 3 2 25 7 6 10 2 0 0 0 0 0 0 0 2 4 7 6 8 9 4 3 3 1 1 0 1 2 3 5 5 7 7 6 3 9 3
5 3 8 12 18 19 19 10 9 10 9 2 4 11 6 0 0 0 1 3 4 6 4 5 6 4 2 0 0 0 0 0 0 0 2 4 4 5 6 4 8 5 3
5 8 4 5 16 20 20 15 9 11 12 10 10 10 9 9 5 4 3 5 6 5 4 3 2 1 0 1 0 0 0 0 0 0 0 0 1 0 0 0 0 0 0

GFSGL_con_sbcape_105.txt.gz
CAPE
0 242 1822 1658 1664 1816 1655 1450 734 547 373 42 22 64 340 1542 1586 1598 1496 1213 1429 1680 1617 1651 1522 1994 1902 1681 1908 1587 1495 1855 1300 1105 1498 1080 1852 1790 1893 3205 2633 2863 1113
0 43 807 1868 1650 1761 1809 2042 930 652 477 84 0 0 230 1354 1488 1413 1135 1286 1382 1317 1589 1853 1527 2044 1555 2071 1596 1771 1592 1592 1408 1311 1564 1971 2422 1597 1561 2960 2669 2938 1258
89 36 545 1452 1839 1665 1912 1994 1826 1366 743 160 67 611 1036 1299 1587 1780 1879 1619 1400 1550 1609 1756 1603 1399 1614 1737 1626 1600 1654 2012 2006 1852 1760 1754 1530 1595 2182 1352 611 1235 440
1 5 81 60 515 1182 1799 2211 2389 1972 1834 1806 1532 1762 1370 1655 1370 1421 1586 1691 1788 1659 1757 1754 1877 1760 1693 1691 1840 1571 1573 1712 1544 1625 1622 1455 1608 1616 1034 680 817 1067 621
0 1 5 3 1 78 499 1092 1521 1865 2111 1909 2001 2293 2150 1983 1688 1755 1646 1665 1557 1428 1412 1883 2113 1957 1839 2013 1928 1874 1816 1784 2070 1941 1381 629 412 929 1354 1082 888 984 626
0 2 3 14 2 3 12 1 739 1188 1211 1595 1830 1797 1980 2122 1736 1405 1511 1552 1774 1259 1223 1295 1660 2236 2246 1882 1284 1505 1163 918 620 707 867 984 737 889 1052 971 1669 1375 1386
0 0 0 2 4 4 3 2 5 10 500 951 1179 1473 1737 1818 1796 1114 0 451 1534 1898 1655 1542 1489 1473 1282 1283 1660 51 0 0 198 107 105 175 553 578 590 748 781 1133 1306
0 0 0 0 0 0 3 3 2 3 10 133 639 1063 1368 1507 1618 1643 140 0 337 568 983 1406 1572 1250 1148 1363 1919 1992 1374 587 264 9 52 163 71 150 244 526 803 1116 1275
0 0 0 0 0 0 0 0 0 0 0 4 14 0 269 1116 1335 877 1 132 464 724 719 772 1160 1295 1572 1905 1468 1385 1588 1956 1971 1063 450 292 230 119 222 1162 1497 1300 1147
0 0 0 0 0 0 0 0 0 0 0 0 0 0 0 63 597 723 0 87 910 764 1116 1077 915 622 573 1119 946 1167 1432 1647 1501 1647 716 151 19 59 15 29 530 651 880
0 0 0 0 0 0 0 0 0 0 0 0 0 0 0 10 7 258 272 0 358 783 941 1181 1103 574 6 0 0 128 500 377 686 978 1256 1299 1277 1037 542 221 138 732 916
0 0 0 0 0 0 0 0 0 0 0 0 0 0 0 0 42 2 0 1 0 3 215 608 385 2 0 0 0 0 0 0 0 1 438 751 932 1011 893 662 599 233 338
0 0 0 0 0 0 0 0 0 0 0 0 0 0 0 0 0 0 0 0 0 0 0 0 0 0 0 0 40 0 0 0 0 0 0 105 214 414 577 258 24 8 482
0 0 0 0 0 0 0 0 0 0 0 0 0 0 0 0 0 0 0 0 0 0 0 0 0 0 0 0 0 13 26 90 20 10 8 58 123 158 291 377 379 342 204
0 0 0 0 0 0 0 0 0 0 0 0 0 0 0 0 0 0 0 0 0 0 0 0 0 0 0 0 0 188 674 559 283 57 127 207 253 197 182 285 394 455 371
0 0 0 0 0 0 0 0 0 0 0 0 0 0 0 0 0 0 0 0 1 1 0 0 0 0 0 0 0 0 92 551 596 482 260 234 263 298 378 509 624 566 434
0 0 0 0 0 0 0 0 0 0 0 0 0 0 0 0 0 0 0 0 0 1 0 0 0 0 0 2 9 9 10 103 332 509 587 618 711 685 472 392 441 436 491
0 0 0 0 0 0 0 0 0 0 0 0 0 0 0 0 0 0 0 0 0 0 0 0 0 7 4 9 22 17 10 6 138 567 572 366 43 0 0 0 0 0 3
0 0 0 0 0 0 0 0 0 0 0 0 0 0 0 0 0 0 1 0 0 0 0 0 0 4 9 16 6 10 11 10 147 325 316 353 108 0 0 0 0 0 0
0 6 1 0 0 0 0 0 0 0 0 0 0 0 0 0 0 0 0 0 0 0 0 0 0 3 3 6 8 11 13 15 8 9 116 293 70 1 1 0 0 0 0
0 0 0 0 0 0 0 2 3 3 2 0 0 0 0 0 0 0 0 17 0 0 0 2 4 5 7 7 10 16 16 12 1 1 3 4 11 0 0 4 21 21 17
0 0 0 0 0 1 3 4 9 6 2 1 0 1 0 0 0 0 0 0 0 0 0 0 0 3 5 6 8 6 7 9 8 8 3 5 6 5 6 6 4 3 38
0 0 0 0 0 0 0 2 2 3 3 6 3 1 5 0 0 0 0 0 0 0 0 0 1 2 3 6 4 4 6 4 6 4 3 3 3 2 5 2 5 3 5
0 0 0 0 0 0 0 0 8 4 7 3 8 9 3 2 0 0 0 0 0 0 0 1 2 3 3 3 3 2 2 3 0 1 2 3 3 4 6 5 3 3 3
0 0 0 0 0 0 0 0 7 12 11 12 9 2 2 6 7 2 1 0 0 0 1 0 0 1 1 2 1 1 0 0 0 0 2 3 4 4 4 6 6 7 3
0 0 0 0 0 0 0 5 9 8 13 17 12 10 15 6 8 9 4 0 0 0 0 0 0 0 0 0 0 0 0 0 0 0 0 2 3 5 5 1 1 0 0

GFSGL_con_sbcape_108.txt.gz
CAPE
0 60 170 572 1114 977 1177 894 784 371 241 16 453 296 826 1166 1188 1043 654 1276 971 1092 1149 1142 1012 1435 1665 1002 1222 1011 962 1033 1079 818 730 939 1510 1570 1402 1340 2167 2455 932
0 11 150 530 754 1239 1247 808 613 456 178 0 33 1 6 479 960 1160 1111 1275 808 1024 1047 1134 1299 1234 1396 1271 1395 1515 1541 1214 1435 1479 1156 1252 1445 1280 1222 1270 572 984 863
67 40 42 228 877 1172 1137 1159 599 439 356 19 0 0 0 204 1106 1155 1033 773 1016 915 787 979 1242 1080 952 925 1082 1001 885 1150 1401 1313 1136 1154 1068 1146 1051 387 358 604 171
10 16 34 1 4 197 526 724 972 701 411 353 60 0 89 582 900 1165 1334 1439 1357 1153 1107 1265 1348 1338 961 826 975 1132 940 998 1133 1241 1323 1160 874 508 498 611 680 305 608
0 1 12 2 0 0 1 1 407 860 1116 1027 717 614 1052 931 1199 1082 992 1077 1133 1204 1235 1222 1355 1534 1538 1407 1527 1438 1365 1328 1113 1456 1221 632 588 433 593 745 463 514 422
0 2 1 1 0 1 0 2 2 19 590 843 1110 1361 1497 1822 1733 1433 1302 1232 1104 1134 1104 922 785 1176 1489 1674 1510 1250 1184 1109 945 464 292 293 57 66 363 449 373 369 535
0 0 0 0 0 0 1 0 1 3 16 71 344 680 1171 1314 1521 1264 198 117 661 1036 1178 926 883 1118 1181 1105 951 1181 423 17 256 179 92 4 1 0 28 83 72 194 346
0 0 0 0 0 0 0 0 2 4 7 10 0 0 21 455 423 132 0 0 18 47 173 647 1119 1262 981 781 858 1074 1240 1223 359 1 1 73 1 24 1 37 109 337 470
0 0 0 0 0 0 0 0 0 3 1 0 2 0 0 9 13 14 1 46 313 418 419 388 512 700 954 1270 981 1084 1037 987 1269 1140 331 230 106 49 6 177 410 605 636
0 0 0 0 0 0 0 0 0 0 0 0 0 0 0 0 0 1 1 0 183 452 571 666 510 0 0 0 0 527 750 735 679 956 1157 557 140 17 1 4 398 439 384
0 0 0 0 0 0 0 0 0 0 0 0 0 0 0 0 4 0 1 0 15 141 407 620 296 0 0 0 0 0 0 0 0 0 7 356 789 747 381 60 8 243 434
0 0 0 0 0 0 0 0 0 0 0 0 0 0 0 0 0 0 0 0 0 0 0 0 0 0 0 0 0 0 0 0 0 0 0 0 68 287 611 795 562 133 342
0 0 0 0 0 0 0 0 0 0 0 0 0 0 0 0 0 0 0 0 0 0 0 0 0 0 0 0 0 0 0 0 0 0 0 44 43 29 28 120 201 294 331
0 0 0 0 0 0 0 0 0 0 0 0 0 0 0 0 0 0 0 0 0 0 0 0 0 0 0 0 0 0 0 0 0 2 41 43 11 2 14 18 85 154 112
0 0 0 0 0 0 0 0 0 0 0 0 0 0 0 0 0 0 0 0 0 0 1 0 0 0 0 0 0 0 0 0 174 204 137 77 111 112 115 92 36 81 120
0 0 0 0 0 0 0 0 0 0 0 0 0 0 0 0 0 0 0 0 0 0 0 0 0 0 0 0 0 0 0 0 4 31 144 190 180 198 221 247 143 168 230
0 0 0 0 0 0 0 0 0 0 0 0 0 0 0 0 0 0 0 0 1 0 0 0 0 0 0 7 1 2 8 5 6 14 15 73 271 382 277 246 305 304 364
0 0 0 0 0 0 0 0 0 0 0 0 0 0 0 0 0 0 0 0 0 0 0 0 0 0 0 0 0 0 1 3 3 8 13 23 84 196 169 82 209 208 23
0 0 0 0 0 0 0 0 0 0 0 0 0 0 0 0 0 0 1 0 0 0 0 0 0 0 0 1 1 2 9 11 4 10 14 16 16 28 28 15 7 0 0
0 0 0 0 0 0 0 0 0 0 0 0 0 0 0 0 0 0 0 0 0 0 0 0 0 1 2 3 2 3 1 0 5 8 9 16 16 18 12 42 8 2 0
0 0 0 0 0 0 0 0 0 0 0 0 0 0 3 0 0 0 3 0 0 0 0 0 0 0 2 2 1 1 7 8 8 9 9 8 16 12 16 5 14 8 15
0 0 0 0 0 0 0 0 0 0 0 0 0 0 0 0 2 7 2 0 0 0 0 0 0 0 2 2 0 2 1 4 4 6 9 10 7 8 12 15 2 8 11
0 0 0 0 0 0 0 0 0 0 0 0 0 0 0 7 24 15 11 1 0 0 0 0 0 2 0 0 0 0 0 2 4 6 6 6 5 6 8 10 11 2 4
0 0 0 0 0 0 0 0 0 0 3 2 2 6 6 8 1 5 5 12 0 0 0 0 0 2 2 3 2 2 0 0 1 1 2 2 3 4 5 7 11 12 10
0 0 0 0 0 0 0 0 0 0 3 3 5 12 11 13 6 2 8 13 7 0 0 0 0 0 0 0 0 0 0 0 0 0 1 1 2 3 3 4 6 11 13
0 0 0 0 0 0 0 0 0 0 0 5 11 8 8 12 15 13 9 12 11 2 1 0 0 0 0 0 0 0 0 0 0 0 0 1 1 2 4 4 5 9 11

GFSGL_con_sbcape_111.txt.gz
CAPE
71 84 182 449 599 177 28 0 130 215 168 442 431 765 907 912 783 834 648 551 817 678 883 893 878 789 1378 783 997 800 944 805 1272 970 392 738 1013 1145 862 648 627 591 374
3 54 69 105 256 695 751 857 687 417 118 73 63 107 335 492 822 1050 948 924 923 669 652 642 770 1012 836 774 980 1031 1107 810 1008 1008 818 861 1325 1002 791 439 267 383 167
18 49 20 1 241 591 869 942 645 413 229 56 0 17 0 74 444 808 836 834 698 712 739 507 710 861 850 503 506 715 617 752 891 1003 945 752 872 683 578 317 295 118 285
6 51 4 1 5 126 417 498 666 451 267 188 15 0 0 0 77 714 977 968 856 912 929 885 1017 1111 1129 912 727 816 816 765 661 767 825 857 593 196 242 228 230 6 140
22 44 40 2 1 1 4 5 46 228 564 470 286 99 32 97 203 556 742 847 939 1014 1003 1041 1081 1080 1194 1196 1309 1426 1081 1006 966 788 778 358 152 25 0 57 171 3 39
6 1 2 0 3 3 1 0 0 0 0 93 437 865 763 1074 1159 934 850 781 779 824 869 823 721 746 777 902 835 903 988 1209 978 556 323 174 24 0 0 41 14 40 146
0 0 0 0 0 2 1 0 1 1 0 1 1 0 70 281 2 1 0 141 586 644 694 750 758 970 769 672 822 479 177 78 380 508 309 26 0 0 0 0 0 0 25
0 0 0 0 0 0 0 0 0 0 1 4 3 3 0 17 0 1 0 0 25 57 52 128 370 562 652 754 688 574 559 609 433 3 0 13 0 0 0 5 23 0 38
0 0 0 0 0 0 0 0 0 0 0 0 0 0 0 0 0 0 0 0 55 84 100 210 226 282 134 10 61 389 490 532 617 716 268 13 4 0 0 0 82 148 652
0 0 0 0 0 0 0 0 0 0 0 0 0 0 0 0 0 1 1 3 36 94 165 240 2 1 0 0 0 0 34 196 76 0 0 8 192 48 3 0 68 303 406
0 0 0 0 0 0 0 0 0 0 0 0 0 0 0 0 2 0 0 0 1 9 33 103 1 1 0 0 0 0 0 0 0 0 0 0 0 47 217 20 0 146 342
0 0 0 0 0 0 0 0 0 0 0 0 0 0 0 0 0 0 0 0 0 0 0 0 0 0 0 0 0 0 0 1 0 0 0 0 0 0 5 210 342 32 205
0 0 0 0 0 0 0 0 0 0 0 0 0 0 0 0 0 0 0 0 0 0 0 0 0 0 0 0 0 0 0 0 0 0 0 0 0 0 0 0 0 157 277
0 0 0 0 0 0 0 0 0 0 0 0 0 0 0 0 0 0 0 0 0 0 0 0 0 0 0 0 0 0 0 0 0 0 1 0 6 0 0 0 0 0 0
0 0 0 0 0 0 0 0 0 0 0 0 0 0 0 0 0 0 0 0 0 0 0 0 0 0 0 0 0 0 0 0 0 3 12 15 10 34 60 45 2 3 0
0 0 0 0 0 0 0 0 0 0 0 0 0 0 0 0 0 0 0 0 0 0 0 0 0 0 0 0 0 0 0 0 1 1 1 7 10 13 23 57 100 66 61
0 0 0 0 0 0 0 0 0 0 0 0 0 0 0 0 0 0 0 0 0 0 0 0 0 0 0 0 0 0 0 0 0 0 7 4 6 10 16 46 47 36 48
0 0 0 0 0 0 0 0 0 0 0 0 0 0 0 0 0 0 0 0 0 0 0 0 0 0 0 0 0 0 0 0 0 1 0 3 17 13 10 15 17 18 10
0 0 0 0 0 0 0 0 0 0 0 0 0 0 0 0 0 0 0 0 0 0 0 0 0 0 0 0 0 0 2 3 2 4 4 3 0 3 10 11 15 14 14
0 0 0 0 0 0 0 0 0 0 0 0 0 0 0 0 0 0 0 0 0 5 3 0 0 0 0 0 1 2 2 1 0 0 2 4 6 4 2 5 6 10 14
0 0 0 0 0 0 0 0 0 0 0 0 0 0 0 0 0 0 2 10 1 12 0 0 0 0 0 1 0 4 5 4 2 0 0 0 1 5 7 0 0 5 12
0 0 0 0 0 0 0 0 0 0 0 0 0 0 0 0 0 1 3 5 32 20 0 0 0 0 0 1 3 4 4 4 2 1 1 0 0 0 2 6 5 2 10
0 0 0 0 0 0 0 0 0 0 0 0 0 0 0 0 0 1 3 6 2 3 19 0 0 0 0 0 0 0 2 2 2 1 2 0 1 3 3 4 3 4 6
0 0 0 0 0 0 0 0 0 0 0 0 0 0 0 0 3 7 9 3 4 8 22 25 6 3 0 0 0 0 0 0 1 2 4 2 1 1 5 5 4 5 6
0 0 0 0 0 0 0 0 0 0 0 0 0 1 4 6 7 1 5 10 11 11 8 11 17 8 4 0 0 0 0 0 0 0 1 1 2 2 2 3 3 3 4
0 0 0 0 0 0 0 0 0 0 0 0 0 1 1 6 8 9 6 7 10 12 9 9 9 10 6 1 0 0 0 0 0 0 0 2 2 1 2 2 2 3 4

GFSGL_con_sbcape_114.txt.gz
CAPE
330 302 296 284 255 93 7 26 153 451 369 402 355 578 785 867 780 930 963 813 1016 1030 1132 1332 1290 1039 1687 1318 1339 1222 1450 1262 1719 1583 931 1311 1650 2042 1862 1346 952 1074 699
0 24 3 53 170 515 502 245 95 194 195 365 333 297 713 808 913 936 1071 1160 1060 1021 937 935 1136 1160 1294 1159 1174 1388 1421 1231 1360 1478 1334 1350 1793 1712 1418 1456 732 398 545
0 0 0 1 40 209 474 692 750 477 244 86 33 81 198 322 542 852 981 983 1003 919 900 963 900 1125 1304 997 854 1008 996 1040 1194 1417 1342 1105 1324 1085 1158 882 680 576 253
4 1 0 2 2 38 234 548 752 620 400 237 60 0 36 63 55 358 784 869 813 852 899 1037 927 1225 1461 1535 1260 1417 1346 1382 1032 1175 1291 1244 1033 751 426 339 731 400 479
10 32 3 2 4 3 22 41 86 388 501 436 291 230 78 22 3 62 565 1090 1174 1186 1205 1165 1211 1104 864 1053 1550 2027 1541 1681 1639 1508 1474 994 813 529 482 244 416 266 630
1 2 0 0 1 4 4 2 1 18 75 138 114 297 695 667 21 290 162 870 921 933 1008 1151 1050 647 771 594 334 173 722 1631 1779 1272 1169 936 980 364 149 313 308 588 1063
0 0 0 0 0 0 1 3 4 3 1 2 2 0 86 2 1 1 0 358 729 934 973 1044 944 817 865 986 710 238 76 0 296 1394 1184 978 683 514 273 465 378 334 614
0 0 0 0 0 0 0 0 0 0 0 0 2 3 0 1 0 0 1 60 151 166 129 151 332 525 508 376 664 807 897 914 643 169 354 775 530 496 172 505 357 235 349
0 0 0 0 0 0 0 0 0 0 0 0 0 0 2 1 0 1 0 2 73 120 171 227 272 390 1 0 137 506 644 743 451 279 99 32 21 1 8 48 495 595 988
0 0 0 0 0 0 0 0 0 0 0 0 0 0 0 4 0 0 0 4 38 97 176 42 1 0 1 0 0 0 108 315 238 293 381 271 33 31 0 8 482 715 882
0 0 0 0 0 0 0 0 0 0 0 0 0 0 0 0 0 0 0 0 0 0 0 1 4 0 0 0 0 0 0 0 0 0 0 81 137 151 225 264 101 301 558
0 0 0 0 0 0 0 0 0 0 0 0 0 0 0 0 0 0 0 0 0 0 0 0 0 0 0 0 0 0 0 0 0 0 0 0 0 3 19 93 500 387 398
0 0 0 0 0 0 0 0 0 0 0 0 0 0 0 0 0 0 0 0 0 0 0 0 0 0 0 0 0 0 0 0 1 2 1 1 2 3 37 161 242 252 396
0 0 0 0 0 0 0 0 0 0 0 0 0 0 0 0 0 0 0 0 0 0 0 0 0 0 0 0 0 0 0 0 6 9 4 12 18 18 93 83 139 131 142
0 0 0 0 0 0 0 0 0 0 0 0 0 0 0 0 0 0 0 0 0 0 1 0 0 0 0 0 0 0 0 7 6 2 2 2 0 9 7 15 21 24 42
0 0 0 0 0 0 0 0 0 0 0 0 0 0 0 0 0 0 0 1 0 0 0 0 0 0 0 0 0 0 1 0 0 0 7 8 3 5 9 18 18 36 45
0 0 0 0 0 0 0 0 0 0 0 0 0 0 0 0 0 0 0 1 1 0 0 0 0 0 0 0 1 1 0 0 2 1 3 1 9 7 21 19 21 19 10
0 0 0 0 0 0 0 0 0 0 0 0 0 0 0 0 0 0 0 0 0 0 1 1 1 3 3 3 1 0 0 0 0 0 2 6 5 5 8 10 14 15 13
0 0 0 0 0 0 0 0 0 0 0 0 0 0 0 0 0 0 0 0 0 0 3 4 26 9 1 0 1 1 2 1 1 2 1 0 3 8 4 4 7 3 1
0 0 0 0 0 0 0 0 0 0 0 0 0 0 0 0 0 0 0 0 7 13 9 27 24 1 0 0 2 4 1 2 3 4 2 0 1 7 5 2 4 6 6
0 0 0 0 0 0 0 0 0 0 0 0 0 0 0 0 0 0 0 1 0 2 13 9 33 11 2 1 1 2 3 3 4 7 7 6 6 10 10 4 7 1 1
0 0 0 0 0 0 0 0 0 0 0 0 0 0 0 0 1 4 6 6 6 18 9 14 9 18 11 11 12 11 10 8 4 7 7 8 4 1 2 7 8 2 2
0 0 0 0 0 0 0 0 0 0 0 0 0 0 0 0 0 1 3 7 2 18 26 25 17 14 19 22 16 15 16 15 13 17 11 2 0 8 2 1 4 8 6
0 0 0 0 0 0 0 0 0 0 0 0 0 0 0 0 0 1 7 5 10 22 24 27 25 6 5 12 24 14 8 9 1 0 5 7 9 8 4 6 8 9 8
0 0 0 0 0 0 0 0 0 0 0 0 0 0 0 0 1 4 9 13 11 4 11 17 18 15 7 15 23 20 10 0 0 0 2 3 4 5 6 6 6 6 7
0 0 0 0 0 0 0 0 0 0 0 0 0 0 0 0 1 5 10 14 14 15 14 17 18 22 20 16 12 5 0 0 0 0 0 3 3 4 4 4 4 6 8

GFSGL_con_sbcape_117.txt.gz
CAPE
1223 1543 1626 1206 931 1047 994 1156 1391 1650 1775 1774 1909 2039 2167 2275 2243 2373 2406 2260 2271 2295 2411 2658 2642 2606 2357 2373 2413 2247 2246 2268 1557 1274 2105 2046 2664 3045 2915 2407 1319 538 632
1055 1384 1214 1137 1310 1386 1183 802 970 1260 1473 1651 1799 1673 1704 1984 1993 2083 1960 1602 2193 2116 2125 2354 2353 1803 2505 2572 2124 2595 2377 2495 2236 2518 2616 2245 2664 2750 2647 2333 1577 863 1518
803 824 682 729 864 1257 1581 1769 1413 1597 1784 1503 1354 1397 1455 1666 1938 1947 2072 1772 1779 2034 2090 2152 2169 2108 2600 2040 2430 2248 2281 2435 2625 2458 2525 2439 2607 2485 2256 2055 2069 2189 1175
272 79 193 262 310 244 643 1669 1983 2120 1954 1606 1393 1199 913 995 1283 1512 1851 2002 1923 1847 1905 1846 1836 2038 2265 2459 2394 2597 2449 2378 2415 2613 2353 2031 2371 2408 2035 1906 1725 1731 1876
70 70 61 101 123 255 312 625 1614 2110 2002 1695 1561 1276 848 712 646 965 1234 1489 1610 1509 1714 2003 1821 1477 1189 1277 2346 2926 2456 1636 1464 1591 1487 1708 1440 1782 1929 1569 1597 1523 1924
4 12 5 84 85 7 105 275 552 968 1325 1481 1567 1787 1984 1322 0 16 257 1137 1664 2005 2072 2117 2067 1398 1229 613 273 242 837 2569 2819 1745 1789 1859 2337 2037 1227 1243 1050 805 435
1 2 1 2 30 21 7 5 60 122 537 656 613 589 586 326 0 0 1 1973 2268 2349 2472 2507 2383 1507 1127 1962 1322 441 249 0 55 2221 2518 2472 2162 1961 1979 1954 1883 1887 1675
0 0 0 0 3 5 6 4 8 7 95 144 193 281 358 82 0 1 0 1276 1648 1712 1684 1703 1769 1843 1093 633 1729 1972 2010 2004 1823 1360 1688 1998 2064 2066 2097 1979 1934 1781 1680
0 0 0 0 0 0 0 0 4 5 4 4 40 81 191 118 0 1 65 393 732 811 935 907 912 1480 0 0 874 1741 1909 1916 1105 421 228 210 210 44 122 680 1448 1666 1547
0 0 0 0 0 0 0 0 0 0 0 0 25 36 0 0 1 0 0 0 0 20 117 4 0 0 0 0 0 172 1130 1371 1088 1066 1202 1030 167 1318 102 297 1186 1441 1332
0 0 0 0 0 0 0 0 0 0 0 0 1 0 5 0 0 0 0 0 0 0 0 0 0 0 0 0 0 0 0 0 0 0 54 308 482 702 853 1130 1480 1217 943
0 0 0 0 0 0 0 0 0 0 0 0 0 0 0 0 0 0 0 0 0 0 0 0 0 0 0 0 0 0 0 0 0 0 0 0 0 0 2 91 411 630 828
0 0 0 0 0 0 0 0 0 0 0 0 0 0 0 0 0 0 0 0 0 0 0 0 0 0 0 0 0 0 0 0 0 0 0 1 5 15 49 84 108 440 746
0 0 0 0 0 0 0 0 0 0 0 0 0 0 0 0 0 0 0 0 0 0 0 0 0 0 0 0 0 0 0 0 0 3 1 0 0 0 0 5 15 44 78
0 0 0 0 0 0 0 0 0 0 0 0 0 0 0 0 0 0 0 0 0 0 0 0 0 0 0 0 0 0 0 0 0 0 0 0 0 0 0 0 0 3 25
0 0 0 0 0 0 0 0 0 0 0 0 0 0 0 0 0 0 0 0 0 0 0 0 0 0 0 0 0 0 2 1 0 0 0 0 0 0 0 0 0 0 0
0 0 0 0 0 0 0 0 0 0 0 0 0 0 0 0 0 0 0 0 0 0 0 0 0 0 0 0 0 4 11 18 10 4 2 0 0 0 0 0 0 0 0
0 0 0 0 0 0 0 0 0 0 0 0 0 0 0 0 0 0 0 0 0 0 0 1 8 3 10 10 7 7 2 0 0 4 3 4 5 5 2 1 0 0 0
0 0 0 0 0 0 0 0 0 0 0 0 0 0 0 0 0 0 0 0 0 0 0 0 0 1 7 17 20 13 7 4 2 3 8 7 5 4 7 4 3 0 0
0 0 0 0 0 0 0 0 0 0 0 0 0 0 0 0 0 0 0 0 0 0 0 0 6 0 8 27 30 32 27 21 15 12 11 9 9 7 6 5 11 11 6
0 0 0 0 0 0 0 0 0 0 0 0 0 0 0 0 0 0 0 0 0 0 0 0 1 8 11 13 23 13 12 13 12 9 13 16 13 8 11 2 3 3 10
0 0 0 0 0 0 0 0 0 0 0 0 0 0 0 0 0 0 0 0 0 3 5 9 10 11 8 11 26 20 13 16 13 15 13 13 14 12 9 12 12 4 2
0 0 0 0 0 0 0 0 0 0 0 0 0 0 0 0 0 0 0 0 1 4 7 12 17 21 12 7 20 25 21 14 21 18 16 16 15 5 5 9 5 10 9
0 0 0 0 0 0 0 0 0 0 0 0 0 0 0 0 0 0 0 2 4 6 6 12 15 19 22 23 22 8 24 37 41 41 25 24 19 19 19 19 19 16 18
0 0 0 0 0 0 0 0 0 0 0 0 0 0 0 0 0 0 0 0 0 4 13 18 24 18 16 17 24 18 7 0 0 0 3 8 11 10 13 14 13 17 15
0 0 0 0 0 0 0 0 0 0 0 0 0 0 0 0 0 0 0 0 4 9 12 11 16 11 12 15 15 4 0 0 0 0 1 5 7 6 8 9 8 14 12